     2              OBSERVATION DATA    GPS                 RINEX VERSION / TYPE
teqc 2000Feb29 20021016 17:30:08UTC                         PGM / RUN BY / DATE
                                                            COMMENT
L2: 1 -> 1; 5 -> 5; 60 -> 9                                 COMMENT
L2: 1 -> 1; 5 -> 5; 60 -> 9                                 COMMENT
L2: 1 -> 1; 5 -> 5; 60 -> 9                                 COMMENT
L2: 1 -> 1; 5 -> 5; 60 -> 9                                 COMMENT
L2: 1 -> 1; 5 -> 5; 60 -> 9                                 COMMENT
Original Marker Name: FREM                                  COMMENT
Campaign Name: Yolo County Subsidence 2002                  COMMENT
4-Character Station Name: FREM                              COMMENT
6-Character Antenna Code: TRMCMP                            COMMENT
Vertical Measurement Point: BPA                             COMMENT
Vertical Offset to Rinex Ref. Point: 0.0000                 COMMENT
Radial Measurement Point: RRP                               COMMENT
Radial Offset to Rinex Ref. Point: 0.0000                   COMMENT
Antenna Height from Field Measurement: 2.0000 m             COMMENT
Additional Antenna Identification Info.:                    COMMENT
Model 22020.00+GP                                           COMMENT
Original XYZ: -2611933.4614 -4239734.5607 3971974.1265      COMMENT
New XYZ position is based on association with SCEC monument COMMENT
E1O4I2A8+0011. Position of that monument is believed to be  COMMENT
valid to within 1 m horizontally; vertical accuracy         COMMENT
should be no worse than 3-times this value.                 COMMENT
                                                            COMMENT
Revised Rinex header created by UCSD GPS archive for        COMMENT
GSAC on 27-Jun-2003 (2003:178) 16:46:02 GMT                 COMMENT
For assistance contact dagnew@ucsd.edu                      COMMENT
or anderson@python.ucsd.edu                                 COMMENT
                                                            COMMENT
FREMONT 1999                                                MARKER NAME
FREM                                                        MARKER NUMBER
-Unknown- YOLO_COUNTY                                       OBSERVER / AGENCY
14632 TRIMBLE 4000 SSI NP 7.19; SP 3.04                     REC # / TYPE / VERS
50490 TR GEOD L1/L2 GP                                      ANT # / TYPE
 -2611930.5487 -4239732.5987  3971971.3871                  APPROX POSITION XYZ
        2.0000        0.0000        0.0000                  ANTENNA: DELTA H/E/N
     1     1     0                                          WAVELENGTH FACT L1/2
     7    C1    L1    L2    P1    P2    S1    S2            # / TYPES OF OBSERV
     0                                                      INTERVAL
  2002     8     6    15    32   45.000000                  TIME OF FIRST OBS
  2002     8     6    16    38   45.000000                  TIME OF LAST OBS
                                                            END OF HEADER
 02  8  6 15 32 45.0000000  0  9G 2G 3G15G17G18G21G22G 6G26
  24619873.4454      61124.54555     22905.01455                  24619881.6764
         8.5004          8.7504
  22954354.3284     -84168.27656    -46063.55656                  22954361.6454
        16.5004         15.7504
  20571964.1804      34469.64558
        30.7504
  20951442.4144      58617.64557     35400.40057                  20951448.3094
        26.7504         27.0004
  20531999.7344      31583.52657     18043.32757                  20532004.9614
        22.2504         26.5004
  21977566.6024     -40197.43857    -21936.63656                  21977572.9884
        26.2504         24.0004
  24331992.6024     126700.65455     49506.82455                  24332000.8324
         9.2504          9.7504
  23248796.7664     131800.33254
         6.2504
  23130919.9384     114389.20854
         7.2504
 02  8  6 15 33  0.0000000  0  9G 2G 3G15G17G18G21G22G 6G26
  24623915.7894      82368.96145     39459.06145                  24623924.8754
         8.2504          9.0004
  22948966.7664    -112481.69946    -68125.97046                  22948974.1524
        16.5004         15.7504
  20574614.3834      48396.71948     10131.25057                  20574620.4304
        30.7504         29.5004
  20955310.5864      78945.95647     51240.61847                  20955316.6214
        26.5004         27.0004
  20534127.3364      42766.84347     26757.58547                  20534132.7854
        21.7504         26.2504
  21975026.0634     -53548.77647    -32340.27946                  21975032.4734
        27.0004         24.5004
  24340276.3914     170238.48545     83432.32945                  24340285.5704
         8.7504          9.2504
  23260604.5474     193845.70944
         6.7504
  23139821.5554     161172.02244
         7.2504
 02  8  6 15 33 15.0000000  0  9G 2G 3G15G17G18G21G22G 6G26
  24627998.2424     103813.60345     56169.16545                  24628006.4264
         9.7504         10.2504
  22943615.2194    -140603.80646    -90039.31446                  22943622.9804
        16.5004         15.7504
  20577298.4304      62500.63848     21121.31047                  20577304.4064
        31.2504         29.5004
  20959211.0234      99443.76847     67212.91347                  20959217.2344
        26.2504         26.7504
  20536294.9614      54156.19347     35632.39347                  20536300.3404
        22.2504         26.0004
  21972518.0704     -66724.72047    -42607.24946                  21972524.4694
        26.2504         24.7504
  24348595.2584     213943.07945    117487.80345                  24348602.4804
         9.7504          9.0004
  23272441.0864     256049.24643
         5.7504
  23148768.3134     208182.64244
         6.7504
 02  8  6 15 33 30.0000000  0  9G 2G 3G15G17G18G21G22G 6G26
  24632117.1484     125462.56145     73038.44045                  24632125.3794
         9.2504         10.2504
  22938301.6334    -168530.09446   -111800.05746                  22938309.7704
        17.2504         15.7504
  20580016.7664      76785.64848     32252.46547                  20580022.7774
        31.2504         29.7504
  20963144.9614     120115.36147     83320.61447                  20963151.0204
        26.2504         26.7504
  20538502.4694      65755.80247     44671.04047                  20538507.2154
        23.0004         26.0004
  21970044.8914     -79721.14647    -52734.33446                  21970051.3954
        25.5004         25.0004
  24356943.7114     257818.29145    151676.22845                  24356950.4734
         9.7504          9.0004
  23284308.4064     318414.87244        -3.24655                  23284316.2734
         6.2504          8.5004
  23157757.6884     255424.89243
         5.2504
 02  8  6 15 33 45.0000000  0  9G 2G 3G15G17G18G21G22G 6G26
  24636272.7584     147310.38545     90062.63845                  24636282.3364
         7.5004          8.5004
  22933024.0394    -196265.59646   -133412.13546                  22933031.0744
        18.0004         16.0004
  20582768.2584      91246.60848     43520.73147                  20582774.3164
        30.0004         29.2504
  20967110.3754     140955.63947     99559.76747                  20967116.5044
        25.2504         26.2504
  20540748.8834      77560.20547     53869.26147                  20540753.0084
        23.2504         26.2504
  21967605.3204     -92543.34147    -62725.66446                  21967611.7544
        26.0004         24.7504
  24365325.1414     301858.55045    185993.26945                  24365332.2114
        10.7504          9.2504
  23296206.2504     380937.11944     48715.31145                  23296213.1684
         6.2504          8.7504
  23166787.1644     302893.25442
         4.0004
 02  8  6 15 34  0.0000000  0  9G 2G 3G15G17G18G21G22G 6G26
  24640466.6564     169351.82244    107237.78745                  24640475.9064
         6.7504          8.2504
  22927780.8674    -223814.95346   -154879.15446                  22927787.2304
        17.2504         15.2504
  20585552.5704     105878.53048     54922.21647                  20585558.6054
        30.0004         29.2504
  20971107.2114     161959.56647    115926.44147                  20971113.2934
        24.7504         26.2504
  20543033.3284      89564.30347     63223.08847                  20543037.6644
        23.5004         26.5004
  21965197.3594    -105196.08447    -72584.94546                  21965203.8284
        25.5004         24.7504
  24373736.0164     346058.44645    220434.68445                  24373741.6884
        10.0004          8.2504
  23308133.6024     443610.69344     97551.72245                  23308140.0704
         7.2504          8.7504
  23175863.9144     350582.31542
         3.7504
 02  8  6 15 34 15.0000000  0  9G 2G 3G15G17G18G21G22G23G 6
  24644696.1174     191578.93044    124557.63745                  24644705.5904
         6.7504          7.7504
  22922572.2894    -251185.62946   -176206.96646                  22922578.6644
        17.7504         15.5004
  20588367.9774     120673.71448     66450.91647                  20588373.9534
        29.5004         29.0004
  20975133.5704     183119.41447    132414.61047                  20975139.9804
        24.7504         26.2504
  20545354.3204     101760.15247     72726.33447                  20545358.5514
        24.2504         26.5004
  21962820.0164    -117687.29047    -82318.35746                  21962826.6484
        24.5004         24.5004
  24382175.7584     390409.86645    254994.23845                  24382183.2274
         9.7504          9.7504
  24023559.3594       7171.62851
         3.0004
  23320087.8984     506427.42745    146499.74645                  23320094.5434
         7.7504          9.2504
 02  8  6 15 34 30.0000000  0 10G 2G 3G15G17G18G21G22G23G 6G26
  24648960.4384     213979.32645    142012.39545                  24648970.0044
         7.7504          8.0004
  22917395.6024    -278389.66746   -197404.91946                  22917401.6604
        17.7504         16.0004
  20591211.9774     135619.97248     78097.33247                  20591218.1524
        28.7504         28.5004
  20979187.9224     204423.04247    149014.82147                  20979194.1804
        25.5004         26.5004
  20547709.0164     114135.31847     82369.30747                  20547713.1294
        24.5004         27.0004
  21960471.4384    -130029.27447    -91935.48246                  21960477.7074
        24.2504         24.2504
  24390641.6484     434900.15645    289661.96645                  24390649.3754
         9.2504          9.2504
  24033812.7664      61034.80342
         4.0004
  23332066.5704     569374.84645    195549.60045                  23332074.8364
         7.7504          9.2504
  23194132.7424      16051.66851
         2.5004
 02  8  6 15 34 45.0000000  0  9G 2G 3G15G17G18G21G22G23G 6
  24653254.4614     236548.79545    159598.99545                  24653263.4064
         7.5004          8.0004
  22912250.3204    -305430.64646   -218475.82746                  22912256.5784
        18.2504         16.0004
  20594084.3444     150713.35548     89858.40447                  20594090.4734
        28.7504         28.5004
  20983268.5554     225866.49647    165723.99247                  20983274.7774
        26.5004         26.5004
  20550097.4844     126685.79447     92148.89247                  20550101.6454
        25.0004         27.2504
  21958150.3284    -142225.86647   -101439.31246                  21958156.6334
        24.2504         24.2504
  24399133.5864     479525.00645    324434.51745                  24399141.7234
         9.2504          9.7504
  24044077.1484     114979.02642
         3.7504
  23344068.2034     632448.75845    244698.00445                  23344077.7584
         7.5004          9.0004
 02  8  6 15 35  0.0000000  0 10G 2G 3G15G17G18G21G22G23G 6G26
  24657579.2114     259276.94745    177309.27245                  24657588.9774
         7.5004          7.7504
  22907133.7034    -332318.55246   -239427.42746                  22907140.1484
        18.5004         16.5004
  20596982.1254     165943.66347    101726.15047                  20596988.2544
        27.5004         28.0004
  20987373.8674     247439.70647    182534.25747                  20987380.0084
        27.0004         27.2504
  20552516.9694     139401.16347    102056.96147                  20552521.0704
        24.2504         26.7504
  21955855.3914    -154287.48447   -110837.96646                  21955861.8714
        24.5004         24.2504
  24407648.5234     524273.85945    359303.70445                  24407656.6954
         9.7504          9.7504
  24054356.5084     168993.79042
         3.7504
  23356094.8134     695638.54245    293936.71845                  23356101.7664
         7.5004          8.7504
  23212557.1254      35567.92441
         2.7504
 02  8  6 15 35 15.0000000  0 10G 2G 3G15G17G18G21G22G23G 6G26
  24661934.1484     282160.32544    195140.41445                  24661942.8954
         7.0004          8.2504
  22902046.1414    -359056.26446   -260262.00646                  22902052.5164
        19.2504         17.0004
  20599906.0234     181307.73247    113698.13247                  20599912.0704
        27.5004         27.7504
  20991503.0784     269139.44747    199443.12947                  20991509.2304
        27.2504         27.7504
  20554967.5234     152278.07047    112090.90147                  20554971.6254
        23.7504         26.2504
  21953584.8444    -166217.33347   -120133.95246                  21953591.4774
        24.5004         24.0004
  24416186.1484     569143.16745    394266.73445                  24416194.0394
         8.5004          9.7504
  24064648.8754     223075.70542
         4.0004
  23368138.6724     758940.81244    343263.04345                  23368143.8984
         6.5004          8.0004
  23221814.8674       6494.44451
         3.0004
 02  8  6 15 35 30.0000000  0 10G 2G 3G15G17G18G21G22G23G 6G26
  24666315.5554     305186.37344    213082.80145                  24666326.2584
         7.2504          8.2504
  22896984.1174    -385655.82846   -280988.93046                  22896990.6214
        18.7504         17.5004
  20602852.5554     196793.25747    125764.75547                  20602858.5554
        27.0004         27.7504
  20995654.0314     290953.42447    216441.01147                  20995660.1844
        27.2504         27.7504
  20557445.8674     165304.04447    122240.99847                  20557450.1684
        23.0004         26.0004
  21951337.6804    -178027.67647   -129336.81646                  21951344.6454
        25.0004         24.5004
  24424745.6884     614120.11045    429313.68445                  24424753.3914
         9.5004         10.5004
  24074952.0634     277212.29042        -3.43555                  24074960.0594
         3.7504          5.5004
  23380204.7814     822342.86244    392667.19745                  23380213.2114
         6.2504          7.7504
  23231108.6564      16292.86552
         4.0004
 02  8  6 15 35 45.0000000  0 10G 2G 3G15G17G18G21G22G23G 6G26
  24670722.6024     328350.39144    231132.62545                  24670735.5084
         7.2504          8.5004
  22891947.8674    -412121.45946   -301611.50446                  22891954.9144
        18.7504         17.0004
  20605821.5704     212395.89747    137922.63447                  20605827.7814
        26.7504         27.5004
  20999825.6414     312877.21947    233524.46347                  20999832.1334
        26.2504         27.5004
  20559952.3984     178474.47647    132503.66547                  20559956.8634
        22.7504         25.7504
  21949111.6884    -189723.13647   -138450.16146                  21949118.6764
        24.5004         24.5004
  24433325.2894     659199.82845    464440.66245                  24433332.9574
        10.5004         10.5004
  24085260.8134     331398.77841     42219.73745                  24085278.6644
         3.2504          4.5004
  23392285.6334     885839.92943    442145.32345                  23392296.6524
         6.0004          7.5004
  23240432.5784      65290.40942
         3.7504
 02  8  6 15 36  0.0000000  0 10G 2G 3G15G17G18G21G22G23G 6G26
  24675158.6094     351650.74945    249288.73545                  24675166.5944
         9.2504          8.5004
  22886936.5004    -438454.28546   -322130.58546                  22886943.9454
        18.2504         17.0004
  20608813.3364     228114.26747    150170.69547                  20608819.2894
        27.7504         27.5004
  21004018.2664     334909.53747    250692.47147                  21004024.7114
        25.7504         27.5004
  20562485.6564     191787.81847    142877.68147                  20562490.4614
        22.2504         25.7504
  21946907.9774    -201305.15247   -147475.09146                  21946914.7384
        24.7504         24.2504
  24441922.8054     704380.59045    499646.40045                  24441931.4104
        10.7504         11.0004
  24095580.8834     385633.66041     84480.57745                  24095587.0824
         3.0004          5.2504
  23404385.6334     949430.31343    491696.16445                  23404395.7154
         5.0004          8.2504
  23249789.4614     114450.34642
         4.0004
 02  8  6 15 36 15.0000000  0 10G 2G 3G15G17G18G21G22G23G 6G26
  24679617.7114     375081.93645    267546.77045                  24679626.8324
         9.7504         10.0004
  22881949.5554    -464659.36646   -342550.13646                  22881956.7194
        18.0004         17.2504
  20611825.8364     243943.09648    162504.82847                  20611831.7894
        28.5004         27.5004
  21008230.5554     357044.99847    267940.86247                  21008237.1414
        25.2504         27.0004
  20565044.9694     205238.64447    153358.83247                  20565050.0664
        22.0004         25.7504
  21944724.7114    -212779.01047   -156415.75346                  21944731.3094
        25.2504         24.7504
  24450539.2584     749656.68745    534926.44345                  24450547.7114
        10.7504         11.0004
  24105909.2194     439911.45241    126774.96145                  24105917.4024
         2.5004          5.0004
  23416502.7814    1013108.47643    541315.41145                  23416511.7034
         5.0004          7.7504
  23259169.6334     163767.14641
         2.7504
 02  8  6 15 36 30.0000000  0  9G 2G 3G15G17G18G21G22G23G 6
  24684101.5704     398641.47945    285904.76245                  24684110.3754
        10.5004          9.7504
  22876986.5634    -490738.66546   -362871.67646                  22876993.7734
        17.5004         17.0004
  20614858.3594     259880.19748    174923.33047                  20614864.3954
        28.7504         28.0004
  21012462.3524     379281.47147    285267.96547                  21012468.7734
        25.7504         26.7504
  20567630.5704     218824.55447    163945.24847                  20567635.6094
        23.0004         26.0004
  21942561.0944    -224147.05747   -165273.96346                  21942568.0354
        24.7504         25.0004
  24459170.8834     795025.59645    570278.77745                  24459179.2664
         9.5004         10.0004
  24116247.1644     494229.76741    169100.75245                  24116256.5904
         3.0004          4.7504
  23428638.3204    1076871.82143    591001.04445                  23428648.6844
         5.7504          8.7504
 02  8  6 15 36 45.0000000  0  9G 2G 3G15G17G18G21G22G23G 6
  24688610.5554     422332.35745    304365.17145                  24688619.1604
        11.5004         10.2504
  22872048.5784    -516688.64646   -383092.45546                  22872055.6954
        17.5004         16.7504
  20617912.2034     275928.78748    187428.70947                  20617918.2504
        28.7504         28.2504
  21016713.5164     401622.20247    302676.29547                  21016719.7384
        26.2504         27.0004
  20570241.8594     232548.60647    174639.29647                  20570246.7814
        22.2504         25.7504
  21940419.1094    -235405.91447   -174047.09446                  21940426.4844
        25.2504         25.2504
  24467821.5634     840489.92245    605705.47345                  24467830.1564
         8.7504         10.0004
  24126590.2584     548591.54841    211460.42244                  24126605.7074
         2.5004          4.0004
  23440788.2034    1140723.28743    640755.36045                  23440796.6334
         5.7504          7.7504
 02  8  6 15 37  0.0000000  0  9G 2G 3G15G17G18G21G22G23G 6
  24693142.2734     446150.85345    322925.00945                  24693150.7974
        10.7504         10.5004
  22867134.8134    -542512.54146   -403214.98246                  22867141.7074
        17.7504         16.7504
  20620986.8284     292085.53048    200018.36547                  20620993.0044
        28.5004         28.2504
  21020984.1174     424063.92647    320163.33447                  21020990.1294
        26.7504         27.2504
  20572879.5234     246407.21247    185438.19747                  20572884.2704
        22.5004         25.7504
  21938296.5394    -246559.16547   -182737.93846                  21938303.5394
        25.5004         25.2504
  24476490.7274     886046.03745    641203.71945                  24476498.5944
         8.5004          9.0004
  24136939.6174      18134.20651    253851.33845                  24136952.0554
         2.0004          4.7504
  23452955.4384    1204659.02144    690575.31545                  23452966.2234
         6.2504          8.7504
 02  8  6 15 37 15.0000000  0  9G 2G 3G15G17G18G21G22G23G 6
  24697699.0234     470093.63145    341581.65145                  24697706.2344
        10.5004          9.2504
  22862244.4384    -568213.23046   -423241.51146                  22862250.7544
        19.2504         16.7504
  20624081.1564     308347.29948    212689.85347                  20624087.7544
        28.2504         28.5004
  21025273.7034     446603.39347    337726.52747                  21025279.7384
        27.2504         27.5004
  20575541.3984     260397.01847    196339.33146                  20575546.2504
        22.2504         25.5004
  21936194.2114    -257609.87347   -191348.87546                  21936200.8094
        26.7504         24.7504
  24485176.1484     931690.31745    676770.62945                  24485185.5044
         8.0004          8.2504
  24147302.4844      29034.34051    296270.57944                  24147318.0394
         2.5004          4.0004
  23465138.2894    1268675.64444    740458.27745                  23465148.4884
         7.0004          8.7504
 02  8  6 15 37 30.0000000  0  9G 2G 3G15G17G18G21G22G23G 6
  24702277.5394     494161.42645    360335.76045                  24702285.4884
         9.0004          9.0004
  22857377.5704    -593789.46546   -443171.04546                  22857383.4414
        19.5004         17.0004
  20627195.7034     324715.03748    225443.91647                  20627202.2894
        28.0004         28.5004
  21029581.7424     469241.57947    355366.64847                  21029587.9654
        27.2504         27.7504
  20578228.9694     274518.85647    207343.34547                  20578233.6334
        22.2504         25.7504
  21934109.9614    -268557.36347   -199879.38946                  21934116.2544
        24.7504         24.2504
  24493879.2034     977423.35245    712406.73145                  24493887.6214
         7.7504          9.0004
  24157668.5084      83509.74441    338718.82745                  24157679.1414
         3.0004          5.5004
  23477335.1804    1332773.74344    790404.79445                  23477346.5514
         6.7504          9.2504
 02  8  6 15 37 45.0000000  0  9G 2G 3G15G17G18G21G22G23G 6
  24706879.7194     518350.74544    379184.56745                  24706890.3164
         7.2504          8.0004
  22852534.0234    -619244.18247   -463005.89246                  22852539.7544
        20.5004         17.5004
  20630330.2664     341185.58548    238278.09947                  20630336.6994
        28.7504         28.2504
  21033907.5474     491975.24547    373081.16947                  21033914.0044
        26.7504         28.2504
  20580940.4454     288769.35347    218447.62447                  20580945.3554
        22.2504         26.2504
  21932045.7584    -279404.95247   -208332.06746                  21932051.9454
        24.2504         24.0004
  24502598.3754    1023241.52045    748109.13845                  24502608.7974
         7.7504          8.2504
  24168041.3914     138019.01241    381193.48245                  24168050.3594
         3.2504          4.5004
  23489548.1024    1396949.83244    840411.99445                  23489559.3324
         7.2504          9.5004
 02  8  6 15 38  0.0000000  0  9G 2G 3G15G17G18G21G22G23G 6
  24711503.5944     542659.84643    398126.67445                  24711513.3134
         5.0004          6.7504
  22847712.3984    -644578.64746   -482747.03646                  22847718.5864
        19.5004         17.5004
  20633483.9304     357757.41648    251191.19547                  20633490.0234
        29.0004         28.0004
  21038251.3674     514803.03047    390869.03347                  21038258.0124
        26.0004         27.7504
  20583676.6954     303146.78947    229650.81847                  20583681.9104
        22.5004         26.5004
  21930001.0234    -290154.00047   -216707.94746                  21930007.2814
        26.0004         24.2504
  24511333.3134    1069142.91845    783876.38045                  24511341.8594
         7.5004          8.0004
  24178417.9144     192560.42341    423693.24044                  24178421.5704
         2.5004          4.0004
  23501773.8674    1461201.99345    890478.51345                  23501784.5354
         7.7504          9.2504
 02  8  6 15 38 15.0000000  0 10G 2G 3G15G17G18G21G22G23G 6G26
  24716153.6804     567090.04743    417163.13645                  24716165.1914
         5.7504          7.5004
  22842914.5864    -669790.98746   -502393.00746                  22842920.6804
        19.5004         17.5004
  20636657.2194     374432.12448    264184.45147                  20636663.2304
        30.2504         28.5004
  21042613.4844     537726.55247    408731.49947                  21042620.2814
        25.2504         27.5004
  20586436.6024     317652.61147    240954.04747                  20586442.0634
        21.5004         26.2504
  21927974.7344    -300803.10547   -225005.94846                  21927980.8524
        26.2504         24.5004
  24520083.6484    1115128.70945    819709.46245                  24520089.7074
         8.0004          7.7504
  24188805.5084     247135.35241    466219.05445                  24188814.5124
         3.0004          4.7504
  23514014.9224    1525531.57945    940605.37345                  23514024.0434
         7.7504          9.0004
  23335289.7274      47151.67342
         4.0004
 02  8  6 15 38 30.0000000  0 10G 2G 3G15G17G18G21G22G23G 6G26
  24720825.8914     591641.34943    436293.94245                  24720838.0004
         6.0004          8.0004
  22838139.8204    -694880.67446   -521943.41546                  22838146.1604
        19.5004         18.0004
  20639849.9614     391210.05948    277258.15247                  20639855.9734
        31.0004         28.7504
  21046994.0234     560746.13347    426668.80647                  21047000.6214
        25.0004         27.0004
  20589221.1644     332286.89647    252357.37047                  20589227.1174
        20.7504         25.7504
  21925967.1804    -311351.91347   -233225.79646                  21925973.6724
        26.0004         25.2504
  24528850.7274    1161198.75745    855608.14845                  24528858.0554
         8.0004          7.5004
  24199197.0164     301743.93842    508771.05744                  24199198.0824
         3.7504          3.7504
  23526271.8914    1589938.53245    990792.52945                  23526280.5204
         7.7504          9.5004
  23344926.4534      97816.60941
         3.0004
 02  8  6 15 38 45.0010000  0 10G 2G 3G15G17G18G21G22G23G 6G26
  24725522.5054     616315.43344    455520.48845                  24725531.1464
         7.2504          8.0004
  22833389.0444    -719848.85347   -541399.14846                  22833395.2554
        20.0004         18.0004
  20643062.7394     408092.60248    290413.36347                  20643068.7634
        30.7504         28.5004
  21051393.1614     583863.49747    444682.31347                  21051399.8764
        25.7504         27.2504
  20592030.9504     347050.77647    263861.68047                  20592036.8104
        21.0004         26.0004
  21923978.5524    -321801.13947   -241368.05146                  21923985.1494
        26.0004         25.2504
  24537633.0284    1207356.00544    891574.81945                  24537638.4894
         7.2504          8.0004
  24209597.7714     356389.87841
         3.5004
  23538544.2714    1654427.05345   1041043.18645                  23538552.8064
         9.0004          9.5004
  23354600.2084     148630.98142
         3.7504
 02  8  6 15 39  0.0010000  0 10G 2G 3G15G17G18G21G22G23G 6G26
  24730240.9274     641108.46044    474839.72445                  24730249.5914
         7.2504          7.2504
  22828661.1224    -744692.21546   -560757.62446                  22828668.1574
        19.2504         18.2504
  20646294.6304     425077.29148    303648.16347                  20646300.6304
        31.0004         28.5004
  21055810.1614     607075.40947    462769.49147                  21055816.5834
        25.2504         27.0004
  20594864.8724     361941.78447    275465.05547                  20594870.3454
        21.7504         26.2504
  21922009.7394    -332149.54547   -249431.74446                  21922016.2674
        26.5004         25.2504
  24546433.1464    1253593.74645    927604.16245                  24546439.4974
         7.7504          7.5004
  24220001.2554     411065.36141
         3.5004
  23550829.3494    1718988.02645   1091350.34445                  23550838.2004
         9.2504          9.0004
  23364295.5364     199587.15142
         4.0004
 02  8  6 15 39 15.0010000  0 10G 2G 3G15G17G18G21G22G23G 6G26
  24734982.1614     666019.92645    494251.20545                  24734989.6884
         8.0004          8.7504
  22823957.1464    -769414.05946   -580021.39746                  22823963.7904
        19.7504         18.0004
  20649545.8174     442163.30148    316961.92947                  20649551.8534
        30.5004         28.5004
  21060245.2084     630381.46547    480930.02747                  21060251.4664
        24.5004         26.5004
  20597722.4584     376958.79147    287166.60047                  20597727.8604
        21.5004         26.5004
  21920058.7714    -342399.71147   -257418.88447                  21920065.4384
        26.2504         25.7504
  24555248.7004    1299912.56345    963696.70745                  24555253.0604
         9.0004          7.5004
  24230409.3104     465771.82541
         3.0004
  23563130.1064    1783623.39745   1141715.45945                  23563139.1574
         9.2504          9.5004
  23374020.6464     250686.28442
         3.7504
 02  8  6 15 39 30.0010000  0 10G 2G 3G15G17G18G21G22G23G 6G26
  24739746.1464     691050.76245    513755.67545                  24739752.5324
         9.2504          9.5004
  22819276.4974    -794012.88946   -599189.32246                  22819283.6384
        19.7504         18.5004
  20652816.7004     459351.88948    330355.62247                  20652822.7474
        30.2504         28.7504
  21064698.4114     653782.95647    499164.92747                  21064704.8684
        24.5004         26.2504
  20600604.3024     392102.86947    298967.16747                  20600609.7394
        21.2504         26.2504
  21918127.4194    -352550.76047   -265328.78947                  21918134.3134
        26.5004         26.2504
  24564078.5674    1346313.33245    999853.13245                  24564085.0014
         9.2504          8.7504
  24240827.4034     520510.34641
         3.5004
  23575442.7944    1848334.13945   1192139.31645                  23575453.0524
         8.7504          8.2504
  23383771.7554     301929.15442
         4.7504
 02  8  6 15 39 45.0010000  0 10G 2G 3G15G17G18G21G22G23G 6G26
  24744532.9424     716202.94145    533354.72745                  24744540.6464
        10.0004          9.7504
  22814618.1924    -818486.41046   -618259.58746                  22814625.7434
        18.2504         18.2504
  20656107.4504     476645.33348    343831.02347                  20656113.4154
        30.0004         28.7504
  21069170.1224     677282.05347    517475.88947                  21069177.0524
        23.7504         26.0004
  20603510.4584     407376.12047    310868.39847                  20603516.2824
        21.0004         25.7504
  21916215.0054    -362600.40847   -273159.68247                  21916222.1104
        26.7504         26.2504
  24572924.6854    1392797.91845   1036074.81345                  24572930.6964
        10.0004          9.2504
  24251250.5054     575282.93141
         3.0004
  23587771.6694    1913122.08745   1242623.31545                  23587780.7904
         8.0004          7.7504
  23393548.8494     353317.63042
         3.7504
 02  8  6 15 40  0.0010000  0 10G 2G 3G15G17G18G21G22G23G 6G26
  24749342.3804     741475.35645    553047.48045                  24749350.2474
        10.5004         10.0004
  22809985.0284    -842835.04646   -637232.56846                  22809991.6854
        18.2504         17.7504
  20659418.0364     494042.76948    357387.44847                  20659424.0484
        30.2504         29.0004
  21073660.5134     700877.87647    535862.22147                  21073667.1104
        24.5004         26.0004
  20606441.4814     422777.50347    322869.47147                  20606447.3064
        21.5004         25.7504
  21914321.5214    -372549.55647   -280912.26047                  21914328.9894
        26.5004         26.0004
  24581786.3884    1439364.99845   1072360.81645                  24581793.5754
         9.5004          9.7504
  24261680.0604     630088.49741
         2.7504
  23600115.5754    1977986.02245   1293166.52345                  23600122.0794
         8.7504          7.7504
  23403354.7004     404850.51842
         3.7504
 02  8  6 15 40 15.0010000  0 10G 2G 3G15G17G18G21G22G23G 6G26
  24754173.0524     766866.78945    572833.00445                  24754182.0444
         8.5004          9.0004
  22805376.3414    -867059.53246   -656108.78746                  22805383.2824
        19.7504         18.0004
  20662748.3564     511543.15048    371024.09447                  20662754.4624
        30.0004         29.5004
  21078168.8804     724569.49647    554323.19947                  21078175.6774
        25.2504         26.2504
  20609396.1774     438305.76047    334969.40247                  20609401.5674
        21.5004         26.0004
  21912447.2084    -382399.28747   -288587.36946                  21912454.6064
        26.0004         25.5004
  24590662.7714    1486013.11345   1108709.93645                  24590670.4274
         9.2504          9.5004
  24272114.0754     684925.89341
         3.2504
  23612473.2394    2042924.71145   1343768.01645                  23612478.9354
         8.2504          6.7504
  23413189.8334     456526.35043     10745.32254                  23413200.6654
         5.0004          4.2504
 02  8  6 15 40 30.0010000  0  9G 2G 3G15G17G18G21G22G 6G26
  24759026.5444     792377.43145    592711.35245                  24759037.0714
         8.2504          9.2504
  22800790.0364    -891159.14247   -674887.71446                  22800796.2594
        20.0004         18.0004
  20666098.2864     529147.15748    384741.49147                  20666104.3684
        30.5004         29.2504
  21082695.7864     748357.65547    572859.39647                  21082702.1144
        25.7504         26.5004
  20612375.6534     453961.32347    347168.52647                  20612381.1384
        22.0004         25.7504
  21910591.2004    -392149.01647   -296184.55946                  21910598.5404
        24.7504         25.0004
  24599554.8104    1532742.48245   1145122.39145                  24599563.2514
         9.5004         10.0004
  23624846.0674    2107938.28845   1394427.72445                  23624851.6224
         8.7504          6.2504
  23423050.4894     508345.50543     51123.82845                  23423063.2674
         5.0004          5.5004
 02  8  6 15 40 45.0010000  0 10G 2G 3G15G17G18G21G22G23G 6G26
  24763902.2634     818006.00344    612681.64945                  24763912.9314
         7.2504          9.2504
  22796227.3104    -915134.61546   -693569.89546                  22796234.1694
        19.0004         17.7504
  20669467.7314     546853.73448    398538.80647                  20669473.7084
        30.7504         29.5004
  21087241.0134     772241.14247    591469.88147                  21087247.3764
        26.5004         27.0004
  20615378.6144     469742.92447    359465.85947                  20615383.7944
        21.7504         26.5004
  21908754.8724    -401799.83547   -303704.67446                  21908761.8134
        25.0004         24.2504
  24608462.9424    1579551.77745   1181597.12245                  24608470.9504
         9.7504         10.0004
  24293000.2394      51237.08841
         2.2504
  23637232.1924    2173025.44845   1445144.96345                  23637239.3334
         9.2504          7.0004
  23432937.7944     560306.31543     91612.71445                  23432944.2044
         5.2504          5.5004
 02  8  6 15 41  0.0010000  0  9G 2G 3G15G17G18G21G22G 6G26
  24768800.8254     843753.11544    632744.29745                  24768809.3604
         6.2504          8.2504
  22791688.2244    -938984.87146   -712154.51746                  22791694.1534
        18.2504         17.5004
  20672857.3414     564663.77048    412416.73547                  20672863.3174
        31.5004         29.5004
  21091804.2164     796220.90147    610155.37547                  21091810.6614
        26.2504         27.5004
  20618406.2084     485651.21047    371861.91747                  20618411.0014
        23.2504         26.7504
  21906937.6924    -411351.14947   -311147.26246                  21906944.4784
        25.5004         24.5004
  24617384.6304    1626441.18045   1218134.28245                  24617393.4114
         9.2504         10.0004
  23649632.1304    2238186.65445   1495919.78445                  23649639.9274
        10.2504          7.2504
  23442853.4504     612409.33543    132212.44645                  23442861.4234
         5.7504          6.2504
 02  8  6 15 41 15.0010000  0  9G 2G 3G15G17G18G21G22G 6G26
  24773724.7714     869618.88044    652899.39645                  24773733.3644
         6.7504          8.5004
  22787173.3174    -962709.24246   -730641.04346                  22787179.6464
        17.7504         17.2504
  20676266.4424     582577.67048    426375.60247                  20676272.5134
        32.0004         29.5004
  21096385.5054     820297.40047    628916.25847                  21096392.2784
        25.2504         27.5004
  20621458.0134     501686.50247    384356.94147                  20621462.5484
        23.2504         26.5004
  21905139.2944    -420802.52047   -318511.96546                  21905145.5284
        26.2504         24.5004
  24626321.9504    1673410.88945   1254734.02345                  24626331.4704
         9.0004         10.2504
  23662045.0914    2303421.98745   1546752.41945                  23662050.8804
         9.0004          5.7504
  23452795.0444     664654.60443    172922.85544                  23452803.4034
         5.5004          4.2504
 02  8  6 15 41 30.0010000  0  9G 2G 3G15G17G18G21G22G 6G26
  24778668.2164     895604.20844    673147.60445                  24778673.4194
         6.2504          7.5004
  22782683.3414    -986306.45646   -749028.48546                  22782689.5524
        18.2504         17.2504
  20679695.3334     600596.57948    440416.29247                  20679701.2394
        32.2504         29.5004
  21100985.3024     844471.73347    647753.38347                  21100992.0284
        24.5004         27.5004
  20624533.2474     517849.68847    396951.61347                  20624538.0404
        22.7504         26.2504
  21903360.3334    -430152.88448   -325797.95346                  21903366.4624
        28.0004         25.2504
  24635276.1064    1720461.59945   1291396.86245                  24635286.1654
         9.2504         10.5004
  23674473.2394    2368732.26545   1597643.47845                  23674477.7744
         8.2504          6.2504
  23462763.8104     717042.85843    213744.86645                  23462770.8804
         5.0004          4.5004
 02  8  6 15 41 45.0010000  0  9G 2G 3G15G17G18G21G22G 6G26
  24783637.7084     921707.30545    693487.71145                  24783644.5794
         7.7504          7.2504
  22778216.4664   -1009777.74446   -767317.80046                  22778223.0524
        17.7504         17.0004
  20683143.9894     618718.92948    454537.58447                  20683149.9664
        32.0004         29.5004
  21105604.2394     868742.42347    666665.58247                  21105611.0364
        25.2504         27.5004
  20627633.4424     534138.93947    409644.52447                  20627638.3064
        23.0004         26.5004
  21901600.0364    -439404.05247   -333006.64546                  21901606.0244
        27.7504         25.5004
  24644245.2394    1767591.19545   1328121.22145                  24644254.4894
         9.7504         10.0004
  23686915.2084    2434115.62945   1648591.39545                  23686922.4894
         8.2504          6.0004
  23472763.9114     769572.19144    254676.79943                  23472763.5834
         6.5004          2.5004
 02  8  6 15 42  0.0010000  0  9G 2G 3G15G17G18G21G22G 6G26
  24788626.1614     947924.29945    713916.47045                  24788633.6534
         7.7504          8.0004
  22773774.0674   -1033126.34446   -785511.50946                  22773780.5134
        19.2504         17.5004
  20686611.6224     636941.16648    468736.71447                  20686617.5284
        31.7504         29.7504
  21110240.7314     893105.90947    685650.08747                  21110247.2944
        26.0004         27.7504
  20630756.0674     550550.64647    422432.85247                  20630761.1184
        22.5004         26.2504
  21899857.5284    -448559.41547   -340140.71046                  21899863.6344
        27.0004         25.5004
  24653227.9974    1814795.92945   1364904.06245                  24653236.5324
         8.7504          9.2504
  23699370.1064    2499568.20145   1699593.38145                  23699380.3994
         7.7504          5.2504
  23482782.2634     822238.64543
         5.5004
 02  8  6 15 42 15.0010000  0  9G 2G 3G15G17G18G21G22G 6G26
  24793638.7004     974257.47545    734435.76345                  24793647.2124
         9.0004          8.0004
  22769355.3494   -1056349.56447   -803607.52846                  22769362.0874
        20.0004         18.0004
  20690098.3494     655265.80748    483015.63847                  20690104.3254
        30.7504         29.5004
  21114895.1384     917564.69747    704708.86347                  21114901.5954
        26.0004         27.7504
  20633902.9584     567087.18047    435318.44747                  20633907.9854
        22.7504         26.2504
  21898134.0284    -457616.53847   -347198.20347                  21898140.5094
        26.5004         25.7504
  24662225.1774    1862077.86145   1401747.06145                  24662233.8884
         8.0004          9.2504
  23711837.8414    2565092.13645   1750650.79145                  23711848.5564
         7.5004          5.2504
  23492831.4814     875044.32343
         5.2504
 02  8  6 15 42 30.0010000  0  9G 2G 3G15G17G18G21G22G 6G26
  24798671.3174    1000704.69545    755043.96345                  24798677.6814
         9.0004          9.2504
  22764959.6614   -1079448.98447   -821607.06746                  22764966.5564
        20.2504         18.5004
  20693604.2554     673690.97548    497372.89747                  20693610.4194
        30.2504         29.5004
  21119566.8804     942117.00947    723840.51047                  21119573.4784
        25.2504         27.7504
  20637072.7864     583746.47447    448299.69647                  20637077.9544
        22.5004         26.2504
  21896428.4504    -466577.56547   -354180.81846                  21896434.9664
        25.2504         25.2504
  24671237.0914    1909434.61645   1438648.36945                  24671245.1924
         7.7504          8.5004
  23724321.8644    2630685.27445   1801762.23645                  23724330.8104
         8.0004          5.7504
  23502905.3254     927986.98942
         4.5004
 02  8  6 15 42 45.0010000  0 10G 2G 3G14G15G17G18G21G22G 6G26
  24803724.2244    1027262.93045    775738.65845                  24803732.3964
         8.2504          8.2504
  22760587.4504   -1102427.09147   -839512.08246                  22760594.0134
        20.5004         18.2504
  24904801.4504     -23991.97251
         2.7504
  20697128.9744     692213.95548    511806.37247                  20697135.1964
        29.7504         29.2504
  21124256.5444     966760.20047    743042.97047                  21124263.3174
        25.2504         27.7504
  20640266.1144     600525.56147    461374.30147                  20640271.2944
        23.2504         26.2504
  21894740.6854    -475445.13147   -361090.60446                  21894747.1304
        24.2504         25.0004
  24680262.6854    1956863.13745   1475605.62245                  24680268.7554
         8.2504          8.2504
  23736816.4034    2696344.62245   1852925.26645                  23736826.1344
         7.5004          5.7504
  23513004.8494     981063.55642
         4.0004
 02  8  6 15 43  0.0010000  0 10G 2G 3G14G15G17G18G21G22G 6G26
  24808799.9274    1053937.05045    796523.63145                  24808808.0174
         9.2504          8.0004
  22756238.4424   -1125278.58047   -857318.42346                  22756244.9464
        20.0004         18.2504
  24896242.8564     -68960.47241
         3.0004
  20700673.4664     710839.99848    526320.15247                  20700679.8764
        29.0004         29.0004
  21128964.2714     991499.26447    762320.13647                  21128971.1144
        25.0004         27.5004
  20643483.4194     617429.38747    474546.09347                  20643487.9074
        23.7504         26.5004
  21893071.9744    -484214.16847   -367923.62046                  21893078.2434
        24.0004         24.5004
  24689303.3174    2004368.12345   1512622.45945                  24689310.6344
         8.5004          8.5004
  23749324.9274    2762074.88645   1904143.52545                  23749334.6694
         7.7504          6.2504
  23523130.8334    1034278.71942
         3.7504
 02  8  6 15 43 15.0010000  0 10G 2G 3G14G15G17G18G21G22G 6G26
  24813899.0134    1080726.39345    817398.49745                  24813908.0634
         9.2504          7.7504
  22751913.6464   -1148003.58746   -875026.21346                  22751920.1034
        19.7504         18.5004
  24887688.5054    -113900.96241
         3.0004
  20704237.5054     729568.67248    540913.91047                  20704243.9974
        29.0004         28.7504
  21133689.9664    1016333.88447    781671.76247                  21133697.0014
        24.7504         27.2504
  20646723.2244     634457.39147    487814.65247                  20646727.4074
        23.2504         26.5004
  21891422.2394    -492885.17847   -374680.25846                  21891428.5214
        24.7504         24.5004
  24698357.0214    2051948.78245   1549698.22945                  24698364.1854
         8.2504          8.0004
  23761846.4894    2827875.35044   1955416.49745                  23761857.0634
         7.0004          5.7504
  23533284.7634    1087631.75542
         3.7504
 02  8  6 15 43 30.0010000  0 11G 2G 3G14G15G17G18G21G22G23G 6G26
  24819017.7864    1107628.30945    838361.02245                  24819024.8804
         8.7504          7.7504
  22747612.5214   -1170604.15046   -892637.04146                  22747619.3414
        18.5004         18.0004
  24879141.5994    -158815.48041
         2.7504
  20707820.4354     748397.74348    555585.89547                  20707826.7514
        28.5004         28.5004
  21138433.2554    1041261.76847    801096.05147                  21138440.4194
        24.2504         27.2504
  20649986.8024     651607.09847    501178.04447                  20649991.3374
        22.7504         26.0004
  21889790.7004    -501460.60147   -381362.40146                  21889797.2044
        25.5004         25.0004
  24707426.0214    2099602.30245   1586830.82345                  24707434.3454
         8.5004          8.2504
  24408301.4034      40494.35351
         2.7504
  23774379.6464    2893743.34344   2006742.04245                  23774386.3134
         6.2504          4.7504
  23543463.3564    1141119.90742
         3.7504
 02  8  6 15 43 45.0010000  0 11G 2G 3G14G15G17G18G21G22G23G 6G26
  24824160.3024    1134648.02545    859415.39145                  24824168.1104
         9.0004          8.0004
  22743336.7084   -1193074.56546   -910146.45046                  22743343.3534
        18.7504         18.2504
  24870601.5994    -203698.32741
         2.7504
  20711423.4814     767332.66648    570340.36547                  20711429.6574
        28.2504         28.2504
  21143195.7554    1066288.42147    820597.30647                  21143202.8374
        23.7504         27.2504
  20653273.7714     668883.67947    514640.29146                  20653278.7634
        21.2504         25.2504
  21888177.7554    -509934.81247   -387965.67746                  21888184.4464
        25.7504         25.5004
  24716507.3024    2147333.81545   1624024.11245                  24716517.8994
         7.7504          8.2504
  24418815.0444      95746.84441
         3.0004
  23786929.2314    2959684.00743   2058124.46444                  23786933.8254
         6.0004          4.0004
  23553666.8644    1194748.26041
         2.7504
 02  8  6 15 44  0.0010000  0  9G 2G 3G14G15G17G18G21G22G 6
  24829323.3494    1161783.52745    880559.87945                  24829332.2714
         9.2504          8.7504
  22739086.0524   -1215416.33947   -927555.63046                  22739092.2864
        20.0004         17.7504
  24862068.3884    -248550.83041
         2.5004
  20715046.4744     786371.74948    585175.99347                  20715052.6854
        28.2504         27.7504
  21147976.7314    1091412.12447    840174.20247                  21147983.8024
        24.2504         27.2504
  20656584.8884     686285.32747    528199.99446                  20656590.5244
        20.2504         25.0004
  21886584.0994    -518309.56247   -394491.45947                  21886591.4034
        25.5004         26.0004
  24725604.4424    2195141.14445   1661276.56645                  24725613.6694
         7.7504          7.7504
  23799492.6224    3025695.34943   2109561.58645                  23799495.3994
         5.7504          4.5004
 02  8  6 15 44 15.0010000  0  8G 2G 3G15G17G18G21G22G 6
  24834509.6304    1189034.18345    901794.12245                  24834518.7864
         9.0004          8.5004
  22734858.3494   -1237629.67146   -944864.71646                  22734864.2314
        19.0004         17.5004
  20718689.3414     805514.56848    600092.45847                  20718695.4234
        28.0004         28.0004
  21152775.9034    1116632.44747    859826.37347                  21152782.8684
        23.7504         26.7504
  20659919.8564     703811.37047    541856.63346                  20659925.8214
        20.2504         25.2504
  21885009.3724    -526585.39847   -400940.15847                  21885016.5834
        26.2504         26.5004
  24734717.1534    2243023.56145   1698587.54045                  24734724.1884
         8.0004          7.2504
  23812064.4354    3091776.55643   2161053.33843                  23812068.1264
         5.5004          3.0004
 02  8  6 15 44 30.0010000  0  8G 2G 3G15G17G18G21G22G 6
  24839717.4274    1216398.27745    923116.72745                  24839726.9354
         8.7504          9.2504
  22730655.6384   -1259715.61446   -962074.54846                  22730661.6854
        19.0004         17.5004
  20722351.3964     824759.67448    615088.62647                  20722357.5714
        28.2504         28.0004
  21157593.3644    1141948.03647    879552.77747                  21157600.3064
        23.5004         26.2504
  20663279.2084     721460.32947    555609.05347                  20663285.1034
        22.0004         26.2504
  21883452.8024    -534764.06647   -407313.14547                  21883460.3994
        26.5004         26.5004
  24743843.5524    2290979.12545   1735955.43045                  24743852.2634
         8.7504          8.0004
  23824652.5214    3157925.85443
         5.7504
 02  8  6 15 44 45.0010000  0  9G 2G 3G15G17G18G21G22G 6G26
  24844945.2554    1243877.87645    944529.34445                  24844955.8994
         7.7504          8.7504
  22726477.1614   -1281671.55446   -979183.06846                  22726483.1964
        18.5004         17.7504
  20726033.6774     844109.50548    630166.39647                  20726039.9934
        28.0004         28.2504
  21162429.1774    1167361.23347    899355.24347                  21162435.5404
        24.0004         26.0004
  20666661.9814     739234.28847    569458.88447                  20666667.3964
        23.2504         26.7504
  21881915.4504    -542843.17347   -413608.55247                  21881923.0134
        26.0004         26.5004
  24752982.2394    2339009.81745   1773381.90045                  24752992.0054
         7.5004          8.0004
  23837254.0604    3224145.31543
         5.2504
  23594752.0524      50565.13642
         3.7504
 02  8  6 15 45  0.0010000  0  9G 2G 3G15G17G18G21G22G 6G26
  24850197.4274    1271470.30745    966029.91845                  24850206.6424
         8.2504          8.7504
  22722323.7944   -1303499.66146   -996191.97546                  22722330.2514
        18.5004         17.7504
  20729735.4274     863561.71048    645323.94547                  20729741.8964
        28.5004         28.5004
  21167283.2784    1192869.78647    919232.01147                  21167289.5604
        24.5004         26.0004
  20670067.3724     757130.57647    583404.03747                  20670072.3534
        23.5004         27.0004
  21880396.0754    -550825.16747   -419828.28247                  21880403.2514
        25.2504         26.0004
  24762135.5994    2387112.85244   1810864.76845                  24762146.4314
         6.7504          6.7504
  23849866.9034    3290432.21742
         4.5004
  23605087.5914     104876.33042
         4.0004
 02  8  6 15 45 15.0010000  0  9G 2G 3G15G17G18G21G22G 6G26
  24855467.3804    1299174.70044    987617.67945                  24855475.6224
         6.7504          8.7504
  22718193.9814   -1325200.28146  -1013101.54446                  22718200.2394
        18.5004         17.7504
  20733456.0604     883115.67247    660560.78147                  20733462.4934
        27.7504         28.7504
  21172155.7864    1218473.01547    939182.55547                  21172162.3024
        25.5004         26.2504
  20673495.6534     775148.54147    597443.99647                  20673500.9384
        22.2504         26.2504
  21878895.9354    -558710.58847   -425972.75746                  21878902.7084
        26.5004         25.5004
  24771303.9194    2435287.30645   1848403.25745                  24771314.1304
         8.2504          7.7504
  23862493.1774    3356785.65442
         4.5004
  23615445.7004     159321.27042
         3.7504
 02  8  6 15 45 30.0010000  0  9G 2G 3G15G17G18G21G22G 6G26
  24860761.7864    1326994.48545   1009295.38145                  24860772.9464
         7.5004          8.5004
  22714089.5444   -1346769.56346  -1029908.77146                  22714095.6144
        18.2504         17.7504
  20737197.3254     902775.02748    675879.74447                  20737203.8174
        28.7504         29.2504
  21177047.1464    1244174.66547    959209.78147                  21177053.5214
        26.7504         26.5004
  20676948.0604     793291.68547    611581.49647                  20676953.6144
        21.7504         25.7504
  21877414.8254    -566495.94747   -432039.27046                  21877421.2124
        27.0004         25.5004
  24780486.4034    2483536.38745   1885999.89245                  24780495.9234
         9.0004          8.0004
  23875132.5524    3423208.96942
         4.0004
  23625834.5284     213903.17542
         3.7504
 02  8  6 15 45 45.0010000  0  8G 2G 3G15G17G18G21G22G 6
  24866075.1614    1354926.58444   1031060.66145                  24866088.2084
         6.5004          8.5004
  22710009.1694   -1368209.91446  -1046615.53346                  22710015.0524
        18.2504         17.5004
  20740958.3494     922537.16548    691278.79347                  20740964.8414
        30.0004         29.7504
  21181956.5834    1269972.05548    979311.62347                  21181962.9814
        28.0004         27.0004
  20680423.8724     811557.03647    625814.21947                  20680429.3454
        22.0004         25.7504
  21875951.8724    -574184.06647   -438030.01446                  21875958.3994
        27.0004         25.2504
  24789682.4114    2531856.98345   1923652.24745                  24789691.2864
         9.0004          8.2504
  23887784.3334    3489699.14742
         4.0004
 02  8  6 15 46  0.0010000  0  8G 2G 3G15G17G18G21G22G 6
  24871412.8254    1382971.26644   1052913.60445                  24871425.1814
         7.2504          9.0004
  22705953.9194   -1389520.60146  -1063221.24746                  22705959.9894
        18.2504         17.7504
  20744738.7164     942402.62448    706758.35047                  20744745.0444
        30.5004         30.0004
  21186883.9664    1295865.69748    999488.45547                  21186890.3414
        28.2504         27.5004
  20683923.3644     829944.94847    640142.44547                  20683928.6494
        22.7504         26.2504
  21874507.5674    -581774.51147   -443944.66046                  21874514.2124
        27.2504         25.2504
  24798889.9114    2580249.16745   1961360.40045                  24798899.8764
         9.0004          9.0004
  23900450.0604    3556256.32342
         4.2504
 02  8  6 15 46 15.0010000  0  8G 2G 3G15G17G18G21G22G 6
  24876770.9664    1411130.02344   1074855.43645                  24876783.4744
         7.2504          9.0004
  22701923.7864   -1410699.57946  -1079724.35446                  22701930.1264
        18.7504         18.2504
  20748539.2084     962373.21448    722319.83547                  20748545.6064
        31.2504         30.0004
  21191829.8334    1321857.39147   1019741.70047                  21191836.2314
        27.7504         27.7504
  20687446.2474     848456.96647    654567.38447                  20687451.2284
        23.2504         26.7504
  21873082.6304    -589265.55848   -449781.84346                  21873088.6424
        28.5004         25.0004
  24808112.5994    2628714.25345   1999125.37145                  24808120.9464
         9.0004          9.5004
  23913130.7394    3622881.84543
         5.0004
 02  8  6 15 46 30.0010000  0  8G 2G 3G15G17G18G21G22G 6
  24882152.2714    1439404.29844   1096887.29345                  24882163.6304
         7.0004          8.5004
  22697919.4114   -1431744.98746  -1096123.37646                  22697925.7284
        19.5004         18.7504
  20752359.7394     982450.59248    737964.52747                  20752366.2554
        31.2504         30.5004
  21196794.9584    1347948.85747   1040072.68847                  21196801.5564
        27.7504         28.0004
  20690992.8644     867094.68047    669090.25547                  20690997.8334
        22.7504         26.7504
  21871676.1064    -596655.49448   -455540.22346                  21871681.7554
        28.2504         25.2504
  24817349.3964    2677253.65545   2036948.23545                  24817357.7434
         9.2504          9.2504
  23925821.7394    3689577.19043
         5.5004
 02  8  6 15 46 45.0010000  0  9G 2G 3G15G17G18G21G22G 6G26
  24887555.4894    1467791.15745   1119006.89345                  24887565.9934
         7.5004          8.2504
  22693939.6614   -1452659.14447  -1112420.10846                  22693946.4704
        20.2504         19.2504
  20756200.2394    1002632.16348    753690.40747                  20756206.5674
        31.2504         30.0004
  21201778.5994    1374137.49247   1060479.38847                  21201785.0794
        27.7504         28.0004
  20694562.7084     885855.35747    683708.95247                  20694567.8764
        22.5004         26.7504
  21870287.9974    -603947.03147   -461221.93046                  21870294.1264
        27.0004         24.7504
  24826600.5754    2725864.31845   2074826.59945                  24826608.8884
         9.2504          9.0004
  23938526.8564    3756339.40443
         5.7504
  23678153.3644      29481.69651
         3.5004
 02  8  6 15 47  0.0010000  0  9G 2G 3G15G17G18G21G22G 6G26
  24892976.8334    1496287.18444   1141211.52645                  24892988.0754
         6.7504          9.0004
  22689984.4194   -1473445.05247  -1128616.92346                  22689991.1344
        20.7504         19.5004
  20760059.7864    1022914.74948    769495.00647                  20760066.0214
        31.2504         30.0004
  21206779.7314    1400420.20947   1080959.39847                  21206786.2354
        26.7504         27.7504
  20698154.9744     904735.47747    698420.71547                  20698160.4584
        21.5004         26.0004
  21868918.4974    -611143.59647   -466829.63546                  21868924.8494
        27.0004         25.0004
  24835863.5834    2774542.60145   2112757.67445                  24835871.4744
         9.2504          9.7504
  23951244.1614    3823164.92943
         6.0004
  23688694.2314      84867.04741
         3.2504
 02  8  6 15 47 15.0010000  0 11G 2G 3G14G15G17G18G21G22G23G 6G26
  24898420.0054    1524893.47844   1163502.12645                  24898433.3454
         6.2504          8.7504
  22686053.5134   -1494101.06147  -1144712.51946                  22686060.5954
        20.2504         19.5004
  24751647.1774      -5920.89251
         2.2504
  20763939.0994    1043299.81548    785379.45747                  20763945.3104
        31.2504         30.0004
  21211799.1774    1426798.35047   1101513.76947                  21211805.8564
        26.2504         27.5004
  20701771.1854     923736.21047    713226.46247                  20701776.8214
        21.7504         26.0004
  21867567.7554    -618243.49347   -472362.01946                  21867574.0134
        27.2504         25.2504
  24845139.5914    2823289.49845   2150742.21145                  24845146.5444
         9.0004          8.5004
  24566578.8174       7416.11251
         2.7504
  23963972.6224    3890054.92644
         6.2504
  23699258.5364       7405.49651
         2.7504
 02  8  6 15 47 30.0010000  0  9G 2G 3G14G15G17G18G21G22G 6
  24903885.0524    1553612.51344   1185880.55645                  24903896.2824
         6.7504          8.0004
  22682147.7164   -1514624.19446  -1160704.58546                  22682155.1614
        19.2504         19.2504
  24743195.2944     -50327.75641
         2.5004
  20767838.2474    1063790.14148    801345.92547                  20767844.2944
        30.7504         30.0004
  21216837.2554    1453274.82447   1122144.75647                  21216844.0404
        25.2504         27.5004
  20705410.3414     942860.17547    728128.23147                  20705415.6964
        22.2504         26.2504
  21866235.6384    -625244.34147   -477817.21746                  21866242.1064
        27.5004         25.2504
  24854428.3964    2872107.42745   2188782.11845                  24854437.9974
         8.0004          8.5004
  23976713.5134    3957011.71044     45216.23455                  23976720.4314
         6.5004          5.2504
 02  8  6 15 47 45.0010000  0 10G 2G 3G14G15G17G18G21G22G23G 6
  24909373.0604    1582443.39445   1208346.15645                  24909380.5284
         9.0004          8.2504
  22678267.7084   -1535014.71846  -1176593.30846                  22678274.9424
        19.5004         19.2504
  24734751.5914     -94699.79341
         2.2504
  20771757.3334    1084385.08548    817393.91947                  20771763.3684
        30.7504         29.7504
  21221894.0364    1479848.85947   1142851.77847                  21221901.0244
        25.0004         27.2504
  20709072.9274     962106.62147    743125.44847                  20709078.1774
        22.2504         26.2504
  21864921.3964    -632146.69947   -483195.68646                  21864928.2394
        25.5004         25.0004
  24863732.1464    2920995.36345   2226876.57645                  24863740.9744
         8.0004          8.5004
  24587774.8174      29704.11852
         3.7504
  23989468.6614    4024034.41844     97441.57045                  23989480.9704
         6.5004          5.0004
 02  8  6 15 48  0.0010000  0  9G 2G 3G15G17G18G21G22G23G 6
  24914880.7394    1611385.01245   1230898.00345                  24914887.1854
         9.5004          8.2504
  22674413.4274   -1555273.25447  -1192379.19346                  22674420.4034
        20.5004         19.2504
  20775696.2554    1105083.96248    833522.89647                  20775702.2314
        30.2504         29.2504
  21226969.4584    1506519.75247   1163634.27747                  21226976.4704
        25.0004         27.0004
  20712758.7314     981474.59647    758217.37047                  20712763.8174
        23.2504         26.5004
  21863626.5834    -638951.59547   -488498.19446                  21863633.6184
        25.2504         25.2504
  24873047.6384    2969952.09044   2265024.63245                  24873055.6924
         7.0004          7.7504
  24598376.2164      85426.76741
         3.5004
  24002234.2314    4091121.92543    149717.49545                  24002243.5634
         6.0004          5.7504
 02  8  6 15 48 15.0010000  0  9G 2G 3G15G17G18G21G22G23G 6
  24920409.9584    1640440.38445   1253538.58845                  24920414.4584
         9.7504          7.7504
  22670584.0364   -1575396.15847  -1208059.37646                  22670590.9074
        21.0004         19.2504
  20779655.4424    1125890.07148    849735.44547                  20779661.3724
        30.0004         29.0004
  21232064.1774    1533290.85947   1184494.86047                  21232071.2004
        25.2504         26.5004
  20716468.1304    1000967.09947    773406.32447                  20716473.0754
        23.0004         26.5004
  21862351.1224    -645655.71647   -493722.18746                  21862357.6734
        26.2504         25.2504
  24882376.9114    3018980.44244   2303228.48645                  24882384.0754
         6.2504          7.0004
  24608985.8024     141178.71241
         3.2504
  24015015.8964    4158277.21344    202046.11845                  24015024.2674
         6.7504          6.0004
 02  8  6 15 48 30.0010000  0  9G 2G 3G15G17G18G21G22G23G 6
  24925958.7004    1669605.95545   1276265.00945                  24925966.1574
         9.0004          8.2504
  22666779.7314   -1595386.59447  -1223636.33146                  22666786.3064
        20.7504         19.2504
  20783634.4744    1146800.10148    866028.96247                  20783640.4504
        30.0004         28.7504
  21237176.7084    1560158.89447   1205430.96347                  21237183.4704
        24.7504         26.2504
  20720200.3724    1020580.67847    788689.61347                  20720205.1774
        22.7504         26.2504
  21861094.1614    -652262.40247   -498870.24146                  21861100.1964
        27.7504         25.2504
  24891715.7314    3068076.86942   2341485.41145                  24891721.7554
         4.0004          5.5004
  24619602.8414     196956.41442
         4.0004
  24027807.2634    4225496.58245    254424.74145                  24027812.4664
         7.5004          5.2504
 02  8  6 15 48 45.0010000  0  9G 2G 3G15G17G18G21G22G23G 6
  24931530.0914    1698882.64245   1299077.99445                  24931537.0794
         9.0004          7.5004
  22663000.8174   -1615243.23247  -1239109.03546                  22663007.8644
        20.0004         19.2504
  20787633.6064    1167815.19648    882404.35447                  20787639.5244
        30.2504         28.7504
  21242308.1464    1587125.09447   1226443.57047                  21242314.7784
        24.0004         25.7504
  20723955.6614    1040316.30647    804068.00747                  20723960.6184
        22.5004         26.2504
  21859855.6614    -658770.69547   -503941.63747                  21859861.7434
        27.5004         26.0004
  24901068.9194    3117241.99041   2379795.89745                  24901079.2474
         3.2504          5.5004
  24630219.5674     252760.81341
         3.2504
  24040611.1534    4292780.87845    306853.87645                  24040620.3804
         7.7504          5.7504
 02  8  6 15 49  0.0010000  0  9G 2G 3G15G17G18G21G22G23G 6
  24937122.5444    1728271.69745   1321978.49445                  24937127.5954
         9.0004          8.0004
  22659247.6304   -1634964.12746  -1254475.96546                  22659254.2744
        19.2504         19.0004
  20791653.3644    1188936.96248    898862.86147                  20791659.3294
        31.0004         28.5004
  21247458.3884    1614191.04847   1247533.90446                  21247464.9274
        23.2504         25.5004
  20727734.8254    1060175.38547    819542.59847                  20727739.8884
        22.5004         26.0004
  21858635.6924    -665179.14047   -508935.21547                  21858642.2084
        26.5004         26.0004
  24910440.0134    3166476.91242   2418160.83445                  24910449.1104
         3.7504          5.5004
  24640844.0834     308593.37241
         2.7504
  24053428.6384    4360131.33045    359334.67945                  24053437.7004
         8.2504          5.7504
 02  8  6 15 49 15.0010000  0  9G 2G 3G15G17G18G21G22G23G 6
  24942735.2474    1757771.29245   1344965.15845                  24942741.3064
         7.7504          8.0004
  22655520.3174   -1654550.62346  -1269738.17546                  22655526.4464
        19.5004         18.5004
  20795692.5604    1210163.86548    915403.28847                  20795698.4664
        30.7504         28.5004
  21252627.5054    1641355.23747   1268700.78446                  21252634.2434
        23.0004         25.2504
  20731537.2164    1080156.26347    835112.09947                  20731542.1384
        23.0004         26.0004
  21857434.6534    -671489.11747   -513852.07647                  21857441.8534
        25.2504         26.0004
  24919824.2244    3215779.89143   2456578.53645                  24919835.5014
         5.0004          6.2504
  24651474.9114     364452.39641
         2.5004
  24066255.4974    4427546.06645    411865.46545                  24066266.5404
         8.0004          6.2504
 02  8  6 15 49 30.0010000  0  9G 2G 3G14G15G17G18G21G22G 6
  24948370.7784    1787381.69345   1368038.14845                  24948378.3644
         8.0004          7.7504
  22651818.8964   -1674001.86146  -1284894.99146                  22651825.0364
        19.5004         18.5004
  24675842.3334     -32344.62342
         3.7504
  20799751.6924    1231496.45848    932026.07647                  20799757.7514
        30.5004         28.2504
  21257815.3724    1668618.13447   1289944.58146                  21257822.0404
        23.2504         25.2504
  20735362.8884    1100259.17947    850776.69947                  20735367.4354
        23.2504         26.0004
  21856252.6614    -677700.12447   -518691.82947                  21856260.0484
        24.7504         26.0004
  24929222.4974    3265151.00044   2495049.51545                  24929233.2004
         7.2504          7.0004
  24079095.7784    4495025.27445    464446.53345                  24079110.9234
         7.7504          6.5004
 02  8  6 15 49 45.0010000  0  9G 2G 3G14G15G17G18G21G22G 6
  24954026.2394    1817101.37445   1391196.31845                  24954035.5714
         7.5004          7.7504
  22648143.1144   -1693318.83946  -1299947.18846                  22648149.3494
        19.7504         18.7504
  24667453.0834     -76422.83541
         3.2504
  20803831.1614    1252933.56748    948730.30447                  20803837.1734
        30.7504         28.2504
  21263022.5524    1695978.51547   1311264.34146                  21263029.2084
        24.2504         25.5004
  20739211.2004    1120482.76347    866535.32547                  20739216.0054
        23.2504         26.2504
  21855089.4584    -683813.58147   -523455.56247                  21855096.6924
        24.7504         25.7504
  24938629.6224    3314588.49145   2533572.18345                  24938639.9384
         7.7504          7.0004
  24091948.5524    4562567.36544    517076.65645                  24091957.9074
         7.0004          6.0004
 02  8  6 15 50  0.0010000  0  9G 2G 3G14G15G17G18G21G22G 6
  24959703.0214    1846932.95744   1414441.67745                  24959709.7244
         7.2504          7.5004
  22644493.5524   -1712498.43346  -1314892.32846                  22644500.2674
        19.7504         19.0004
  24659072.1464    -120460.79541
         2.5004
  20807930.6144    1274478.19648    965518.31147                  20807936.5564
        29.7504         28.0004
  21268248.3564    1723439.44047   1332662.43547                  21268254.9194
        24.7504         25.7504
  20743082.8414    1140829.80747    882390.15647                  20743087.7984
        22.5004         26.0004
  21853945.1774    -689826.61247   -528141.03647                  21853952.4354
        25.0004         25.7504
  24948049.8174    3364094.95845   2572148.59945                  24948058.4814
         8.0004          7.7504
  24104814.2864    4630174.99945    569757.81345                  24104828.0484
         7.5004          6.0004
 02  8  6 15 50 15.0010000  0  8G 2G 3G15G17G18G21G22G 6
  24965401.7084    1876873.52545   1437771.94245                  24965410.3254
         7.7504          7.5004
  22640869.3494   -1731543.02246  -1329732.26446                  22640876.2204
        19.7504         19.2504
  20812050.3964    1296127.78948    982388.10647                  20812056.4664
        29.5004         28.2504
  21273492.3804    1750998.31847   1354136.86346                  21273498.9424
        24.5004         25.5004
  20746977.5604    1161297.46147    898338.95547                  20746982.8924
        22.0004         26.2504
  21852819.8644    -695741.90547   -532750.33747                  21852827.2744
        25.7504         25.7504
  24957485.2314    3413667.41245   2610776.45945                  24957491.8174
         8.2504          8.0004
  24117691.9354    4697845.29345    622487.80245                  24117701.3964
         7.7504          6.0004
 02  8  6 15 50 30.0010000  0  8G 2G 3G15G17G18G21G22G 6
  24971120.2394    1906921.96745   1461186.24245                  24971128.8454
         8.2504          8.0004
  22637271.3174   -1750453.34647  -1344467.56946                  22637279.1494
        20.2504         19.7504
  20816190.1064    1317881.40048    999338.96447                  20816196.2594
        29.5004         28.2504
  21278755.0834    1778654.29947   1375686.96146                  21278761.8104
        24.0004         25.2504
  20750895.4114    1181884.59347    914380.86447                  20750901.0834
        22.7504         26.7504
  21851713.0674    -701560.32447   -537284.16547                  21851720.1614
        27.0004         26.2504
  24966930.6694    3463304.66045   2649454.76545                  24966937.4074
         8.5004          7.7504
  24130581.6464    4765577.05645    675265.65445                  24130590.8494
         8.0004          5.7504
 02  8  6 15 50 45.0010000  0  8G 2G 3G15G17G18G21G22G 6
  24976860.1064    1937078.76745   1484685.02245                  24976868.6534
         9.7504          9.0004
  22633697.6384   -1769228.22646  -1359097.35646                  22633705.5994
        18.7504         20.0004
  20820349.6694    1339739.85848   1016371.50847                  20820355.8104
        29.0004         28.2504
  21284036.7084    1806408.25347   1397313.39446                  21284043.7084
        23.7504         25.5004
  20754835.8884    1202591.92347    930516.42447                  20754841.6424
        23.0004         27.2504
  21850624.3494    -707281.22147   -541742.00947                  21850631.4314
        27.0004         26.2504
  24976388.7474    3513007.02745   2688183.83145                  24976395.8534
         8.7504          7.7504
  24143481.4504    4833370.63544    728091.62245                  24143488.9784
         7.2504          5.2504
 02  8  6 15 51  0.0010000  0  8G 2G 3G15G17G18G21G22G 6
  24982620.4274    1967343.87745   1508268.15645                  24982630.6144
        10.7504          9.5004
  22630150.8414   -1787867.20146  -1373621.23646                  22630158.6494
        19.0004         20.2504
  20824528.8964    1361703.52248   1033486.03947                  20824535.3294
        29.0004         28.5004
  21289336.3564    1834260.43647   1419016.37247                  21289343.5914
        23.5004         25.7504
  20758799.2784    1223419.52747    946745.71447                  20758805.0094
        23.2504         27.5004
  21849554.0524    -712904.30747   -546123.64747                  21849560.9464
        26.7504         26.2504
  24985859.1854    3562774.36545   2726963.49245                  24985866.7594
         8.5004          7.7504
  24156394.5524    4901226.09844    780965.97445                  24156403.4974
         7.0004          6.0004
 02  8  6 15 51 15.0010000  0  8G 2G 3G15G17G18G21G22G 6
  24988400.8104    1997717.74945   1531936.07745                  24988409.2164
        10.7504          8.7504
  22626630.8174   -1806369.21647  -1388038.38546                  22626638.3454
        20.5004         20.2504
  20828728.9974    1383773.08648   1050683.09247                  20828735.4074
        30.2504         29.0004
  21294655.7164    1862211.51647   1440796.41447                  21294663.1034
        24.2504         25.7504
  20762785.3104    1244367.91047    963069.11947                  20762790.7124
        22.5004         26.7504
  21848502.9584    -718429.02247   -550428.61647                  21848509.4974
        26.7504         26.2504
  24995341.3334    3612606.94845   2765794.01345                  24995348.9664
         7.5004          8.0004
  24169318.5994    4969143.81544    833888.68245                  24169325.8454
         6.7504          5.7504
 02  8  6 15 51 30.0010000  0  9G 2G 3G15G17G18G21G22G 6G26
  24994200.2554    2028200.05845   1555688.53545                  24994208.6734
        10.0004          8.7504
  22623136.6694   -1824734.22647  -1402348.79646                  22623143.8214
        22.0004         20.5004
  20832948.7944    1405948.49548   1067962.61047                  20832955.1814
        30.5004         29.0004
  21299993.7314    1890261.55047   1462653.56347                  21300000.8964
        24.2504         25.7504
  20766794.6854    1265436.92947    979486.52847                  20766800.0634
        22.5004         26.2504
  21847470.3024    -723855.46047   -554657.00447                  21847476.5954
        26.7504         25.7504
  25004835.6534    3662504.37644   2804675.05445                  25004844.9274
         6.5004          7.2504
  24182255.9274    5037123.39344    886859.67845                  24182264.1344
         6.7504          5.7504
  23882676.3564      42342.69641
         3.2504
 02  8  6 15 51 45.0010000  0  9G 2G 3G15G17G18G21G22G 6G26
  25000021.3564    2058791.22745   1579525.74045                  25000030.0914
         9.2504          9.0004
  22619667.6464   -1842961.25647  -1416551.67046                  22619675.2204
        20.5004         20.0004
  20837188.9744    1428230.61248   1085325.28347                  20837195.2084
        30.7504         29.2504
  21305350.1224    1918411.42347   1484588.50046                  21305357.3214
        24.0004         25.2504
  20770826.8414    1286626.98047    995998.24547                  20770832.0094
        22.2504         26.2504
  21846456.0524    -729183.08047   -558808.38346                  21846462.2164
        26.0004         25.5004
  25014344.8174    3712467.06944   2843606.95145                  25014353.4234
         6.5004          7.2504
  24195203.3964    5105165.24844    939879.13745                  24195214.3454
         6.7504          5.7504
  23893685.6384     100199.98141
         3.2504
 02  8  6 15 52  0.0010000  0  9G 2G 3G15G17G18G21G22G 6G26
  25005860.4814    2089490.07645   1603446.88645                  25005866.2714
         7.5004          7.5004
  22616224.7004   -1861050.89146  -1430647.49846                  22616232.6384
        19.2504         19.2504
  20841449.5054    1450618.51448   1102770.37747                  20841455.6814
        32.0004         29.5004
  21310725.6774    1946660.11647   1506600.44346                  21310732.7824
        23.7504         25.2504
  20774881.9194    1307936.97947   1012603.43447                  20774887.2514
        22.0004         26.0004
  21845461.2314    -734412.76747   -562883.46747                  21845467.5714
        27.0004         25.7504
  25023864.8564    3762493.57043   2882588.57445                  25023876.4154
         6.0004          6.5004
  24208162.5914    5173268.13144    992946.15145                  24208168.6144
         6.5004          5.5004
  23904717.9424     158183.69141
         3.2504
 02  8  6 15 52 15.0010000  0  9G 2G 3G15G17G18G21G22G 6G26
  25011722.7314    2120299.23645   1627454.05045                  25011730.0134
         7.5004          7.7504
  22612808.8884   -1879000.08646  -1444633.87846                  22612816.3804
        19.2504         19.2504
  20845730.4504    1473115.05548   1120300.12747                  20845736.6384
        32.0004         29.5004
  21316120.6144    1975010.57147   1528691.68246                  21316127.4854
        24.2504         25.5004
  20778960.7474    1329369.68347   1029304.23347                  20778966.1144
        22.5004         26.0004
  21844485.6534    -739541.71648   -566880.05847                  21844491.6534
        28.2504         26.2504
  25033396.9584    3812586.46143   2921621.89845                  25033406.3134
         6.0004          6.5004
  24221134.0834    5241434.58844   1046062.74245                  24221144.5994
         6.5004          5.7504
  23915774.1064     216296.33841
         2.5004
 02  8  6 15 52 30.0010000  0  8G 2G 3G15G17G18G21G22G 6
  25017604.8024    2151219.06743   1651547.40945                  25017615.7744
         6.0004          6.7504
  22609420.6924   -1896808.01747  -1458510.18546                  22609427.5754
        20.2504         19.2504
  20850032.2244    1495720.88548   1137915.04347                  20850038.2594
        32.0004         29.7504
  21321535.1614    2003463.39247   1550862.68247                  21321541.6884
        24.7504         25.7504
  20783062.7784    1350925.46947   1046100.94247                  20783068.1694
        22.5004         26.2504
  21843529.3494    -744569.28148   -570797.63147                  21843535.2904
        29.5004         26.7504
  25042941.6614    3862745.88644   2960707.18045                  25042950.9354
         6.7504          6.5004
  24234117.4194    5309664.95843   1099229.11845                  24234130.1034
         6.0004          6.2504
 02  8  6 15 52 45.0010000  0  8G 2G 3G15G17G18G21G22G 6
  25023510.8494    2182247.42744   1675725.27245                  25023521.0134
         6.7504          8.0004
  22606058.7474   -1914476.14647  -1472277.54546                  22606065.6424
        20.5004         19.5004
  20854354.1694    1518434.24148   1155613.74147                  20854360.2394
        31.7504         29.5004
  21326968.9424    2032016.84147   1573112.10447                  21326975.3764
        25.5004         26.2504
  20787187.6224    1372602.33647   1062991.99147                  20787193.2354
        22.0004         26.0004
  21842591.3104    -749497.51948   -574637.80747                  21842597.4854
        28.7504         26.7504
  25052499.1464    3912969.76744   2999842.60345                  25052507.6104
         7.2504          6.5004
  24247112.1694    5377957.04843   1152443.55745                  24247122.8494
         5.5004          5.7504
 02  8  6 15 53  0.0010000  0  8G 2G 3G15G17G18G21G22G 6
  25029436.6924    2213386.27144   1699989.30445                  25029448.1464
         7.0004          8.2504
  22602724.0054   -1932002.04947  -1485934.06746                  22602730.9704
        21.2504         19.5004
  20858697.3964    1541257.39248   1173398.00447                  20858703.4424
        31.7504         29.7504
  21332422.0134    2060673.23047   1595441.73647                  21332428.5634
        25.5004         26.5004
  20791336.0284    1394402.40847   1079979.05747                  20791341.7124
        22.2504         26.2504
  21841671.8804    -754324.31147   -578398.93147                  21841678.4074
        26.2504         26.0004
  25062067.8024    3963259.78544   3039029.57045                  25062075.6814
         7.0004          7.7504
  24260120.5914    5446312.79044   1205707.61845                  24260127.7204
         6.5004          6.5004
 02  8  6 15 53 15.0010000  0  8G 2G 3G15G17G18G21G22G 6
  25035383.6694    2244635.74245   1724339.48845                  25035393.3414
         8.0004          8.5004
  22599415.7634   -1949384.98147  -1499479.20346                  22599423.5364
        20.5004         19.7504
  20863061.2944    1564190.77848   1191268.15247                  20863067.2714
        31.0004         29.7504
  21337894.9274    2089432.96947   1617851.90147                  21337901.4314
        26.5004         27.0004
  20795507.9034    1416325.97647   1097062.33847                  20795513.3414
        22.2504         26.2504
  21840772.1384    -759049.35947   -582080.77746                  21840778.9114
        24.5004         25.5004
  25071652.3104    4013616.16745   3078268.23045                  25071660.8564
         9.2504          8.7504
  24273141.5674    5514732.39444   1259021.47345                  24273149.3884
         7.2504          7.5004
 02  8  6 15 53 30.0010000  0  8G 2G 3G15G17G18G21G22G 6
  25041349.9664    2275993.49745   1748774.05945                  25041358.1494
         7.5004          8.0004
  22596134.8964   -1966626.73647  -1512914.33546                  22596142.8804
        20.5004         20.2504
  20867445.8104    1587232.39348   1209222.64147                  20867451.9854
        30.2504         29.7504
  21343387.4274    2118294.13247   1640341.09547                  21343393.4744
        27.5004         27.0004
  20799703.0604    1438370.77747   1114240.09247                  20799708.3334
        22.7504         26.5004
  21839892.4114    -763674.70447   -585684.93546                  21839899.3294
        25.0004         25.0004
  25081245.9744    4064036.30945   3117556.63245                  25081255.9504
         9.2504          8.5004
  24286173.4744    5583213.43144   1312383.22745                  24286182.0444
         7.2504          6.7504
 02  8  6 15 53 45.0010000  0  8G 2G 3G15G17G18G21G22G 6
  25047338.8334    2307462.00644   1773294.88345                  25047348.9154
         7.2504          7.7504
  22592881.7784   -1983724.42547  -1526237.20346                  22592889.5754
        22.0004         20.2504
  20871851.5284    1610385.11248   1227263.70847                  20871857.8924
        30.2504         29.7504
  21348899.7474    2147259.40548   1662911.42247                  21348905.7714
        28.0004         27.2504
  20803921.4274    1460539.38847   1131514.32847                  20803926.8064
        22.5004         26.7504
  21839031.6304    -768197.49147   -589209.17846                  21839038.3924
        25.0004         25.2504
  25090852.8414    4114522.65045   3156896.58845                  25090861.7394
         9.2504          8.0004
  24299216.0914    5651758.35144   1365794.69945                  24299222.5714
         6.2504          7.0004
 02  8  6 15 54  0.0010000  0  8G 2G 3G15G17G18G21G22G 6
  25053347.5524    2339036.04844   1797897.97745                  25053357.3884
         7.0004          8.0004
  22589655.1464   -2000682.74547  -1539451.47946                  22589662.2514
        22.7504         20.2504
  20876277.7474    1633643.92048   1245387.43947                  20876284.1814
        30.5004         29.5004
  21354429.8564    2176323.97947   1685559.11747                  21354435.8104
        27.7504         27.2504
  20808162.4584    1482826.67047   1148881.03447                  20808167.9074
        23.0004         26.7504
  21838189.3884    -772622.61247   -592657.31646                  21838196.3534
        24.7504         25.2504
  25100472.4584    4165069.85845   3196283.95245                  25100481.9194
         9.2504          8.0004
  24312270.3724    5720361.87743   1419251.84945                  24312279.0834
         5.5004          6.5004
 02  8  6 15 54 15.0010000  0  8G 2G 3G15G17G18G21G22G 6
  25059377.6224    2370718.31345   1822585.39645                  25059386.5094
         8.0004          8.5004
  22586455.5284   -2017498.46847  -1552554.64746                  22586462.7164
        23.2504         20.5004
  20880724.5364    1657011.79848   1263596.15847                  20880730.8064
        30.5004         29.5004
  21359980.0444    2205490.78747   1708286.48647                  21359986.1144
        27.7504         27.0004
  20812427.1614    1505235.29547   1166342.30147                  20812432.5874
        23.5004         26.7504
  21837367.0444    -776947.18147   -596027.11346                  21837373.6424
        26.0004         25.5004
  25110102.8254    4215680.66445   3235720.95345                  25110111.3024
         9.2504          7.7504
  24325336.4744    5789026.66643   1472756.78045                  24325347.4464
         5.2504          5.5004
 02  8  6 15 54 30.0010000  0  8G 2G 3G15G17G18G21G22G 6
  25065428.2084    2402506.86745   1847355.73345                  25065436.6034
         9.7504          8.0004
  22583281.9584   -2034172.93047  -1565547.74746                  22583288.6034
        22.7504         20.2504
  20885191.9114    1680487.15948   1281888.62247                  20885198.0174
        31.2504         29.5004
  21365549.4504    2234758.22447   1731092.26447                  21365555.6614
        26.7504         27.2504
  20816713.7244    1527763.43147   1183896.68447                  20816719.3604
        22.7504         26.7504
  21836562.6144    -781173.01147   -599319.96547                  21836569.1304
        26.0004         25.7504
  25119744.7554    4266352.86045   3275205.73945                  25119753.5714
         8.0004          7.2504
  24338413.4034    5857750.74743   1526307.88345                  24338426.8604
         5.2504          5.7504
 02  8  6 15 54 45.0010000  0  8G 2G 3G15G17G18G21G22G 6
  25071496.1694    2434404.31945   1872210.88545                  25071503.0014
         8.0004          7.0004
  22580135.9194   -2050702.91547  -1578428.24646                  22580142.0834
        22.5004         20.2504
  20889680.3024    1704073.04848   1300267.21247                  20889686.3024
        31.7504         29.7504
  21371138.4274    2264129.43347   1753978.89647                  21371144.7434
        25.2504         26.7504
  20821024.4194    1550414.01147   1201546.47447                  20821030.0094
        22.7504         26.7504
  21835777.8494    -785297.34147   -602533.72346                  21835784.4704
        25.5004         25.2504
  25129400.9114    4317088.93945   3314740.29545                  25129409.0014
         8.7504          8.2504
  24351505.5994    5926536.85843   1579907.40445                  24351519.5714
         5.7504          6.0004
 02  8  6 15 55  0.0010000  0  9G 2G 3G29G15G17G18G21G22G 6
  25077587.2554    2466411.98444   1897151.90645                  25077596.1304
         6.7504          7.2504
  22577017.9584   -2067086.74347  -1591194.86346                  22577024.4854
        21.7504         20.2504
  25118878.6224      42859.75552
         4.0004
  20894189.8414    1727771.06648   1318733.18447                  20894196.0404
        31.5004         30.0004
  21376746.9664    2293605.85447   1776947.51447                  21376753.2714
        23.2504         26.0004
  20825358.2314    1573188.49747   1219292.80747                  20825363.8924
        23.0004         27.0004
  21835012.3804    -789318.65347   -605667.22046                  21835019.2744
        25.0004         25.5004
  25139067.9424    4367890.20545   3354325.63945                  25139077.9894
         8.5004          8.7504
  24364606.7944    5995386.17542   1633555.94645                  24364615.9854
         4.7504          5.2504
 02  8  6 15 55 15.0010000  0  9G 2G 3G29G15G17G18G21G22G 6
  25083698.4814    2498526.99745   1922176.55645                  25083706.5484
         8.0004          7.2504
  22573928.4664   -2083326.69647  -1603849.38246                  22573934.9354
        23.7504         20.7504
  25130017.7554     101393.60742
         3.7504
  20898720.1304    1751578.65548   1337284.53347                  20898726.1884
        30.7504         30.0004
  21382375.6464    2323184.96147   1799996.14847                  21382382.7044
        22.7504         25.7504
  20829715.2864    1596083.93447   1237133.39147                  20829720.8174
        23.2504         27.0004
  21834266.6224    -793239.64147   -608722.53247                  21834273.7164
        26.0004         26.0004
  25148746.1924    4418753.73145   3393959.50045                  25148754.8924
         8.2504          8.5004
  24377720.7714    6064295.74043   1687251.78444                  24377725.6224
         5.5004          4.0004
 02  8  6 15 55 30.0010000  0  9G 2G 3G29G15G17G18G21G22G 6
  25089831.6614    2530751.06645   1947286.17945                  25089838.0954
         8.7504          7.2504
  22570866.3104   -2099420.50747  -1616390.01946                  22570872.1464
        25.0004         20.7504
  25141177.5284     160023.89442
         4.0004
  20903271.9274    1775497.97048   1355922.93947                  20903278.1144
        30.0004         29.7504
  21388024.6144    2352868.89547   1823126.47147                  21388031.5324
        23.5004         25.7504
  20834095.5284    1619102.22047   1255069.70347                  20834100.9074
        23.7504         27.0004
  21833540.5604    -797057.90847   -611697.79747                  21833547.8644
        27.2504         26.0004
  25158438.6464    4469681.15045   3433643.14845                  25158448.9744
         8.5004          9.2504
  24390846.6774    6133267.31743   1740995.62244                  24390852.7124
         5.5004          4.2504
 02  8  6 15 55 45.0010000  0  9G 2G 3G29G15G17G18G21G22G 6
  25095982.7784    2563080.84145   1972478.15445                  25095987.6884
         8.2504          7.7504
  22567830.7244   -2115371.02347  -1628818.99946                  22567836.4664
        24.2504         20.7504
  25152353.4034     218747.21842
         4.5004
  20907844.1694    1799525.79948   1374645.90247                  20907850.4624
        29.5004         30.0004
  21393692.6614    2382654.52947   1846336.02647                  21393699.7904
        23.7504         26.2504
  20838498.5444    1642240.08247   1273099.19647                  20838503.4894
        24.0004         27.2504
  21832832.2244    -800777.06447   -614595.82747                  21832839.2944
        26.5004         26.0004
  25168140.6224    4520668.84645   3473373.77445                  25168152.6384
         8.0004          9.5004
  24403980.6064    6202297.46943   1794785.22145                  24403992.6814
         5.0004          4.7504
 02  8  6 15 56  0.0010000  0 10G 2G 3G29G14G15G17G18G21G22G 6
  25102154.9814    2595518.29145   1997754.05945                  25102163.8104
         8.2504          7.7504
  22564822.8804   -2131175.67047  -1641134.31646                  22564828.8454
        23.5004         20.5004
  25163547.5054     277565.60942
         4.5004
  24460351.8104     -31508.38452
         3.7504
  20912437.6694    1823664.61548   1393455.35147                  20912444.0094
        29.5004         29.7504
  21399380.6854    2412544.28447   1869626.72247                  21399387.4934
        24.2504         26.0004
  20842924.5524    1665499.74347   1291223.59847                  20842929.4154
        23.7504         27.0004
  21832143.9114    -804394.74647   -617414.80647                  21832150.5914
        26.7504         26.0004
  25177854.9744    4571718.93945   3513152.98045                  25177866.0754
         7.5004          9.2504
  24417129.2944    6271388.25142   1848622.04845                  24417141.3334
         4.7504          6.0004
 02  8  6 15 56 15.0010000  0 10G 2G 3G29G14G15G17G18G21G22G 6
  25108347.9034    2628060.95245   2023111.93145                  25108358.4424
         9.2504          8.7504
  22561842.3024   -2146836.35647  -1653337.44646                  22561848.4664
        22.7504         20.7504
  25174755.4584     336476.55142
         4.2504
  24452182.8724     -74436.23741
         3.5004
  20917051.7084    1847912.20648   1412349.55747                  20917057.9894
        29.0004         29.5004
  21405088.1614    2442536.01647   1892996.87147                  21405094.8174
        24.2504         25.7504
  20847373.5054    1688878.74147   1309440.98947                  20847378.2744
        24.2504         26.7504
  21831474.7394    -807913.15148   -620156.42747                  21831481.0914
        28.0004         26.0004
  25187580.2244    4622828.69744   3552978.70145                  25187591.4194
         7.2504          9.2504
  24430288.6614    6340537.13743   1902504.19645                  24430301.3684
         5.5004          5.5004
 02  8  6 15 56 30.0010000  0 10G 2G 3G29G14G15G17G18G21G22G 6
  25114561.3174    2660707.02045   2048550.44045                  25114570.7434
         9.2504          8.7504
  22558888.7244   -2162354.44647  -1665429.47346                  22558895.3684
        21.7504         20.5004
  25185982.1384     395478.03042
         4.0004
  24444024.6614    -117316.89241
         3.0004
  20921686.1694    1872267.04748   1431327.33447                  20921692.4034
        28.2504         29.0004
  21410814.2394    2472628.15347   1916445.27346                  21410820.8724
        23.7504         25.5004
  20851844.6694    1712375.41947   1327750.08147                  20851849.2864
        24.0004         27.0004
  21830824.2164    -811333.98648   -622822.00447                  21830830.4854
        29.0004         26.2504
  25197318.0674    4673996.29945   3592849.51545                  25197329.0054
         7.5004          8.2504
  24443458.3724    6409742.26342   1956430.08345                  24443469.3684
         4.7504          5.5004
 02  8  6 15 56 45.0010000  0 11G 2G 3G29G14G15G17G18G21G22G23G 6
  25120793.6144    2693461.02145   2074072.98145                  25120803.3214
         8.5004          8.7504
  22555963.9584   -2177724.85647  -1677406.41046                  22555971.2284
        21.5004         20.5004
  25197228.2314     454574.65042
         3.7504
  24435873.8884    -160145.25341
         2.5004
  20926342.1614    1896734.01047   1450392.47647                  20926348.6184
        27.7504         28.7504
  21416560.6614    2502825.61547   1939975.73846                  21416567.0954
        24.2504         25.5004
  20856339.3884    1735994.45147   1346154.50747                  20856344.2744
        23.7504         27.2504
  21830192.8884    -814652.46248   -625407.82147                  21830198.7354
        30.0004         26.5004
  25207067.0914    4725226.04145   3632768.69645                  25207079.5174
         7.5004          9.2504
  24972682.2784       7550.41951
         3.5004
  24456638.3254    6479008.07042   2010403.25945                  24456650.3764
         4.2504          6.0004
 02  8  6 15 57  0.0010000  0 11G 2G 3G29G14G15G17G18G21G22G23G 6
  25127046.5284    2726319.14145   2099676.65845                  25127057.1494
         8.0004          8.2504
  22553066.5754   -2192950.95047  -1689270.90946                  22553074.0444
        21.2504         20.7504
  25208489.7554     513762.42641
         3.2504
  24427737.0754    -202924.70141
         2.5004
  20931018.6304    1921309.52347   1469542.20447                  20931025.0874
        27.5004         29.0004
  21422327.1384    2533124.81747   1963585.48847                  21422333.4314
        25.7504         26.0004
  20860856.5994    1759731.99047   1364651.27747                  20860861.4974
        24.2504         27.5004
  21829579.9354    -817872.26948   -627916.75447                  21829585.9814
        29.0004         26.2504
  25216826.0134    4776514.11644   3672733.39545                  25216834.7824
         7.0004          7.7504
  24983468.8964      64221.68942
         3.7504
  24469829.0994    6548330.70442   2064420.75045                  24469844.1734
         3.7504          4.7504
 02  8  6 15 57 15.0010000  0 11G 2G 3G29G14G15G17G18G21G22G23G 6
  25133319.6384    2759280.59645   2125360.83645                  25133329.8844
         8.5004          7.2504
  22550196.4744   -2208033.13547  -1701023.26746                  22550203.7674
        21.0004         20.7504
  25219770.3494     573040.54341
         2.7504
  24419604.3564    -245655.19141
         2.5004
  20935715.4274    1945993.09047   1488776.13247                  20935722.4154
        26.7504         28.5004
  21428112.3884    2563525.26647   1987274.12147                  21428118.5524
        26.5004         26.0004
  20865396.0524    1783587.21947   1383239.75147                  20865401.1034
        23.5004         27.5004
  21828985.3024    -820994.08048   -630349.33547                  21828991.6304
        28.0004         26.2504
  25226596.2944    4827859.58543   3712742.85345                  25226606.2124
         6.0004          7.2504
  24994255.4034     120916.22442
         4.2504
  24483029.6534    6617709.31041   2118481.79245                  24483042.4894
         2.7504          5.0004
 02  8  6 15 57 30.0010000  0 11G 2G 3G29G14G15G17G18G21G22G23G 6
  25139610.7864    2792346.67345   2151126.61945                  25139620.9624
         8.0004          7.2504
  22547354.1854   -2222969.44147  -1712661.93546                  22547361.0674
        21.0004         20.2504
  25231066.8024      19796.29851
         2.5004
  24411480.0134    -288334.83641
         2.7504
  20940433.6614    1970786.35647   1508095.54747                  20940440.8844
        26.7504         28.2504
  21433916.9354    2594028.65347   2011042.97547                  21433923.1224
        26.0004         26.2504
  20869958.0604    1807561.62147   1401921.08947                  20869963.5324
        23.2504         27.2504
  21828410.4194    -824016.23547   -632704.25547                  21828416.6534
        27.7504         25.7504
  25236378.2474    4879263.58244   3752797.87045                  25236385.8804
         6.2504          7.5004
  25005050.3414     177635.53042
         4.5004
  24496242.7784      50920.28051   2172588.72445                  24496258.0404
         2.7504          5.0004
 02  8  6 15 57 45.0010000  0 10G 2G 3G14G15G17G18G21G22G23G 6
  25145923.4274    2825519.99645   2176975.97745                  25145931.9744
         8.5004          7.2504
  22544540.3104   -2237756.70847  -1724184.46646                  22544546.8024
        21.0004         20.2504
  24403367.5054    -330960.38241
         3.2504
  20945173.4814    1995692.32348   1527502.77647                  20945180.5634
        28.5004         28.7504
  21439741.2394    2624637.91247   2034894.31447                  21439747.7904
        25.0004         26.2504
  20874543.2784    1831658.01847   1420697.48347                  20874548.8214
        23.5004         27.2504
  21827854.7244    -826935.77147   -634979.21447                  21827861.0634
        27.0004         26.0004
  25246173.4504    4930728.79244   3792900.54145                  25246181.2354
         6.5004          7.5004
  25015847.4894     234382.46742
         4.2504
  24509465.9664       9264.18251   2226742.20444                  24509485.3884
         2.7504          4.2504
 02  8  6 15 58  0.0010000  0 10G 2G 3G14G15G17G18G21G22G23G 6
  25152255.2634    2858795.08045   2202904.53745                  25152263.0484
         7.5004          7.5004
  22541753.8414   -2252399.93647  -1735594.75346                  22541760.5794
        21.5004         20.2504
  24395264.5914    -373536.84341
         3.2504
  20949933.7474    2020705.79648   1546993.78147                  20949940.3804
        30.0004         29.2504
  21445584.7634    2655347.91047   2058824.16347                  21445591.7044
        24.0004         26.2504
  20879151.0134    1855871.07947   1439564.79147                  20879156.3804
        24.2504         27.2504
  21827317.5524    -829758.01347   -637178.35547                  21827323.7634
        27.0004         26.0004
  25255976.2244    4982249.56343   3833046.53245                  25255983.0834
         5.5004          7.2504
  25026649.1694     291151.61942
         3.7504
  24522701.6464      23184.56251   2280937.41944                  24522722.1924
         2.7504          3.7504
 02  8  6 15 58 15.0010000  0 10G 2G 3G14G15G17G18G21G22G23G 6
  25158605.7554    2892173.48944   2228913.63545                  25158613.7394
         7.2504          8.0004
  22538995.2944   -2266896.79147  -1746891.00146                  22539001.5634
        22.2504         20.2504
  24387174.6924    -416061.75842
         3.7504
  20954714.6144    2045828.80248   1566570.12147                  20954720.8964
        31.5004         29.5004
  21451448.4274    2686160.64147   2082834.06247                  21451455.6034
        24.2504         26.2504
  20883781.2864    1880202.52947   1458524.35347                  20883786.3844
        23.7504         27.2504
  21826799.3964    -832481.17147   -639300.30447                  21826805.7824
        26.5004         25.7504
  25265790.0444    5033827.39243   3873236.95445                  25265800.7474
         5.5004          7.0004
  25037456.8964     347944.82941
         3.5004
  24535947.7714      37124.93151   2335175.79845                  24535966.6424
         2.7504          5.2504
 02  8  6 15 58 30.0010000  0  9G 2G 3G14G15G17G18G21G22G23
  25164977.7554    2925655.55845   2255003.51545                  25164987.8374
         7.5004          8.7504
  22536264.1064   -2281246.61947  -1758072.68146                  22536270.8804
        20.2504         20.0004
  24379091.8024    -458534.45441
         3.0004
  20959516.4504    2071061.88448   1586232.23847                  20959522.6034
        31.7504         29.7504
  21457331.4114    2717076.61347   2106924.40747                  21457338.6344
        24.2504         26.2504
  20888434.1774    1904652.81447   1477576.52047                  20888439.1924
        24.2504         27.0004
  21826299.8254    -835104.78347   -641344.66847                  21826306.5994
        26.0004         25.7504
  25275614.6064    5085462.51642   3913472.12145                  25275626.2594
         4.2504          6.5004
  25048270.5524     404762.52141
         3.5004
 02  8  6 15 58 45.0010000  0 10G 2G 3G15G17G18G21G22G23G 6G26
  25171367.8334    2959241.09244   2281173.97645                  25171379.4154
         6.7504          8.5004
  22533561.1534   -2295449.08146  -1769139.53646                  22533567.9854
        19.2504         19.7504
  20964338.8494    2096405.12048   1605980.19447                  20964344.9544
        31.5004         29.5004
  21463234.4664    2748095.99747   2131095.33347                  21463241.8534
        24.7504         26.2504
  20893109.4664    1929221.59847   1496721.01947                  20893114.4704
        24.7504         27.0004
  21825819.4114    -837628.58247   -643311.27446                  21825826.4814
        25.2504         25.5004
  25285452.3254    5137154.53343   3953751.48945                  25285463.8374
         5.0004          6.5004
  25059087.8884     461604.62741
         3.2504
  24562472.4034      65067.22342   2443784.26745                  24562482.8724
         3.7504          6.0004
  24211696.0364       8180.94251
         3.5004
 02  8  6 15 59  0.0010000  0 10G 2G 3G15G17G18G21G22G23G 6G26
  25177779.1854    2992929.20445   2307424.42745                  25177790.8604
         7.5004          9.0004
  22530886.1144   -2309504.55046  -1780091.84846                  22530892.8414
        18.5004         19.5004
  20969182.7004    2121857.99148   1625813.58547                  20969189.0754
        31.5004         30.0004
  21469156.4894    2779218.29947   2155346.44447                  21469163.5604
        24.0004         25.7504
  20897807.2314    1953908.28447   1515957.38247                  20897812.2474
        24.5004         27.0004
  21825358.2474    -840053.36347   -645200.72147                  21825364.7984
        26.0004         25.7504
  25295300.9424    5188902.72344   3994074.65745                  25295311.8804
         6.2504          6.7504
  25069907.2394      18953.39351
         2.7504
  24575751.4744     134841.04741   2498153.42645                  24575762.6694
         3.2504          4.5004
  24223388.9424      20493.81552
         4.5004
 02  8  6 15 59 15.0010000  0 10G 2G 3G15G17G18G21G22G23G 6G26
  25184211.0754    3026718.70045   2333753.85445                  25184220.1264
         9.0004          9.0004
  22528239.6694   -2323413.70847  -1790930.13846                  22528246.5134
        20.0004         20.0004
  20974046.7164    2147419.66148   1645731.76047                  20974053.3134
        31.2504         30.2504
  21475098.5364    2810442.60147   2179677.04746                  21475105.4074
        24.2504         25.5004
  20902526.8334    1978711.82847   1535284.80347                  20902531.9314
        23.7504         27.2504
  21824915.4584    -842380.33447   -647013.93946                  21824921.6814
        25.5004         25.5004
  25305158.3104    5240705.64544   4034440.60445                  25305165.5914
         6.5004          6.7504
  25080732.9584      30338.76951
         3.0004
  24589039.2634     204668.85242   2552564.61645                  24589053.6464
         4.0004          6.0004
  24235107.7244      82067.93443
         5.0004
 02  8  6 15 59 30.0010000  0  9G 2G 3G15G17G18G21G22G 6G26
  25190658.9894    3060609.66945   2360162.37645                  25190668.4384
         7.5004          8.7504
  22525621.7084   -2337175.94447  -1801653.96546                  22525628.1184
        21.2504         20.0004
  20978931.4974    2173090.55848   1665735.03647                  20978938.0014
        31.5004         30.7504
  21481059.2864    2841769.36847   2204087.50246                  21481066.4154
        23.2504         25.2504
  20907268.7004    2003632.45047   1554703.46147                  20907274.3844
        23.2504         27.2504
  21824490.9194    -844608.97547   -648750.52846                  21824497.0954
        25.0004         25.0004
  25315027.0994    5292563.27245   4074849.01745                  25315035.3644
         8.0004          8.0004
  24602337.4504     274550.65342   2607017.82045                  24602352.3374
         4.7504          6.2504
  24246844.4354     143759.27841
         2.7504
 02  8  6 15 59 45.0010000  0 10G 2G 3G15G17G18G21G22G23G 6G26
  25197126.5284    3094601.07445   2386649.09545                  25197136.5174
         7.5004          8.2504
  22523030.5994   -2350791.75347  -1812263.70046                  22523036.8104
        22.0004         20.5004
  20983837.2314    2198869.96748   1685822.86947                  20983843.5714
        31.5004         30.5004
  21487040.2164    2873197.85947   2228577.21046                  21487047.5564
        23.0004         25.0004
  20912033.4744    2028669.11847   1574212.54047                  20912039.3454
        23.7504         27.2504
  21824085.1774    -846740.02047   -650411.07846                  21824091.5524
        25.0004         25.5004
  25324905.2164    5344474.51343   4115299.25645                  25324914.7474
         6.0004          7.5004
  25102399.1144       7588.34451
         2.7504
  24615645.2004     344485.42142   2661512.21045                  24615654.7434
         4.5004          5.2504
  24258605.6304      32973.53851
         3.5004
 02  8  6 16  0  0.0010000  0  9G 2G 3G15G17G18G21G22G 6G26
  25203614.7714    3128693.01045   2413214.22345                  25203623.7164
         7.7504          8.5004
  22520467.2944   -2364260.49847  -1822758.81746                  22520473.8214
        22.0004         21.5004
  20988763.6774    2224758.33648   1705995.61047                  20988769.8884
        31.2504         30.0004
  21493040.5524    2904728.63047   2253146.62346                  21493047.5634
        24.2504         25.2504
  20916819.9894    2053822.10647   1593812.26647                  20916825.7204
        23.5004         27.5004
  21823698.4664    -848773.23647   -651995.39147                  21823705.2634
        25.2504         26.0004
  25334795.6144    5396439.50144   4155791.39445                  25334806.6224
         6.5004          8.2504
  24628964.9974     414473.31743   2716048.12445                  24628974.9034
         5.7504          5.7504
  24270384.2474      94897.08441
         2.5004
 02  8  6 16  0 15.0010000  0  8G 2G 3G15G17G18G21G22G 6
  25210121.3104    3162886.22344   2439858.18845                  25210130.6654
         7.0004          8.2504
  22517933.2004   -2377580.92947  -1833138.36446                  22517939.8804
        23.0004         21.5004
  20993710.8564    2250756.74448   1726254.09247                  20993716.9974
        30.5004         29.7504
  21499060.3334    2936362.59147   2277796.45146                  21499067.2984
        23.2504         25.0004
  20921628.9744    2079092.15747   1613503.20447                  20921634.5174
        24.2504         28.0004
  21823330.9424    -850707.57447   -653502.66947                  21823337.9664
        27.0004         26.2504
  25344694.6614    5448458.78345   4196325.81545                  25344705.0244
         7.5004          8.5004
  24642294.5674     484514.97044   2770625.90245                  24642303.2674
         6.5004          5.2504
 02  8  6 16  0 30.0010000  0  8G 2G 3G15G17G18G21G22G 6
  25216649.3104    3197181.34445   2466581.67245                  25216657.6464
         8.0004          8.0004
  22515427.1694   -2390751.83647  -1843401.41146                  22515434.0284
        23.5004         21.5004
  20998679.3254    2276866.18948   1746599.08847                  20998685.5244
        29.7504         29.5004
  21505100.0834    2968100.88747   2302527.56646                  21505107.1424
        23.7504         25.2504
  20926460.1854    2104480.23647   1633286.10847                  20926465.3884
        24.5004         28.0004
  21822981.9814    -852542.00248   -654932.09747                  21822988.6034
        28.0004         26.7504
  25354604.5994    5500532.94945   4236903.00745                  25354613.7784
         8.0004          8.5004
  24655633.5834     554611.10944   2825246.12845                  24655637.6494
         6.7504          6.2504
 02  8  6 16  0 45.0010000  0  8G 2G 3G15G17G18G21G22G 6
  25223196.8104    3231577.80745   2493384.02445                  25223205.2044
         9.0004          8.0004
  22512948.6614   -2403773.30047  -1853548.00046                  22512955.4814
        22.5004         21.5004
  21003668.8884    2303086.37148   1767030.38647                  21003675.2514
        29.2504         29.0004
  21511159.3174    2999943.11047   2327339.67146                  21511166.8454
        23.7504         25.5004
  20931313.5524    2129985.73847   1653160.50747                  20931318.7784
        24.0004         27.7504
  21822651.9424    -854276.98148   -656284.02547                  21822658.4114
        28.0004         27.0004
  25364523.2314    5552661.37544   4277522.50045                  25364532.2594
         7.2504          8.0004
  24668982.4114     624761.08444   2879908.24145                  24668991.0754
         6.7504          5.5004
 02  8  6 16  1  0.0010000  0  8G 2G 3G15G17G18G21G22G 6
  25229759.2314    3266073.28644   2520263.54845                  25229766.8764
         6.2504          7.2504
  22510498.4354   -2416647.04147  -1863579.49146                  22510505.1494
        21.5004         21.0004
  21008679.1464    2329415.34248   1787546.44447                  21008685.4624
        29.0004         29.0004
  21517238.2634    3031887.40547   2352231.30947                  21517245.7084
        23.7504         26.0004
  20936189.0444    2155606.53447   1673124.75247                  20936194.1534
        23.7504         27.2504
  21822340.5284    -855914.73648   -657560.18247                  21822347.0914
        29.0004         27.0004
  25374452.2714    5604841.61945   4318182.39845                  25374461.8964
         7.5004          7.7504
  24682340.5914     694962.57044   2934610.59744                  24682357.1534
         6.7504          4.0004
 02  8  6 16  1 15.0010000  0  9G 2G 3G14G15G17G18G21G22G 6
  25236339.3414    3300665.74143   2547218.66345                  25236350.0094
         5.2504          7.2504
  22508076.7004   -2429374.53547  -1873497.02946                  22508082.9704
        22.0004         21.0004
  24290851.9114     -19538.09252
         4.5004
  21013709.2784    2355851.42748   1808145.98147                  21013715.7244
        28.2504         29.0004
  21523336.3174    3063932.06247   2377201.14547                  21523343.5874
        24.7504         26.5004
  20941086.0054    2181340.80747   1693177.41847                  20941090.9384
        24.5004         27.2504
  21822046.4664    -857456.84947   -658761.82847                  21822052.9934
        27.7504         27.0004
  25384391.0604    5657071.64945   4358881.08145                  25384399.7004
         7.5004          7.2504
  24695709.4664     765213.58744   2989351.46445                  24695721.4934
         6.7504          5.5004
 02  8  6 16  1 30.0010000  0  9G 2G 3G14G15G17G18G21G22G 6
  25242942.1464    3335357.31544   2574251.02945                  25242953.6344
         6.2504          6.5004
  22505683.2314   -2441953.34247  -1883298.69446                  22505689.6184
        22.0004         20.7504
  24282890.9664     -61369.40642
         4.5004
  21018760.9894    2382396.90048   1828830.75047                  21018767.5524
        28.7504         29.5004
  21529454.0364    3096079.47147   2402251.04147                  21529461.0364
        26.0004         26.7504
  20946005.2314    2207190.50947   1713320.03247                  20946010.1534
        24.2504         27.0004
  21821772.1924    -858901.11548   -659887.23147                  21821778.7204
        28.5004         26.7504
  25394339.3804    5709353.22844   4399619.90345                  25394351.2314
         7.2504          7.2504
  24709089.2394     835516.05945   3044132.45445                  24709099.7554
         7.5004          5.5004
 02  8  6 16  1 45.0010000  0  9G 2G 3G14G15G17G18G21G 6G26
  25249563.1384    3370149.25944   2601361.62445                  25249574.1224
         6.5004          8.0004
  22503317.5214   -2454381.55647  -1892983.01046                  22503323.5324
        21.0004         20.2504
  24274940.5994    -103143.58742
         4.5004
  21023833.8104    2409053.56848   1849602.16747                  21023840.5244
        29.5004         30.0004
  21535591.3414    3128331.25947   2427382.28347                  21535597.6694
        26.2504         27.0004
  20950946.7474    2233157.20547   1733553.81547                  20950951.2824
        24.7504         27.5004
  21821516.5914    -860245.99348   -660935.19347                  21821522.6734
        29.2504         26.2504
  24722477.9584     905871.42145   3098954.65145                  24722489.1424
         7.7504          5.0004
  24353491.5834      58547.42142
         4.0004
 02  8  6 16  2  0.0010000  0  9G 2G 3G14G15G17G18G21G 6G26
  25256204.3254    3405042.44045   2628551.09645                  25256214.9464
         7.5004          7.5004
  22500981.1224   -2466657.85347  -1902548.95946                  22500987.3804
        20.7504         20.2504
  24267000.6854    -144859.28042
         3.7504
  21028928.1464    2435822.51848   1870461.07447                  21028934.9194
        30.0004         30.2504
  21541748.8254    3160688.70147   2452595.84947                  21541755.1424
        26.0004         26.7504
  20955910.4814    2259241.82247   1753879.47947                  20955915.1694
        25.2504         27.5004
  21821279.6384    -861490.54348   -661904.97647                  21821285.5324
        29.5004         26.2504
  24735876.5834     976280.40345   3153818.70445                  24735888.5754
         7.7504          6.0004
  24365451.8494     121393.61242
         3.7504
 02  8  6 16  2 15.0010000  0  9G 2G 3G14G15G17G18G21G 6G26
  25262861.3564    3440032.22645   2655815.75245                  25262870.1734
         7.5004          8.5004
  22498673.9034   -2478786.33847  -1911999.71946                  22498679.9974
        21.7504         20.0004
  24259072.6384    -186520.45441
         3.2504
  21034042.4584    2462699.50948   1891404.17547                  21034049.0094
        30.0004         30.2504
  21547925.5674    3193147.41547   2477888.32747                  21547932.2004
        26.0004         26.5004
  20960895.7554    2285439.91247   1774293.56047                  20960900.5714
        25.0004         27.5004
  21821060.5364    -862639.09747   -662799.94847                  21821066.6884
        27.7504         26.0004
  24749282.8644    1046738.46445   3208720.95645                  24749289.4854
         7.5004          5.7504
  24377432.7554     184351.26442
         3.7504
 02  8  6 16  2 30.0010000  0  7G 2G 3G15G17G18G21G 6
  25269538.4114    3475120.99544   2683157.68545                  25269548.5054
         6.7504          8.5004
  22496395.2784   -2490763.95247  -1921332.92046                  22496401.1734
        23.5004         20.5004
  21039178.0994    2489687.25948   1912433.57947                  21039184.6264
        30.0004         30.0004
  21554122.2474    3225710.10047   2503261.82347                  21554128.5054
        26.7504         26.5004
  20965903.1854    2311753.93847   1794797.99547                  20965908.2714
        25.5004         28.0004
  21820860.8724    -863689.15447   -663618.16947                  21820866.8724
        27.7504         25.7504
  24762700.0754    1117247.88644   3263663.21045                  24762714.7634
         6.5004          5.5004
 02  8  6 16  2 45.0010000  0  6G 3G15G17G18G21G 6
  22494145.1694   -2502592.94447  -1930550.33346                  22494151.1104
        25.0004         21.2504
  21044334.5364    2516783.27648   1933547.35747                  21044340.9584
        30.7504         30.0004
  21560338.2084    3258374.44447   2528714.53747                  21560344.3844
        27.2504         26.2504
  20970932.0994    2338181.19547   1815390.64747                  20970937.2554
        25.2504         28.2504
  21820679.3414    -864643.04647   -664361.46747                  21820685.2714
        27.2504         25.7504
  24776127.1224    1187805.91644   3318643.34245                  24776142.5134
         6.2504          5.0004
 02  8  6 16  3  0.0010000  0  6G 3G15G17G18G21G 6
  22491922.3494   -2514272.23247  -1939651.08546                  22491928.0914
        25.0004         21.5004
  21049511.6534    2543988.62048   1954746.31547                  21049517.9464
        31.2504         30.0004
  21566573.2164    3291141.33847   2554247.15747                  21566579.2864
        26.5004         25.7504
  20975982.7164    2364722.52247   1836072.18747                  20975987.9664
        25.0004         28.5004
  21820516.6534    -865499.96947   -665029.20346                  21820522.7594
        27.5004         25.5004
  24789563.1694    1258413.22644   3373661.95045                  24789574.6224
         6.2504          6.5004
 02  8  6 16  3 15.0010000  0  6G 3G15G17G18G21G 6
  22489728.6304   -2525800.80547  -1948634.39346                  22489734.4194
        25.2504         21.7504
  21054709.4274    2571304.07448   1976031.06947                  21054715.6144
        31.2504         30.2504
  21572828.1614    3324011.72347   2579860.42147                  21572834.3134
        26.2504         25.7504
  20981054.7784    2391378.57347   1856843.12447                  20981060.1814
        24.2504         28.2504
  21820371.9974    -866259.18947   -665620.79747                  21820378.1264
        27.2504         25.7504
  24803010.2554    1329070.32344   3428719.26145                  24803021.0054
         6.5004          6.0004
 02  8  6 16  3 30.0010000  0  7G 3G14G15G17G18G21G 6
  22487563.1694   -2537178.38947  -1957500.03546                  22487569.1924
        24.5004         21.7504
  24219595.7554     -30334.18842
         4.2504
  21059928.2474    2598729.75048   1997401.71347                  21059934.7044
        30.5004         30.2504
  21579102.9974    3356985.64447   2605554.36746                  21579109.0794
        26.2504         25.2504
  20986149.2394    2418149.18647   1877703.32847                  20986154.7594
        24.5004         28.0004
  21820245.8724    -866920.55847   -666136.14446                  21820252.0244
        26.5004         25.5004
  24816465.2004    1399776.91443   3483815.14845                  24816476.9354
         6.0004          5.5004
 02  8  6 16  3 45.0010000  0  7G 3G14G15G17G18G21G 6
  22485426.0604   -2548406.50947  -1966249.20646                  22485432.7514
        23.0004         21.7504
  24211734.6694     -71652.90543
         5.0004
  21065167.7554    2626263.88748   2018856.87647                  21065174.4584
        30.2504         29.7504
  21585397.1384    3390061.45047   2631327.69446                  21585403.1144
        26.0004         25.0004
  20991265.0284    2445032.43847   1898651.30447                  20991270.5134
        24.7504         28.0004
  21820137.8884    -867486.11147   -666576.83746                  21820143.8994
        26.2504         25.0004
  24829929.3564    1470530.89643   3538948.01445                  24829935.2514
         5.7504          5.5004
 02  8  6 16  4  0.0010000  0  7G 3G14G15G17G18G21G 6
  22483317.2394   -2559485.53947  -1974882.22146                  22483324.0014
        22.2504         21.5004
  24203883.2244    -112914.98043
         5.0004
  21070427.8024    2653906.03648   2040396.20547                  21070434.5524
        30.5004         30.0004
  21591710.5284    3423238.49147   2657179.89546                  21591716.5994
        26.5004         25.2504
  20996402.1304    2472027.52647   1919686.42447                  20996407.5564
        24.5004         27.5004
  21820048.9274    -867956.45847   -666943.33346                  21820054.8334
        27.7504         25.5004
  24843402.1224    1541331.47142   3594117.09743                  24843408.7904
         4.5004          2.7504
 02  8  6 16  4 15.0010000  0  7G 3G14G15G17G18G21G 6
  22481237.3644   -2570414.27347  -1983398.11946                  22481243.8334
        21.2504         21.0004
  24196040.0134    -154119.29042
         3.7504
  21075708.8964    2681657.19948   2062020.46547                  21075715.4114
        30.5004         29.5004
  21598043.8104    3456517.75447   2683111.76347                  21598050.1264
        26.7504         26.0004
  21001560.7164    2499135.32147   1940809.36447                  21001565.9074
        24.5004         27.2504
  21819977.7084    -868330.72548   -667234.97047                  21819983.6614
        28.2504         25.7504
  24856883.6384    1612179.27542   3649323.06444                  24856892.6774
         3.7504          3.7504
 02  8  6 16  4 30.0010000  0  7G 3G14G15G17G18G21G 6
  22479186.4504   -2581193.68047  -1991797.65646                  22479192.6144
        22.0004         20.7504
  24188210.1144    -195266.65642         1.96455                  24188214.8844
         3.7504          5.5004
  21081010.3964    2709516.19848   2083728.76047                  21081016.4894
        31.5004         29.5004
  21604395.3644    3489898.14147   2709122.42647                  21604402.2594
        25.0004         25.7504
  21006740.1304    2526354.50347   1962019.10747                  21006745.2164
        24.7504         27.5004
  21819924.0914    -868610.21547   -667452.74947                  21819930.2904
        27.2504         26.5004
  24870372.6144    1683072.77941   3704564.60244                  24870386.6464
         2.7504          3.5004
 02  8  6 16  4 45.0010000  0  7G 3G14G15G17G18G21G 6
  22477163.3254   -2591824.04547  -2000081.05346                  22477169.5244
        21.5004         20.5004
  24180391.3494    -236357.19141    -32016.58744                  24180393.2594
         3.5004          4.0004
  21086332.0834    2737482.59448   2105520.73747                  21086338.1304
        31.2504         29.0004
  21610766.4114    3523379.24547   2735211.57446                  21610773.5874
        24.5004         25.5004
  21011940.5914    2553684.25347   1983315.00547                  21011946.0174
        23.5004         26.7504
  21819888.8804    -868795.31347   -667596.98247                  21819895.3254
        27.2504         26.5004
  24883873.6694       9456.27351
         2.5004
 02  8  6 16  5  0.0010000  0  7G 3G14G15G17G18G21G 6
  22475169.1534   -2602303.48647  -2008246.85246                  22475175.5524
        21.7504         21.0004
  24172583.6064    -277389.03442    -63989.41844                  24172582.1064
         3.7504          3.5004
  21091674.6064    2765557.98048   2127397.64547                  21091680.7004
        30.5004         28.7504
  21617157.0994    3556962.70547   2761380.47347                  21617164.4384
        24.7504         26.0004
  21017162.2244    2581126.02347   2004698.18547                  21017167.8844
        23.0004         26.7504
  21819871.7474    -868884.63347   -667666.58347                  21819877.9934
        27.7504         26.7504
  24897385.0054      80440.89841
         2.5004
 02  8  6 16  5 15.0010000  0  6G 3G14G15G17G18G21
  22473203.8334   -2612632.67547  -2016295.55846                  22473210.6534
        22.5004         21.5004
  24164784.0754    -318362.61142
         3.7504
  21097037.9274    2793741.54248   2149358.85147                  21097044.0564
        30.2504         28.2504
  21623567.0524    3590647.80247   2787628.57547                  21623574.2744
        23.7504         26.2504
  21022405.6464    2608678.80147   2026167.86847                  21022411.3884
        23.0004         26.5004
  21819872.8414    -868878.91247   -667662.11147                  21819878.9464
        27.5004         26.5004
 02  8  6 16  5 30.0010000  0  7G 3G14G15G17G18G21G 6
  22471266.7244   -2622811.98347  -2024227.48446                  22471273.8294
        22.5004         21.7504
  24156999.3884    -359278.15141
         3.2504
  21102421.3964    2822032.73748   2171403.92647                  21102427.7004
        30.2504         28.5004
  21629996.1384    3624433.87947   2813955.35847                  21630003.5834
        23.2504         25.7504
  21027669.6924    2636341.80247   2047723.44147                  21027675.4114
        23.2504         26.7504
  21819891.5604    -868778.96347   -667584.20847                  21819897.8064
        26.5004         26.2504
  24924424.8804      52119.82141
         2.5004
 02  8  6 16  5 45.0010000  0  7G 3G14G15G17G18G21G 6
  22469358.5284   -2632838.88647  -2032040.65346                  22469365.1854
        22.2504         21.5004
  24149224.4194      -5442.13251
         3.2504
  21107825.9504    2850433.88948   2193534.69147                  21107832.4314
        30.2504         28.7504
  21636445.2864    3658323.25647   2840362.64046                  21636452.7204
        23.5004         25.5004
  21032955.1464    2664117.24047   2069366.62547                  21032960.9234
        23.5004         27.0004
  21819928.9814    -868582.46747   -667431.07447                  21819935.5444
        26.2504         26.2504
  24937962.2394       9480.13251
         2.0004
 02  8  6 16  6  0.0010000  0  6G 3G14G15G17G18G21
  22467479.3564   -2642717.66347  -2039738.39246                  22467486.2744
        23.5004         21.7504
  24141456.6384     -46240.76141
         2.5004
  21113250.7164    2878940.58648   2215747.68947                  21113257.1384
        30.5004         29.0004
  21642912.9664    3692311.54447   2866846.99447                  21642920.3064
        24.0004         25.7504
  21038261.4274    2692000.34447   2091093.70947                  21038267.1814
        24.2504         27.2504
  21819983.9744    -868293.98647   -667206.27947                  21819990.6304
        26.2504         26.2504
 02  8  6 16  6 15.0010000  0  6G 3G14G15G17G18G21
  22465627.7244   -2652445.23347  -2047318.31146                  22465634.4274
        22.2504         21.7504
  24133704.5674     -86979.75041
         3.0004
  21118695.9034    2907555.66748   2238045.13347                  21118702.3964
        30.2504         29.0004
  21649400.7314    3726401.43347   2893410.52447                  21649408.1884
        25.5004         26.0004
  21043588.8024    2719993.75447   2112906.74347                  21043594.1814
        24.7504         27.2504
  21820057.2244    -867910.80347   -666907.69347                  21820064.2594
        27.0004         26.5004
 02  8  6 16  6 30.0010000  0  6G 3G14G15G17G18G21
  22463805.7714   -2662018.61947  -2054778.10046                  22463812.7594
        21.7504         21.7504
  24125965.6774     -29821.07052
         4.0004
  21124162.0834    2936281.96148   2260429.24447                  21124168.6574
        29.7504         29.0004
  21655907.8494    3760595.99247   2920055.60847                  21655915.1424
        26.0004         26.0004
  21048936.8024    2748100.15547   2134807.82447                  21048942.0524
        24.2504         27.2504
  21820148.4274    -867430.11847   -666533.13247                  21820155.0834
        26.7504         26.2504
 02  8  6 16  6 45.0010000  0  6G 3G14G15G17G18G21
  22462012.5914   -2671440.63747  -2062119.93646                  22462019.7204
        21.7504         21.7504
  24118236.7784     -70437.22942
         4.5004
  21129649.0444    2965116.53648   2282897.72747                  21129655.4544
        29.7504         29.0004
  21662434.0134    3794892.24847   2946779.92847                  21662441.1064
        26.0004         26.0004
  21054306.3174    2776316.37947   2156794.47147                  21054311.6264
        24.0004         27.0004
  21820257.6144    -866855.30047   -666085.22647                  21820264.2714
        26.2504         26.2504
 02  8  6 16  7  0.0010000  0  6G 3G14G15G17G18G21
  22460248.8644   -2680711.63747  -2069344.07146                  22460256.4504
        22.5004         22.2504
  24110520.2784    -110993.52342
         4.7504
  21135156.7244    2994058.95248   2305450.24647                  21135162.9234
        30.0004         29.0004
  21668979.4894    3829289.71347   2973583.12447                  21668986.3604
        26.0004         26.0004
  21059696.6384    2804641.65847   2178866.10447                  21059701.7354
        24.2504         27.2504
  21820384.9274    -866186.65147   -665564.20147                  21820391.7354
        26.5004         26.2504
 02  8  6 16  7 15.0010000  0  6G 3G14G15G17G18G21
  22458512.7944   -2689835.01147  -2076453.18346                  22458520.4154
        22.7504         22.2504
  24102812.5054    -151493.20042     -6306.66954                  24102825.3174
         4.5004          4.2504
  21140684.1064    3023105.53548   2328083.92847                  21140690.0714
        29.5004         29.0004
  21675543.9894    3863784.53847   3000462.18247                  21675551.1774
        26.2504         26.0004
  21065106.4814    2833072.24947   2201019.79647                  21065111.7204
        23.7504         27.2504
  21820529.1924    -865427.90947   -664972.96747                  21820535.7904
        26.5004         26.2504
 02  8  6 16  7 30.0010000  0  6G 3G14G15G17G18G21
  22456804.9584   -2698808.01947  -2083445.12746                  22456812.8254
        22.0004         22.2504
  24095116.4584    -191933.52842    -37818.50544                  24095122.5754
         4.5004          4.2504
  21146231.7084    3052258.81148   2350800.74947                  21146237.7554
        30.0004         29.0004
  21682127.1384    3898379.41647   3027419.20147                  21682133.8644
        26.5004         26.0004
  21070537.4504    2861610.46147   2223257.34747                  21070542.9114
        23.7504         26.7504
  21820691.4034    -864576.68547   -664309.68047                  21820698.0834
        26.5004         26.0004
 02  8  6 16  7 45.0010000  0  7G 3G14G15G17G18G21G 6
  22455126.1614   -2707629.18747  -2090318.75246                  22455133.7594
        22.0004         22.2504
  24087434.5834    -232312.94843    -69282.96744                  24087445.2284
         5.7504          4.2504
  21151800.3564    3081520.08448   2373601.72647                  21151806.5674
        30.0004         29.0004
  21688729.7164    3933075.86147   3054455.37147                  21688736.4314
        26.2504         25.7504
  21075988.4974    2890257.28547   2245579.52947                  21075994.0874
        23.5004         26.5004
  21820871.5524    -863631.82347   -663573.42147                  21820877.8104
        27.0004         26.2504
  25046519.6534       9525.18351
         2.5004
 02  8  6 16  8  0.0020000  0  7G 3G14G15G17G18G21G 6
  22453475.8464   -2716299.06247  -2097074.50046                  22453482.9984
        21.5004         22.0004
  24079763.7054    -272633.99944   -100701.84644                  24079773.0614
         6.7504          3.7504
  21157389.3464    3110891.11348   2396488.22947                  21157395.4514
        30.0004         29.0004
  21695351.8614    3967875.78947   3081572.16046                  21695358.3184
        26.0004         25.2504
  21081460.4944    2919014.34447   2267987.61047                  21081466.4004
        23.7504         27.0004
  21821069.6274    -862593.60048   -662764.42047                  21821075.6974
        28.2504         26.0004
  25060124.3144      81028.60741
         2.5004
 02  8  6 16  8 15.0020000  0  7G 3G14G15G17G18G21G 6
  22451855.4554   -2724817.37647  -2103712.14846                  22451862.6664
        21.7504         22.0004
  24072102.0334    -312891.98144
         7.2504
  21162998.5104    3140367.06148   2419456.49647                  21163004.7324
        30.2504         29.2504
  21701992.9554    4002773.64247   3108765.26846                  21701999.3544
        25.7504         25.2504
  21086953.2054    2947876.62947   2290477.68947                  21086958.8774
        24.7504         27.5004
  21821284.9634    -861463.09548   -661883.50147                  21821291.0104
        29.0004         26.2504
  25073736.5494     152566.84241
         2.5004
 02  8  6 16  8 30.0020000  0  7G 3G14G15G17G18G21G 6
  22450263.7914   -2733183.33047  -2110231.07046                  22450270.8854
        22.5004         21.7504
  24064451.9634    -353087.96944
         6.7504
  21168628.2364    3169951.00948   2442508.91347                  21168634.4124
        30.7504         29.0004
  21708653.1894    4037772.86647   3136037.35946                  21708659.8694
        26.2504         25.5004
  21092466.3614    2976847.03147   2313052.01547                  21092471.6234
        26.0004         28.0004
  21821517.1744    -860239.18347   -660929.78247                  21821523.4554
        27.2504         26.2504
  25087359.7604     224145.62142
         3.7504
 02  8  6 16  8 45.0020000  0  7G 3G14G15G17G18G21G 6
  22448700.3074   -2741397.85847  -2116631.99146                  22448707.3304
        22.2504         22.0004
  24056814.7444    -393222.91544
         6.7504
  21174278.2294    3199641.78048   2465644.56047                  21174284.3574
        31.5004         29.7504
  21715332.1744    4072872.36047   3163387.59347                  21715339.3034
        25.7504         25.7504
  21097999.6114    3005924.06147   2335709.42547                  21098004.6044
        26.7504         28.5004
  21821767.9474    -858923.16848   -659904.31947                  21821774.2294
        28.2504         26.2504
  25100990.6194     295763.34742
         4.2504
 02  8  6 16  9  0.0020000  0  7G 3G14G15G17G18G21G 6
  22447166.2754   -2749460.29647  -2122914.40046                  22447172.9324
        22.7504         21.7504
  24049188.8614    -433296.16644
         6.2504
  21179948.9554    3229439.82348   2488863.80147                  21179955.0144
        31.2504         29.5004
  21722030.6434    4108072.49847   3190816.24947                  21722037.8894
        25.2504         26.0004
  21103553.0414    3035108.01547   2358450.15547                  21103557.9984
        26.0004         28.5004
  21822035.7524    -857514.64647   -658806.77247                  21822041.7174
        27.7504         26.2504
  25114626.0574     367420.11842
         4.2504
 02  8  6 16  9 15.0020000  0  7G 3G14G15G17G18G21G 6
  22445661.0414   -2757370.50647  -2129078.18746                  22445667.2874
        22.7504         21.7504
  24041573.7754    -473307.38044
         6.2504
  21185639.4324    3259345.26748   2512166.72647                  21185645.4794
        31.0004         29.7504
  21728748.2604    4143373.46947   3218323.47847                  21728755.6234
        25.0004         26.0004
  21109127.0494    3064398.62447   2381273.99047                  21109132.0884
        27.0004         28.5004
  21822321.9864    -856013.77848   -657637.26847                  21822327.9164
        28.7504         26.2504
  25128268.5884     439115.69242
         4.2504
 02  8  6 16  9 30.0020000  0  7G 3G14G15G17G18G21G 6
  22444185.5884   -2765124.13747  -2135119.97746                  22444191.8224
        22.7504         22.0004
  24033972.7054    -513251.84844    -24894.84053                  24033982.6704
         6.5004          3.2504
  21191351.3304    3289362.27148   2535556.58247                  21191357.4824
        30.0004         29.7504
  21735485.6974    4178779.49647   3245912.55247                  21735493.1784
        24.7504         25.7504
  21114722.0724    3093800.11147   2404184.23147                  21114727.0294
        27.0004         29.0004
  21822625.6044    -854416.42448   -656392.56347                  21822631.6154
        29.0004         26.5004
  25141919.1434     510853.94942
         4.0004
 02  8  6 16  9 45.0020000  0  7G 3G14G15G17G18G21G26
  22442738.2294   -2772729.04247  -2141045.86146                  22442744.3344
        22.7504         21.5004
  24026383.7914    -553137.44745
         7.7504
  21197082.8694    3319482.71448   2559027.04247                  21197089.4084
        30.0004         30.0004
  21742241.5024    4214282.44947   3273577.15246                  21742248.7364
        24.5004         25.5004
  21120335.7914    3123303.97847   2427174.25347                  21120341.0294
        25.5004         28.0004
  21822946.4554    -852730.69148   -655078.98947                  21822952.9594
        28.7504         27.0004
  24746354.5964       8814.72051
         2.7504
 02  8  6 16 10  0.0020000  0  7G 3G14G15G17G18G21G26
  22441320.2444   -2780180.36347  -2146852.07446                  22441326.2794
        23.2504         21.5004
  24018805.0574    -592959.05145
         7.5004
  21202835.6044    3349711.39148   2582581.84547                  21202842.2134
        30.5004         29.7504
  21749016.4084    4249887.05147   3301320.97446                  21749023.8304
        22.7504         25.0004
  21125970.4394    3152914.96247   2450247.72947                  21125976.1234
        25.0004         27.5004
  21823284.8074    -850951.77148   -653692.81147                  21823291.4634
        28.5004         26.7504
  24758947.7914      75019.82441
         2.0004
 02  8  6 16 10 15.0020000  0  6G 3G14G15G17G18G21
  22439932.1274   -2787474.82347  -2152536.04946                  22439938.4674
        22.2504         21.5004
  24011241.6664    -632713.37945
         7.7504
  21208609.0964    3380051.38748   2606223.38547                  21208615.5534
        30.7504         29.7504
  21755811.7754    4285596.40947   3329146.42446                  21755819.1504
        22.7504         24.7504
  21131626.5884    3182635.93247   2473406.91447                  21131632.0614
        25.5004         27.7504
  21823641.4004    -849076.85948   -652231.83147                  21823647.9984
        28.0004         26.5004
 02  8  6 16 10 30.0020000  0  6G 3G14G15G17G18G21
  22438572.4864   -2794620.56947  -2158104.15546                  22438579.0024
        22.0004         21.7504
  24003686.9794    -672408.53645
         7.7504
  21214402.0724    3410494.46548   2629945.25247                  21214408.4004
        30.2504         29.7504
  21762625.5644    4321402.13447   3357046.95746                  21762632.9984
        22.7504         24.2504
  21137301.3144    3212458.22347   2496645.04747                  21137306.8344
        24.7504         27.5004
  21824014.4084    -847114.45547   -650702.68447                  21824020.6074
        27.0004         26.0004
 02  8  6 16 10 45.0020000  0  6G 3G14G15G17G18G21
  22437241.7294   -2801614.26747  -2163553.77946                  22437248.4674
        22.5004         22.0004
  23996146.0574    -712040.96645
         8.7504
  21220215.5724    3441043.82548   2653749.94347                  21220221.9824
        30.5004         29.7504
  21769457.9864    4357307.53747   3385025.16446                  21769465.6894
        22.7504         24.5004
  21142995.9324    3242384.78347   2519964.43847                  21143001.9554
        24.5004         27.2504
  21824404.9164    -845061.48747   -649102.95946                  21824411.4084
        26.2504         25.5004
 02  8  6 16 11  0.0020000  0  6G 3G14G15G17G18G21
  22435939.1894   -2808457.37247  -2168886.05546                  22435945.8814
        22.5004         21.5004
  23988614.7294    -751611.95645    -24662.55655                  23988621.1624
         9.2504          5.5004
  21226048.7214    3471697.83248   2677636.16747                  21226055.2134
        30.7504         29.5004
  21776309.4864    4393310.96247   3413079.74846                  21776317.1314
        23.0004         24.7504
  21148710.7994    3272413.84247   2543363.69447                  21148716.5064
        25.7504         27.5004
  21824812.5104    -842919.60347   -647433.95547                  21824819.0374
        26.0004         26.0004
 02  8  6 16 11 15.0020000  0  6G 3G14G15G17G18G21
  22434665.8934   -2815149.45647  -2174100.66646                  22434672.5024
        22.2504         21.7504
  23981096.3464    -791120.91145    -55448.65145                  23981101.3734
         9.5004          5.2504
  21231902.0494    3502456.64148   2701604.06247                  21231908.4124
        31.2504         30.0004
  21783179.4324    4429412.59347   3441210.85446                  21783187.1704
        23.0004         24.7504
  21154445.0184    3302545.43847   2566842.85147                  21154450.3614
        26.5004         27.7504
  21825236.9474    -840688.63047   -645695.53647                  21825243.7564
        26.0004         26.0004
 02  8  6 16 11 30.0020000  0  6G 3G14G15G17G18G21
  22433421.9084   -2821689.08647  -2179196.48646                  22433428.7684
        23.0004         22.0004
  23973589.3854    -830566.35645    -86185.33245                  23973595.8074
        10.0004          5.7504
  21237775.6974    3533321.55348   2725654.62947                  21237782.0374
        31.2504         30.0004
  21790068.0804    4465613.79047   3469419.54946                  21790075.6784
        23.0004         24.5004
  21160198.6434    3332780.73347   2590402.80847                  21160203.6004
        27.0004         28.2504
  21825678.7684    -838367.44047   -643886.81347                  21825684.8264
        26.5004         25.7504
 02  8  6 16 11 45.0020000  0  6G 3G14G15G17G18G21
  22432206.4794   -2828076.42247  -2184173.63746                  22432213.5254
        24.2504         22.7504
  23966096.5414    -869948.41445   -116872.58345                  23966101.0534
        10.0004          5.2504
  21243669.2754    3564292.18448   2749787.57147                  21243675.5574
        30.5004         29.5004
  21796976.4004    4501914.15047   3497705.52146                  21796984.0104
        23.2504         24.5004
  21165971.5494    3363119.06147   2614043.04647                  21165976.3074
        27.0004         28.2504
  21826137.2134    -835956.56247   -642008.20246                  21826143.4124
        25.7504         25.5004
 02  8  6 16 12  0.0020000  0  6G 3G14G15G17G18G21
  22431020.1114   -2834310.76247  -2189031.55646                  22431027.0414
        24.0004         23.0004
  23958613.8074    -909266.07645   -147509.69545                  23958627.2644
         9.7504          5.2504
  21249582.6584    3595369.25448   2774003.45447                  21249588.9394
        29.7504         29.2504
  21803902.5884    4538314.39347   3526069.31446                  21803910.2444
        22.2504         24.2504
  21171764.6584    3393560.84147   2637763.90647                  21171769.6154
        27.0004         28.2504
  21826613.3934    -833455.35047   -640059.19346                  21826619.5574
        26.2504         25.5004
 02  8  6 16 12 15.0020000  0  6G 3G14G15G17G18G21
  22429863.0104   -2840391.48247  -2193769.78346                  22429869.6434
        24.5004         23.2504
  23951144.4554    -948518.64045   -178096.00045                  23951148.6624
         9.5004          5.7504
  21255516.6664    3626553.07148   2798302.51347                  21255523.0064
        29.0004         29.0004
  21810848.3774    4574814.81047   3554511.17446                  21810856.0104
        22.7504         24.5004
  21177577.5414    3424106.12947   2661565.40647                  21177582.3464
        27.2504         28.2504
  21827106.7684    -830863.69647   -638039.71646                  21827112.9434
        26.5004         25.5004
 02  8  6 16 12 30.0020000  0  6G 3G14G15G17G18G21
  22428734.8694   -2846317.24047  -2198387.25146                  22428741.7014
        23.5004         23.2504
  23943688.6274    -987704.57445   -208630.36045                  23943698.7684
         9.0004          6.2504
  21261471.4164    3657844.83248   2822685.69447                  21261477.8144
        29.5004         28.7504
  21817813.7134    4611416.68547   3583032.09046                  21817821.4044
        23.7504         24.7504
  21183409.4394    3454755.89847   2685448.33147                  21183414.5374
        26.5004         27.7504
  21827617.4474    -828180.32247   -635948.75846                  21827623.7524
        26.5004         25.5004
 02  8  6 16 12 45.0020000  0  6G 3G14G15G17G18G21
  22427636.2994   -2852090.64947  -2202886.00546                  22427643.1584
        23.2504         22.5004
  23936242.7524   -1026826.32045   -239114.85845                  23936252.2954
         7.5004          5.7504
  21267445.7994    3689241.80148   2847150.84847                  21267452.6314
        28.5004         29.2504
  21824798.1044    4648117.18147   3611629.84046                  21824805.3144
        24.5004         24.5004
  21189261.3074    3485507.32347   2709410.46947                  21189266.3574
        26.2504         28.0004
  21828144.9004    -825408.16547   -633788.62746                  21828151.4394
        26.0004         25.5004
 02  8  6 16 13  0.0020000  0  6G 3G14G15G17G18G21
  22426566.3854   -2857713.00047  -2207267.06046                  22426572.9824
        22.7504         21.7504
  23928810.7054   -1065885.09845   -269550.15145                  23928818.7954
         9.0004          6.0004
  21273440.1824    3720742.56148   2871696.87947                  21273447.0764
        28.5004         29.0004
  21831800.3464    4684914.95347   3640303.39146                  21831807.8034
        24.5004         25.2504
  21195131.9714    3516358.79647   2733450.57447                  21195136.9394
        25.7504         27.2504
  21828688.8854    -822548.70247   -631560.47746                  21828695.2484
        26.0004         25.2504
 02  8  6 16 13 15.0020000  0  6G 3G14G15G17G18G21
  22425525.7134   -2863181.24347  -2211528.01146                  22425532.1824
        23.2504         22.0004
  23921390.2444   -1104877.52445   -299933.76545                  23921398.8854
         9.7504          6.2504
  21279455.1894    3752350.15848   2896326.16447                  21279462.0214
        29.7504         29.2504
  21838821.3614    4721812.92547   3669055.03446                  21838828.7604
        23.0004         25.2504
  21201022.6434    3547313.05547   2757570.75847                  21201027.8224
        26.0004         27.0004
  21829249.8854    -819599.03847   -629262.03446                  21829256.0144
        25.5004         25.2504
 02  8  6 16 13 30.0020000  0  7G31G 3G14G15G17G18G21
  24937844.6584     -23185.45455
         8.0004
  22424514.8694   -2868493.61047  -2215667.52546                  22424520.8814
        24.0004         22.0004
  23913982.8464   -1143801.88445   -330264.39545                  23913992.0024
         9.5004          7.2504
  21285490.4004    3784065.98148   2921039.77547                  21285496.8224
        30.0004         29.7504
  21845862.4554    4758812.62447   3697885.94046                  21845869.6664
        23.2504         25.0004
  21206932.7684    3578371.35247   2781772.01247                  21206937.7834
        25.5004         27.0004
  21829828.8694    -816557.73247   -626892.18747                  21829835.0334
        25.5004         25.7504
 02  8  6 16 13 45.0020000  0  7G31G 3G14G15G17G18G21
  24931843.6664     -54724.85245
         8.7504
  22423534.0884   -2873652.41947  -2219687.36146                  22423540.1004
        25.7504         22.2504
  23906587.7914   -1182660.29345   -360543.61645                  23906597.1464
         9.0004          6.7504
  21291546.2054    3815887.59348   2945835.82047                  21291552.3934
        30.7504         29.7504
  21852922.3464    4795911.59647   3726794.20046                  21852929.4864
        23.2504         24.7504
  21212862.3144    3609530.96047   2806052.21747                  21212867.2714
        25.5004         27.0004
  21830424.7364    -813427.58247   -624453.09947                  21830431.2874
        26.5004         26.0004
 02  8  6 16 14  0.0020000  0  7G31G 3G14G15G17G18G21
  24925859.1824     -86173.09245
         8.2504
  22422581.1044   -2878658.42147  -2223588.13646                  22422587.2214
        25.2504         22.2504
  23899206.5024   -1221453.34545   -390771.91545                  23899214.0414
         9.0004          7.2504
  21297621.7604    3847814.05448   2970713.56347                  21297627.8184
        31.2504         29.7504
  21860000.6974    4833108.87147   3755779.05946                  21860007.6394
        23.5004         24.7504
  21218810.6744    3640790.83647   2830410.54747                  21218815.7484
        25.5004         27.0004
  21831037.2134    -810209.49647   -621945.49347                  21831043.8224
        26.5004         26.5004
 02  8  6 16 14 15.0020000  0  7G31G 3G14G15G17G18G21
  24919891.4864    -117530.27845
         8.7504
  22421657.2444   -2883511.87847  -2227370.03946                  22421663.3854
        24.5004         22.5004
  23891835.7684   -1260181.19745   -420949.38645                  23891842.6504
         8.2504          6.7504
  21303716.8304    3879845.09648   2995672.80647                  21303722.9244
        31.2504         29.7504
  21867097.8774    4870404.19947   3784840.33146                  21867104.8654
        23.2504         24.7504
  21224778.6044    3672150.40947   2854846.56247                  21224783.7134
        26.0004         27.2504
  21831666.4944    -806903.98547   -619369.76647                  21831673.1744
        26.7504         26.2504
 02  8  6 16 14 30.0020000  0  8G31G 3G 9G14G15G17G18G21
  24913941.4794    -148793.91345
         8.5004
  22420763.3304   -2888210.50947  -2231031.29746                  22420770.0454
        24.7504         22.7504
  25102820.0964      -5986.66554
         6.2504
  23884479.2914   -1298841.30045   -451074.01545                  23884486.9004
         8.5004          7.2504
  21309832.5254    3911982.84048   3020715.19547                  21309838.8424
        31.2504         30.0004
  21874213.6434    4907799.73247   3813979.69046                  21874220.9944
        23.0004         25.0004
  21230765.3774    3703611.62647   2879361.78047                  21230770.6504
        26.2504         27.7504
  21832312.4084    -803508.78047   -616724.14647                  21832318.9004
        26.5004         26.0004
 02  8  6 16 14 45.0020000  0  8G31G 3G 9G14G15G17G18G21
  24908009.1894    -179965.95945    -14564.23855                  24908019.3304
         8.2504          9.0004
  22419898.1354   -2892756.30747  -2234573.46346                  22419905.2994
        24.7504         23.0004
  25099413.9394     -23891.00044
         6.5004
  23877135.7994   -1337435.52745   -481147.40345                  23877143.9004
         8.7504          8.0004
  21315967.9244    3944225.03348   3045838.97247                  21315974.6864
        30.7504         30.2504
  21881348.7294    4945293.19747   3843195.34946                  21881355.9394
        23.7504         25.0004
  21236771.0804    3735172.09147   2903954.33247                  21236776.0844
        26.2504         28.2504
  21832975.3464    -800026.53247   -614010.70447                  21832981.5334
        27.2504         25.7504
 02  8  6 16 15  0.0020000  0  8G31G 3G 9G14G15G17G18G21
  24902094.7684    -211045.37445    -38781.98045                  24902104.1824
         8.0004          8.2504
  22419062.2994   -2897148.30147  -2237995.79846                  22419069.5334
        24.2504         23.7504
  25096023.1044     -41706.65244
         6.5004
  23869804.4164   -1375962.86145   -511168.64845                  23869810.8614
         7.7504          7.5004
  21322123.5804    3976572.42748   3071044.72147                  21322130.4634
        30.7504         30.2504
  21888502.6114    4982885.39247   3872487.95746                  21888509.9514
        24.7504         25.0004
  21242795.7834    3766832.48547   2928624.75947                  21242800.9634
        26.0004         28.0004
  21833654.9714    -796456.26548   -611228.67047                  21833660.9124
        28.2504         25.7504
 02  8  6 16 15 15.0020000  0  9G31G 3G 9G14G15G17G18G21G26
  24896200.8694    -242029.36245    -62925.31145                  24896212.0414
         9.2504          7.7504
  22418256.8464   -2901383.78747  -2241296.18446                  22418263.9984
        25.0004         23.7504
  25092649.0104     -59430.62643
         6.0004
  23862485.1434   -1414420.49944   -541135.56545                  23862493.5724
         6.5004          7.2504
  21328299.1354    4009027.60848   3096334.45547                  21328305.8854
        30.0004         30.0004
  21895675.2834    5020578.83547   3901859.44946                  21895682.4944
        24.2504         25.2504
  21248839.9634    3798595.01447   2953374.75647                  21248845.2604
        26.2504         28.0004
  21834351.5104    -792795.58648   -608376.20047                  21834357.5214
        28.0004         25.7504
  25027616.1354      59048.37552
         4.7504
 02  8  6 16 15 30.0020000  0  9G31G 3G 9G14G15G17G18G21G26
  24890322.5184    -272923.73045    -86998.88545                  24890330.4554
        10.2504          8.5004
  22417478.9004   -2905468.92447  -2244479.39746                  22417486.1584
        23.7504         23.5004
  25089292.0024     -77068.87343
         5.7504
  23855177.8464   -1452814.41843   -571052.76845                  23855187.6584
         6.0004          7.2504
  21334494.3614    4041584.41748   3121703.38747                  21334501.2324
        28.7504         29.7504
  21902866.3694    5058367.42047   3931305.06546                  21902873.0724
        24.2504         24.2504
  21254902.3544    3830453.24147   2978199.34747                  21254907.7214
        26.0004         27.7504
  21835063.8854    -789051.02547   -605458.36046                  21835070.0024
        27.7504         25.5004
  25040598.3074     127264.41343
         5.5004
 02  8  6 16 15 45.0020000  0  9G31G 3G 9G14G15G17G18G21G26
  24884460.3074    -303725.77245   -111000.43845                  24884468.1624
        10.7504          8.5004
  22416730.2834   -2909401.12647  -2247543.44646                  22416737.0684
        22.7504         23.2504
  25085952.1974     -94618.57743     -2729.13355                  25085965.9944
         5.5004          7.5004
  23847884.1894   -1491141.72644   -600918.14445                  23847893.5334
         6.5004          7.5004
  21340709.5494    4074245.22748   3147153.34747                  21340716.4084
        28.2504         29.5004
  21910075.8224    5096253.43647   3960826.61946                  21910082.3034
        24.0004         23.2504
  21260983.3694    3862409.24747   3003100.11647                  21260988.5964
        26.2504         27.7504
  21835792.6044    -785220.01847   -602473.15846                  21835798.9434
        26.5004         25.5004
  25053597.1744     195565.27543
         6.0004
 02  8  6 16 16  0.0020000  0  9G31G 3G 9G14G15G17G18G21G26
  24878618.3074    -334429.10045   -134925.16445                  24878623.7094
        11.5004          9.0004
  22416012.3304   -2913174.07547  -2250483.41346                  22416018.9514
        23.0004         22.7504
  25082630.3384    -112073.15343    -16330.00945                  25082644.8504
         5.0004          7.0004
  23840606.2134   -1529396.01344   -630726.59545                  23840616.7644
         7.2504          7.2504
  21346945.7294    4107016.22548   3172689.17447                  21346952.7174
        28.5004         30.0004
  21917304.6194    5134243.02347   3990428.87046                  21917310.6894
        23.2504         23.0004
  21267084.5964    3894469.12347   3028081.82047                  21267089.5764
        27.0004         28.0004
  21836539.0254    -781296.50447   -599415.87747                  21836545.1434
        26.5004         25.7504
  25066610.2994     263956.73443
         5.5004
 02  8  6 16 16 15.0020000  0  9G31G 3G 9G14G15G17G18G21G26
  24872793.7294    -365038.34045   -158776.53645                  24872799.4594
        11.2504          8.2504
  22415323.9634   -2916792.57047  -2253302.99546                  22415330.5374
        23.2504         22.7504
  25079324.0804    -129437.23642    -29860.40945                  25079342.2604
         4.5004          6.2504
  23833340.2294   -1567581.94045   -660481.79145                  23833349.0214
         7.5004          7.2504
  21353201.9794    4139892.46348   3198307.00747                  21353209.0374
        29.0004         30.2504
  21924552.0964    5172331.35347   4020108.07046                  21924558.6004
        22.2504         22.7504
  21273203.9944    3926627.72547   3053140.45747                  21273209.2444
        26.5004         27.5004
  21837302.9554    -777285.75347   -596290.60747                  21837309.0724
        27.7504         25.7504
  25079643.4164     332433.47043
         5.7504
 02  8  6 16 16 30.0020000  0  9G31G 3G 9G14G15G17G18G21G26
  24866985.4864    -395551.06345   -182552.68445                  24866993.0614
         8.7504          8.0004
  22414665.1504   -2920254.30247  -2256000.45546                  22414671.6664
        23.5004         22.7504
  25076039.5254    -146708.31443    -43318.25745                  25076055.3614
         5.5004          6.5004
  23826085.1354   -1605696.99344   -690181.81845                  23826092.3224
         6.2504          7.2504
  21359478.9634    4172876.06848   3224008.49847                  21359485.8344
        29.5004         30.0004
  21931819.8074    5210520.57247   4049865.88646                  21931826.5214
        23.2504         22.7504
  21279342.4634    3958886.88447   3078277.45147                  21279347.6194
        26.0004         27.2504
  21838082.7214    -773185.51047   -593095.60347                  21838088.7914
        27.7504         26.0004
  25092688.7364     400997.22342
         4.0004
 02  8  6 16 16 45.0020000  0  9G31G 3G 9G14G15G17G18G21G26
  24861197.0414    -425970.10145   -206255.78545                  24861202.9004
         9.0004          7.7504
  22414035.5804   -2923562.24047  -2258578.07446                  22414042.1194
        23.2504         22.5004
  25072772.5964    -163889.19645    -56705.92645                  25072783.8504
         7.7504          7.2504
  23818845.0494   -1643744.14243   -719828.83345                  23818855.5184
         6.0004          7.0004
  21365775.2524    4205963.83548   3249791.16147                  21365781.9794
        30.0004         30.0004
  21939106.2994    5248807.44347   4079699.78846                  21939113.3694
        24.7504         23.2504
  21285499.5724    3991243.31847   3103490.24947                  21285505.0684
        25.0004         26.7504
  21838879.7134    -768999.28148   -589833.61247                  21838885.7604
        28.2504         26.0004
  25105753.6114     469644.38641
         3.2504
 02  8  6 16 17  0.0020000  0  9G31G 3G 9G14G15G17G18G21G26
  24855426.2214    -456294.04045   -229884.87945                  24855434.5684
         9.2504          7.5004
  22413435.7994   -2926715.21847  -2261034.93146                  22413442.0104
        24.0004         22.5004
  25069520.2364    -180978.33745    -70022.04145                  25069531.0334
         8.7504          8.0004
  23811619.7364   -1681721.89844   -749421.79245                  23811630.4864
         7.2504          7.2504
  21372091.5334    4239156.84848   3275655.83147                  21372098.4394
        29.5004         29.2504
  21946410.8694    5287193.12747   4109610.68946                  21946417.7754
        25.2504         24.2504
  21291675.0644    4023697.97447   3128779.57847                  21291680.6074
        24.7504         26.5004
  21839692.7444    -764725.82647   -586503.64847                  21839698.9204
        27.7504         26.2504
  25118832.8074     538375.65842
         3.7504
 02  8  6 16 17 15.0020000  0  9G31G 3G 9G14G15G17G18G21G26
  24849674.0494    -486521.85445   -253438.96145                  24849681.7644
         9.5004          8.5004
  22412865.6504   -2929712.33347  -2263370.33346                  22412871.7564
        24.0004         22.2504
  25066286.4714    -197974.67745    -83265.84645                  25066297.2794
         9.5004          8.5004
  23804406.1044   -1719629.25645   -778959.97545                  23804415.3074
         8.0004          7.5004
  21378427.6354    4272455.89948   3301603.12147                  21378434.5764
        28.2504         29.2504
  21953734.0964    5325678.28347   4139599.09646                  21953740.9554
        25.0004         24.5004
  21297870.0884    4056251.29347   3154145.79147                  21297875.7364
        25.0004         26.5004
  21840523.0724    -760364.57548   -583105.27547                  21840529.2714
        28.5004         26.2504
  25131924.2684     607191.29941
         3.0004
 02  8  6 16 17 30.0020000  0  9G31G 3G 9G14G15G17G18G21G26
  24843940.6194    -516652.82345   -276917.69945                  24843947.0534
         9.2504          9.0004
  22412325.6044   -2932552.91147  -2265583.75946                  22412331.4044
        25.2504         22.2504
  25063070.8304    -214877.39845    -96436.73345                  25063079.6584
        10.0004          8.7504
  23797205.2754   -1757465.42745   -808442.67345                  23797211.8734
         7.7504          7.0004
  21384785.0884    4305861.43348   3327633.40347                  21384791.6864
        29.7504         29.2504
  21961076.3464    5364263.46147   4169665.44146                  21961083.4164
        24.5004         25.0004
  21304083.7364    4088903.54347   3179589.09247                  21304089.0924
        25.2504         26.7504
  21841369.5104    -755915.15448   -579638.18547                  21841375.7684
        28.0004         26.5004
  25145035.7134     676091.46841
         3.0004
 02  8  6 16 17 45.0020000  0  9G31G 3G 9G14G15G17G18G21G26
  24838224.8384    -546689.31645   -300322.73045                  24838232.6354
         8.0004          7.7504
  22411814.2444   -2935239.65147  -2267677.31546                  22411820.1864
        25.0004         22.0004
  25059870.6504    -231688.89045   -109536.50845                  25059880.4634
         9.2504          9.5004
  23790019.5494   -1795232.84945   -837871.68345                  23790025.2564
         9.0004          7.5004
  21391162.1044    4339370.65448   3353744.45647                  21391168.1504
        31.7504         29.5004
  21968437.0104    5402945.81547   4199807.50846                  21968444.3964
        23.2504         24.2504
  21310315.9944    4121651.79947   3205107.19147                  21310321.2684
        25.7504         27.0004
  21842232.2994    -751380.54547   -576104.71447                  21842238.8144
        27.7504         26.5004
  25158163.2364     745073.03341
         3.2504
 02  8  6 16 18  0.0020000  0  9G31G 3G 9G14G15G17G18G21G26
  24832528.7134    -576627.74345   -323651.33845                  24832535.4394
         8.7504          7.0004
  22411332.5724   -2937769.03047  -2269648.24946                  22411338.4434
        24.7504         22.0004
  25056688.7444    -248405.34545   -122562.24445                  25056701.7794
         8.7504          9.0004
  23782846.1974   -1832927.91445   -867244.40845                  23782854.3464
         9.2504          7.7504
  21397558.9394    4372986.95348   3379938.95447                  21397565.0214
        32.0004         29.5004
  21975817.1744    5441728.83447   4230028.01846                  21975824.7954
        23.0004         24.2504
  21316566.1504    4154499.23447   3230702.58447                  21316571.6464
        24.7504         27.0004
  21843111.7444    -746757.37147   -572502.23247                  21843118.0964
        26.7504         26.2504
  25171307.3144     814138.95842
         3.7504
 02  8  6 16 18 15.0020000  0  9G31G 3G 9G14G15G17G18G21G26
  24826850.5184    -606468.14345   -346903.59645                  24826858.5844
         9.0004          8.2504
  22410880.7914   -2940141.35247  -2271496.80246                  22410886.8854
        24.2504         22.0004
  25053525.6824    -265026.78645   -135513.90345                  25053537.3114
         8.0004          8.7504
  23775686.9244   -1870550.67745   -896560.74745                  23775694.0064
         9.2504          7.7504
  21403976.1114    4406709.95848   3406216.59847                  21403982.3464
        32.2504         30.2504
  21983216.6974    5480612.15747   4260326.69046                  21983223.8734
        23.2504         23.7504
  21322835.1974    4187445.25347   3256374.79147                  21322841.0214
        24.2504         27.0004
  21844008.2134    -742046.02347   -568831.04147                  21844014.4244
        26.5004         25.7504
  25184464.9084     883288.44441
         3.0004
 02  8  6 16 18 30.0020000  0  8G31G 3G 9G14G15G17G18G21
  24821190.4714    -636210.71345   -370079.61545                  24821197.0454
        10.0004          8.0004
  22410458.8384   -2942356.90647  -2273223.20546                  22410464.9204
        23.2504         22.0004
  25050381.4324    -281553.39545   -148391.70845                  25050394.8184
         8.2504          8.2504
  23768542.0644   -1908101.32145   -925820.87045                  23768548.1584
         9.5004          7.5004
  21410413.6744    4440539.17248   3432577.01147                  21410420.1784
        31.2504         30.2504
  21990634.9634    5519595.28047   4290703.12746                  21990642.0924
        23.5004         23.7504
  21329123.1744    4220489.12247   3282123.25547                  21329129.2564
        23.5004         26.7504
  21844921.2834    -737247.22847   -565091.70847                  21844927.6584
        26.0004         25.7504
 02  8  6 16 18 45.0020000  0  8G31G 3G 9G14G15G17G18G21
  24815549.4944    -665855.68345   -393179.58545                  24815558.3814
        10.7504          9.2504
  22410066.9474   -2944416.05447  -2274827.71846                  22410073.0414
        23.2504         22.0004
  25047254.6114    -297985.32945   -161195.70745                  25047267.8114
         9.0004          8.0004
  23761408.3934   -1945580.06145   -955025.03745                  23761415.8144
         9.0004          8.0004
  21416871.2214    4474474.05648   3459019.76547                  21416877.9364
        31.2504         30.0004
  21998072.3774    5558677.60047   4321156.85946                  21998079.1624
        24.2504         23.5004
  21335429.9714    4253630.21847   3307947.47547                  21335435.9824
        23.2504         26.5004
  21845850.6114    -732361.67847   -561284.78746                  21845857.7174
        24.7504         25.5004
 02  8  6 16 19  0.0020000  0  8G31G 3G 9G14G15G17G18G21
  24809925.5334    -695403.29145   -416203.70745                  24809934.3504
        10.0004          9.0004
  22409704.5334   -2946319.18747  -2276310.68646                  22409710.7914
        23.0004         22.2504
  25044145.0254    -314322.84645   -173926.15645                  25044156.3034
         8.5004          8.0004
  23754288.6274   -1982987.11445   -984173.34245                  23754297.7954
         8.2504          8.2504
  21423349.1824    4508514.10248   3485544.45547                  21423355.6744
        32.5004         30.2504
  22005527.9084    5597858.62447   4351687.50446                  22005534.7404
        23.7504         23.0004
  21341754.6894    4286867.76647   3333846.84147                  21341760.7254
        23.7504         26.5004
  21846796.8224    -727390.04747   -557410.78846                  21846804.2094
        24.5004         25.5004
 02  8  6 16 19 15.0020000  0  8G31G 3G 9G14G15G17G18G21
  24804322.3304    -724850.06245   -439149.22845                  24804333.7134
        10.0004          8.2504
  22409373.1114   -2948063.05547  -2277669.52946                  22409379.2294
        24.0004         22.5004
  25041054.7524    -330562.28845   -186580.16645                  25041065.3504
         8.2504          7.0004
  23747185.8384   -2020319.00645  -1013263.05945                  23747191.7914
         9.0004          8.0004
  21429847.6114    4542662.44148   3512153.52947                  21429853.9284
        32.5004         30.2504
  22013003.1504    5637141.43447   4382297.47546                  22013010.3614
        23.0004         23.2504
  21348098.7684    4320204.69747   3359823.65147                  21348104.6744
        24.7504         27.0004
  21847759.7524    -722329.11347   -553467.18447                  21847766.8814
        25.5004         26.0004
 02  8  6 16 19 30.0020000  0  8G31G 3G 9G14G15G17G18G21
  24798738.4004    -754195.21645   -462015.56845                  24798749.9474
         9.7504          8.2504
  22409071.7684   -2949646.98447  -2278903.75146                  22409078.0724
        24.0004         22.7504
  25037982.0494    -346702.86645   -199157.11745                  25037993.2444
         8.0004          7.0004
  23740096.0574   -2057574.96745  -1042293.58445                  23740102.3614
         9.7504          7.7504
  21436366.3854    4576919.62748   3538847.42147                  21436372.3854
        32.2504         30.5004
  22020498.2054    5676526.79147   4412987.34046                  22020505.1704
        23.7504         23.0004
  21354462.1434    4353641.28647   3385878.11647                  21354467.6154
        26.2504         27.5004
  21848740.0724    -717178.31447   -549453.56647                  21848747.1544
        25.5004         26.5004
 02  8  6 16 19 45.0020000  0  8G31G 3G 9G14G15G17G18G21
  24793172.1664    -783440.25045   -484803.93545                  24793182.2954
         9.0004          8.0004
  22408800.9394   -2951072.62447  -2280014.63546                  22408807.3384
        25.5004         23.5004
  25034929.2294    -362745.98745   -211658.15145                  25034942.8504
         8.5004          7.7504
  23733020.8464   -2094756.52945  -1071266.18745                  23733028.6434
         9.5004          8.2504
  21442905.4164    4611283.82348   3565624.70147                  21442912.0144
        31.5004         30.5004
  22028011.9794    5716012.52047   4443755.40446                  22028019.1544
        23.5004         23.2504
  21360843.6664    4387175.38747   3412008.58247                  21360848.6704
        26.7504         27.2504
  21849737.0884    -711939.82247   -545371.63147                  21849744.1114
        25.7504         26.7504
 02  8  6 16 20  0.0020000  0  8G31G 3G 9G14G15G17G18G21
  24787627.1824    -812585.03345   -507514.14745                  24787637.7444
         9.7504          8.7504
  22408559.3464   -2952340.05047  -2281002.25346                  22408566.0374
        24.7504         24.0004
  25031894.2294    -378691.45845   -224083.10145                  25031908.3894
         7.7504          7.7504
  23725959.4004   -2131863.38745  -1100180.52745                  23725966.0684
         9.7504          9.0004
  21449464.8304    4645754.91648   3592485.28247                  21449471.6274
        30.5004         30.5004
  22035544.7294    5755598.68047   4474601.73846                  22035552.3504
        22.2504         23.2504
  21367243.0024    4420806.74147   3438214.82047                  21367247.9824
        26.2504         27.2504
  21850750.3614    -706613.99347   -541221.63947                  21850757.5024
        25.2504         26.7504
 02  8  6 16 20 15.0020000  0  8G31G 3G 9G14G15G17G18G21
  24782099.7754    -841627.69245   -530144.82445                  24782106.5374
         9.0004          7.5004
  22408348.5884   -2953447.57047  -2281865.25146                  22408355.7054
        24.2504         24.0004
  25028879.7684    -394537.30245   -236430.42345                  25028894.1044
         8.2504          7.7504
  23718913.2754   -2168893.69045  -1129035.26645                  23718920.4634
        10.5004          9.2504
  21456045.0724    4680334.45848   3619430.36047                  21456052.2134
        30.5004         30.7504
  22043096.9554    5795286.90147   4505527.60746                  22043105.1154
        22.2504         23.2504
  21373661.8934    4454536.88347   3464498.04147                  21373666.8384
        26.5004         26.7504
  21851781.2134    -701199.43047   -537002.50147                  21851788.3424
        26.0004         26.7504
 02  8  6 16 20 30.0020000  0  8G31G 3G 9G14G15G17G18G21
  24776592.9324    -870568.83945   -552696.34545                  24776600.9984
         8.7504          8.2504
  22408168.0184   -2954396.06047  -2282604.34646                  22408175.4164
        23.7504         24.5004
  25025883.0254    -410284.16545   -248700.54845                  25025894.6434
         8.5004          7.2504
  23711881.4944   -2205848.13145  -1157830.81245                  23711889.2914
        10.7504          8.7504
  21462646.5184    4715021.45248   3646459.17747                  21462653.4594
        31.7504         31.2504
  22050668.9714    5835076.09947   4536532.15046                  22050677.3654
        21.7504         23.2504
  21380099.1044    4488364.54247   3490857.24947                  21380103.9434
        26.7504         26.5004
  21852828.0184    -695697.21747   -532715.06947                  21852835.2174
        26.0004         26.7504
 02  8  6 16 20 45.0020000  0  8G31G 3G 9G14G15G17G18G21
  24771104.7294    -899408.93345   -575169.10645                  24771113.3224
         9.2504          9.0004
  22408017.7914   -2955185.95247  -2283219.84546                  22408025.4364
        24.2504         24.0004
  25022905.6894    -425932.38445   -260893.89645                  25022918.8544
         9.0004          7.7504
  23704863.1274   -2242727.14345  -1186567.65645                  23704870.7604
        11.0004          9.0004
  21469267.5804    4749815.28748   3673571.23747                  21469274.3304
        31.7504         31.0004
  22058260.1504    5874965.66347   4567614.89946                  22058267.7834
        23.2504         23.0004
  21386554.2994    4522288.76347   3517291.69047                  21386559.2794
        25.5004         26.0004
  21853891.6194    -690107.85947   -528359.71747                  21853898.5374
        26.2504         26.7504
 02  8  6 16 21  0.0020000  0  8G31G 3G 9G14G15G17G18G21
  24765635.0024    -928148.09745   -597563.23445                  24765644.0184
         9.2504          9.5004
  22407897.6584   -2955817.60447  -2283712.03946                  22407905.0334
        25.0004         24.2504
  25019945.9324    -441482.02245   -273010.42045                  25019959.3774
         8.2504          8.0004
  23697858.9714   -2279530.85345  -1215245.80045                  23697867.1894
        10.7504          9.5004
  21475908.5024    4784715.48048   3700766.18347                  21475915.0644
        30.7504         30.7504
  22065869.5334    5914955.08547   4598775.46446                  22065877.1784
        22.7504         23.5004
  21393028.0334    4556308.97147   3543800.93047                  21393033.3074
        25.2504         26.5004
  21854971.8384    -684431.88647   -523936.87347                  21854978.3654
        26.7504         26.2504
 02  8  6 16 21 15.0020000  0  8G31G 3G 9G14G15G17G18G21
  24760184.6824    -956788.31145   -619880.29545                  24760194.1784
         8.0004          9.2504
  22407807.7054   -2956293.17147  -2284082.59546                  22407814.8344
        26.2504         23.7504
  25017006.3934    -456935.05945   -285051.62145                  25017018.8774
         8.7504          7.7504
  23690869.3544   -2316261.25145  -1243866.75945                  23690877.2444
        10.5004          9.2504
  21482569.3224    4819719.69348   3728042.18247                  21482575.9904
        30.0004         30.2504
  22073498.1044    5955042.07047   4630012.06546                  22073505.3854
        23.5004         23.7504
  21399519.9794    4590422.71047   3570383.05547                  21399524.9244
        25.7504         26.7504
  21856068.3304    -678671.73147   -519448.43547                  21856074.2834
        27.7504         26.2504
 02  8  6 16 21 30.0020000  0  8G31G 3G 9G14G15G17G18G21
  24754754.7524    -985326.18645   -642117.53045                  24754765.4434
         8.5004          8.7504
  22407746.9084   -2956609.47347  -2284329.06146                  22407752.9204
        25.2504         22.5004
  25014084.8774    -472288.02545   -297014.90245                  25014096.8574
         8.7504          7.5004
  23683894.0574   -2352915.01345  -1272428.07745                  23683903.4714
         9.2504          9.5004
  21489251.2994    4854831.10348   3755401.71147                  21489258.0494
        30.7504         30.0004
  22081145.6044    5995229.87247   4661327.20746                  22081152.9434
        23.5004         24.0004
  21406029.9474    4624632.82047   3597040.27247                  21406035.1624
        25.0004         26.7504
  21857180.8694    -672824.24347   -514891.94947                  21857186.9984
        27.5004         26.5004
 02  8  6 16 21 45.0020000  0  8G31G 3G 9G14G15G17G18G21
  24749344.3384   -1013759.37445   -664273.26545                  24749353.3184
         9.0004          9.2504
  22407717.1504   -2956764.41747  -2284449.77746                  22407723.2564
        24.5004         22.0004
  25011181.4634    -487538.51645   -308898.31645                  25011191.3934
         8.0004          7.0004
  23676933.6434   -2389489.71145  -1300927.73945                  23676943.3614
         9.0004          9.5004
  21495953.4554    4890051.72248   3782846.34147                  21495960.2644
        30.5004         30.0004
  22088812.4714    6035520.32947   4692722.34746                  22088820.1274
        23.2504         24.0004
  21412558.3854    4658941.13747   3623774.00947                  21412563.9864
        25.0004         26.7504
  21858310.3694    -666887.64347   -510266.03347                  21858316.9434
        26.5004         26.5004
 02  8  6 16 22  0.0020000  0  8G31G 3G 9G14G15G17G18G21
  24743952.7754   -1042089.35045   -686348.52445                  24743962.0844
         8.2504          8.5004
  22407718.2294   -2956759.49447  -2284445.93146                  22407724.2174
        24.2504         21.7504
  25008297.2054    -502687.83244   -320702.95545                  25008306.3734
         7.0004          7.0004
  23669989.5334   -2425986.78145  -1329366.93245                  23669997.8464
         8.7504          9.7504
  21502675.9004    4925379.71448   3810374.63647                  21502682.9714
        29.5004         30.0004
  22096498.6894    6075911.75047   4724196.15746                  22096506.0064
        23.0004         23.7504
  21419104.9474    4693345.67147   3650582.72747                  21419110.8774
        24.5004         26.5004
  21859456.6044    -660863.78447   -505572.11047                  21859463.4754
        26.5004         26.5004
 02  8  6 16 22 15.0020000  0  8G31G 3G 9G14G15G17G18G21
  24738582.1894   -1070315.00345   -708342.48945                  24738590.5144
         9.2504          8.7504
  22407749.7134   -2956593.79647  -2284316.80846                  22407755.6784
        24.2504         22.2504
  25005436.1584    -517734.75345   -332427.80745                  25005443.1584
         8.5004          6.5004
  23663058.6044   -2462405.12245  -1357744.76645                  23663065.9904
         8.0004          8.5004
  21509418.9394    4960815.96848   3837987.29047                  21509426.1624
        29.0004         29.5004
  22104203.6664    6116404.98147   4755749.29546                  22104210.9244
        21.7504         23.2504
  21425670.9244    4727847.03047   3677466.87547                  21425676.7954
        25.2504         26.7504
  21860620.0184    -654751.88447   -500809.58747                  21860626.3464
        27.7504         26.7504
 02  8  6 16 22 30.0020000  0  8G31G 3G 9G14G15G17G18G21
  24733230.7054   -1098436.87645   -730255.66845                  24733239.1114
         9.5004          9.7504
  22407811.6744   -2956268.22847  -2284063.11146                  22407818.0964
        24.5004         23.2504
  25002593.2604    -532679.98945   -344073.39845                  25002602.7684
         9.7504          6.7504
  23656142.8544   -2498745.42745  -1386061.82445                  23656150.6974
         8.0004          8.7504
  21516182.2754    4996359.48447   3865683.52847                  21516189.4514
        27.5004         29.2504
  22111928.6504    6156999.03747   4787381.00046                  22111936.1074
        21.5004         22.7504
  21432254.5254    4762444.13647   3704425.64047                  21432260.3614
        25.2504         26.5004
  21861799.6824    -648553.14247   -495979.39547                  21861805.9284
        27.7504         26.7504
 02  8  6 16 22 45.0020000  0  8G31G 3G 9G14G15G17G18G21
  24727898.8304   -1126455.08245   -752088.01045                  24727905.9244
         9.7504          8.7504
  22407904.5254   -2955782.85147  -2283684.88846                  22407911.1004
        26.0004         24.2504
  24999766.8144    -547523.49445   -355639.63445                  24999774.0614
         9.5004          8.0004
  23649241.8464   -2535007.57845  -1414317.95245                  23649249.2794
         7.7504          8.7504
  21522966.3544    5032009.95547   3893463.09847                  21522973.6234
        26.5004         28.5004
  22119672.6194    6197693.68447   4819091.08046                  22119680.8144
        21.2504         23.2504
  21438855.8854    4797136.47547   3731458.61047                  21438861.4634
        25.2504         26.7504
  21862995.3144    -642267.91347   -491081.80847                  21863001.9124
        27.0004         26.7504
 02  8  6 16 23  0.0020000  0  8G31G 3G 9G14G15G17G18G21
  24722587.2604   -1154370.59545   -773840.35845                  24722596.6864
        10.0004          8.5004
  22408027.4164   -2955138.90947  -2283183.12146                  22408034.2364
        26.5004         25.2504
  24996961.0724    -562266.26145   -367127.36745                  24996973.1824
        10.2504          8.2504
  23642356.7134   -2571192.52145  -1442513.92245                  23642364.6744
         7.7504          8.5004
  21529770.2134    5067766.22847   3921325.11847                  21529777.4824
        26.0004         28.5004
  22127435.3074    6238487.57247   4850878.49746                  22127443.5724
        21.2504         23.0004
  21445475.8774    4831922.56847   3758564.63747                  21445481.4084
        26.0004         26.7504
  21864207.4794    -635897.59847   -486117.93647                  21864214.1114
        26.7504         26.7504
 02  8  6 16 23 15.0020000  0  8G31G 3G 9G14G15G17G18G21
  24717294.9244   -1182181.69945   -795511.35345                  24717302.9554
        10.5004          9.5004
  22408180.6114   -2954334.88447  -2282556.61446                  22408187.6234
        26.5004         25.5004
  24994175.3384    -576906.29245   -378535.06245                  24994190.0614
        11.2504          9.5004
  23635486.0884   -2607298.63945  -1470648.50845                  23635493.2054
         7.7504          8.5004
  21536595.2134    5103629.58347   3949270.57747                  21536602.4944
        26.7504         28.5004
  22135217.9714    6279382.13447   4882744.35746                  22135226.0024
        22.0004         22.7504
  21452113.5644    4866803.56647   3785744.62647                  21452118.8144
        26.5004         27.5004
  21865435.9794    -629441.02047   -481086.84547                  21865442.3654
        26.5004         26.2504
 02  8  6 16 23 30.0020000  0  8G31G 3G 9G14G15G17G18G21
  24712021.2754   -1209889.96645   -817102.22845                  24712029.6234
        10.0004         10.0004
  22408362.7134   -2953372.56947  -2281806.74846                  22408370.0414
        24.0004         25.2504
  24991408.6974    -591445.24745   -389864.09745                  24991421.6864
        11.2504          9.2504
  23628628.9394   -2643327.59645  -1498722.89845                  23628636.4084
         7.7504          8.5004
  21543440.0184    5139598.00647   3977297.91047                  21543447.0884
        27.7504         28.7504
  22143018.1744    6320375.39047   4914687.12946                  22143025.7604
        21.5004         23.0004
  21458768.4864    4901777.34647   3812996.91747                  21458774.0184
        26.7504         27.7504
  21866681.0574    -622899.91647   -475989.88247                  21866687.0574
        27.0004         25.7504
 02  8  6 16 23 45.0020000  0  8G31G 3G 9G14G15G17G18G21
  24706768.5184   -1237492.38045   -838610.57045                  24706779.7834
         8.7504          9.7504
  22408576.3774   -2952249.06447  -2280931.31046                  22408583.9984
        23.7504         25.0004
  24988663.4794    -605880.00646   -401111.81445                  24988675.0024
        12.7504          9.2504
  23621788.6274   -2679276.19845  -1526734.69645                  23621795.3074
         7.7504          9.0004
  21550305.3934    5175674.35948   4005409.34147                  21550312.4044
        28.0004         29.0004
  22150838.1194    6361470.20447   4946709.02446                  22150845.7644
        21.2504         23.0004
  21465442.1504    4936846.52647   3840323.53547                  21465447.9394
        26.7504         27.5004
  21867942.2364    -616271.82647   -470825.13746                  21867948.2954
        26.2504         25.0004
 02  8  6 16 24  0.0020000  0  8G31G 3G 9G14G15G17G18G21
  24701536.6974   -1264990.54745   -860037.68245                  24701546.3694
         9.7504          8.7504
  22408820.8934   -2950966.26647  -2279931.72546                  22408828.2094
        24.5004         24.2504
  24985935.9324    -620212.17046   -412279.64245                  24985946.3894
        13.2504         10.0004
  23614962.2834   -2715146.18645  -1554685.31445                  23614969.4244
         7.7504          8.7504
  21557190.6664    5211856.71648   4033603.37847                  21557197.5104
        28.5004         28.7504
  22158677.2834    6402664.60547   4978808.53346                  22158684.9984
        22.0004         23.5004
  21472134.1194    4972008.94648   3867722.81047                  21472139.7214
        28.2504         28.0004
  21869219.3854    -609558.83947   -465594.23546                  21869225.3144
        26.2504         24.7504
 02  8  6 16 24 15.0020000  0  8G31G 3G 9G14G15G17G18G21
  24696323.6894   -1292385.09445   -881384.09045                  24696333.6314
         9.5004          9.7504
  22409095.0884   -2949524.71447  -2278808.42546                  22409101.8964
        24.2504         23.7504
  24983226.7754    -634442.24345   -423367.90945                  24983235.8614
        11.5004          9.5004
  23608153.2054   -2750938.14145  -1582575.07545                  23608159.3934
         9.0004          9.0004
  21564096.0884    5248144.26048   4061879.37647                  21564102.8614
        29.2504         28.7504
  22166535.6584    6443957.73147   5010984.97646                  22166543.3264
        23.2504         23.2504
  21478842.8854    5007263.56548   3895193.92547                  21478847.8544
        29.0004         28.2504
  21870513.4324    -602761.68747   -460297.75246                  21870519.5144
        26.7504         25.2504
 02  8  6 16 24 30.0020000  0  8G31G 3G 9G14G15G17G18G21
  24691130.3694   -1319672.27645   -902646.81145                  24691140.8144
         8.7504          9.5004
  22409400.7524   -2947920.92347  -2277558.72046                  22409407.5024
        24.7504         23.7504
  24980538.8774    -648566.40145   -434373.70645                  24980549.5334
        10.2504          9.5004
  23601357.7604   -2786648.26545  -1610401.07945                  23601363.7254
         9.5004          9.0004
  21571021.9084    5284540.39748   4090239.98147                  21571028.5414
        28.7504         28.7504
  22174413.0644    6485352.86947   5043240.90046                  22174420.2524
        24.2504         23.5004
  21485569.7444    5042613.60248   3922739.39447                  21485574.5844
        29.2504         28.2504
  21871823.6824    -595877.08947   -454933.13646                  21871829.7174
        27.2504         25.2504
 02  8  6 16 24 45.0020000  0  8G31G 3G 9G14G15G17G18G21
  24685959.9634   -1346849.58145   -923823.91645                  24685971.1114
        10.0004         10.0004
  22409737.0414   -2946152.79747  -2276180.94146                  22409743.1704
        25.0004         23.2504
  24977871.0024    -662582.17945   -445295.01245                  24977882.9474
         8.5004          8.2504
  23594578.7914   -2822274.11745  -1638161.44345                  23594585.5294
         9.5004          9.2504
  21577968.7604    5321047.17148   4118686.81347                  21577975.3224
        28.5004         28.7504
  22182310.8614    6526852.24647   5075578.05146                  22182317.4364
        25.7504         24.0004
  21492315.2524    5078060.88748   3950360.63747                  21492319.6234
        29.0004         28.0004
  21873150.4474    -588903.11947   -449498.87047                  21873156.5884
        27.2504         25.7504
 02  8  6 16 25  0.0020000  0  8G31G 3G 9G14G15G17G18G21
  24680808.1044   -1373920.00945   -944917.72845                  24680819.5214
        10.0004          9.7504
  22410103.9794   -2944223.30747  -2274677.41346                  22410110.1074
        24.5004         23.0004
  24975223.6974    -676492.42745   -456134.09945                  24975236.4284
         8.0004          8.5004
  23587815.5884   -2857818.59245  -1665858.33545                  23587822.2564
         9.7504         10.0004
  21584936.0884    5357661.37948   4147217.34847                  21584943.0294
        28.0004         29.0004
  22190226.3074    6568452.69347   5107993.94446                  22190232.8224
        23.5004         23.5004
  21499078.5254    5113602.24548   3978055.19047                  21499083.2364
        28.7504         28.2504
  21874494.4944    -581842.90447   -443997.39447                  21874500.5184
        27.7504         25.7504
 02  8  6 16 25 15.0020000  0  8G31G 3G 9G14G15G17G18G21
  24675677.4244   -1400883.35945   -965928.09645                  24675688.7714
        10.5004         10.0004
  22410501.5574   -2942132.63247  -2273048.31246                  22410507.8614
        23.5004         23.0004
  24972597.1824    -690296.96845   -466890.77645                  24972610.8734
         8.2504          9.0004
  23581066.0494   -2893281.54045  -1693491.70645                  23581071.4394
         9.2504          9.5004
  21591923.8544    5394382.83747   4175831.45947                  21591930.9364
        27.7504         29.0004
  22198162.3854    6610154.01647   5140488.45546                  22198169.1114
        24.7504         24.5004
  21505859.1974    5149237.18848   4005822.66047                  21505864.3074
        28.2504         28.2504
  21875853.6744    -574696.83347   -438429.03046                  21875859.8384
        26.0004         25.5004
 02  8  6 16 25 30.0020000  0  8G31G 3G 9G14G15G17G18G21
  24670566.2914   -1427740.39845   -986855.64145                  24670576.4204
        10.5004         10.2504
  22410929.8144   -2939881.69047  -2271294.30446                  22410935.9554
        24.0004         22.7504
  24969990.9394    -703996.45045   -477565.66145                  24970003.6234
         8.7504          9.0004
  23574331.6584   -2928663.65945  -1721062.14245                  23574338.1154
         8.2504         10.0004
  21598932.2294    5431210.56548   4204528.37447                  21598939.0374
        29.7504         29.0004
  22206116.6114    6651955.24947   5173060.80346                  22206123.6584
        23.7504         24.2504
  21512658.0574    5184964.55348   4033662.15147                  21512663.3654
        28.2504         28.5004
  21877229.8934    -567465.96047   -432794.57246                  21877235.9284
        26.7504         25.2504
 02  8  6 16 25 45.0020000  0  8G31G 3G 9G14G15G17G18G21
  24665475.1744   -1454490.01845  -1007699.50545                  24665484.4944
        10.0004         10.2504
  22411388.9004   -2937469.55547  -2269414.71046                  22411394.8184
        24.7504         23.2504
  24967402.5884    -717589.72144   -488157.70145                  24967415.3544
         7.2504          8.5004
  23567614.1974   -2963963.84645  -1748568.70745                  23567620.6194
         7.7504          8.7504
  21605961.4394    5468145.31148   4233308.68147                  21605968.1074
        31.2504         29.7504
  22214090.0494    6693857.16247   5205711.60546                  22214097.6004
        22.7504         24.0004
  21519474.7214    5220784.79948   4061574.01547                  21519479.7834
        28.7504         28.7504
  21878622.1354    -560149.69047   -427093.58547                  21878628.1234
        27.2504         25.7504
 02  8  6 16 26  0.0020000  0  8G31G 3G 9G14G15G17G18G21
  24660405.4244   -1481133.09945  -1028460.31645                  24660415.3184
         9.5004         10.0004
  22411879.1974   -2934897.30447  -2267410.35946                  22411885.0924
        26.5004         23.7504
  24964836.7214    -731077.63344   -498667.76245                  24964848.4794
         7.2504          8.5004
  23560910.7054   -2999183.08744  -1776012.20145                  23560917.8574
         7.0004          9.5004
  21613009.5254    5505185.95948   4262171.50747                  21613016.3964
        30.0004         30.0004
  22222082.6664    6735858.48147   5238439.87646                  22222090.0184
        22.7504         23.7504
  21526308.2754    5256696.58048   4089557.20747                  21526313.2324
        28.5004         28.5004
  21880030.8544    -552749.35348   -421327.09246                  21880036.7134
        28.2504         25.5004
 02  8  6 16 26 15.0020000  0  8G31G 3G 9G14G15G17G18G21
  24655356.1744   -1507671.18245  -1049139.30345                  24655366.0574
        11.0004         10.0004
  22412398.5494   -2932166.62247  -2265282.53846                  22412404.5964
        26.2504         24.0004
  24962290.0414    -744461.58844   -509096.79045                  24962302.9004
         6.2504          7.5004
  23554225.4794   -3034322.78345  -1803393.72445                  23554232.8544
         8.0004          9.5004
  21620077.7364    5542330.65148   4291115.41547                  21620084.7484
        29.0004         29.2504
  22230093.8854    6777957.48647   5271244.27846                  22230101.5534
        21.0004         22.7504
  21533158.3384    5292697.87347   4117610.15047                  21533164.1504
        26.0004         27.5004
  21881454.4474    -545266.66047   -415496.42746                  21881460.3184
        27.5004         25.5004
 02  8  6 16 26 30.0020000  0  8G31G 3G 9G14G15G17G18G21
  24650326.9794   -1534100.13145  -1069733.27945                  24650334.9394
        11.7504         10.2504
  22412948.4864   -2929273.55447  -2263028.19546                  22412955.0254
        25.5004         24.2504
  24959765.1824    -757737.47544   -519441.66145                  24959775.7914
         6.5004          6.7504
  23547553.8774   -3069378.83345  -1830710.06745                  23547560.5454
         8.2504          9.2504
  21627166.7444    5579583.13448   4320143.30747                  21627173.7914
        29.0004         29.2504
  22238124.1434    6820157.87547   5304127.66846                  22238131.7524
        20.7504         22.7504
  21540026.7834    5328792.40147   4145735.74547                  21540032.8894
        24.7504         26.7504
  21882894.5804    -537697.96647   -409598.74046                  21882900.5214
        27.0004         25.2504
 02  8  6 16 26 45.0020000  0  8G31G 3G 9G14G15G17G18G21
  24645319.1354   -1560421.35146  -1090243.30345                  24645327.3774
        13.0004         11.0004
  22413529.6434   -2926219.79547  -2260648.63846                  22413536.5254
        25.2504         24.2504
  24957256.7214    -770906.60043   -529703.25045                  24957269.3814
         5.7504          7.0004
  23540898.2834   -3104352.74545  -1857962.38845                  23540905.6584
         8.2504          9.5004
  21634275.5644    5616941.83048   4349253.96047                  21634282.6934
        29.7504         29.5004
  22246173.8144    6862458.07647   5337088.83746                  22246181.7294
        20.7504         22.5004
  21546912.9944    5364978.13947   4173932.41347                  21546918.9474
        25.7504         27.0004
  21884350.8614    -530045.11847   -403635.47446                  21884356.9084
        26.7504         25.2504
 02  8  6 16 27  0.0020000  0  8G31G 3G 9G14G15G17G18G21
  24640330.7994   -1586635.01446  -1110669.49945                  24640339.3694
        12.5004         10.7504
  22414141.5964   -2923005.58047  -2258144.05946                  22414148.4164
        25.5004         24.0004
  24954771.6744    -783969.15344   -539881.79445                  24954781.1584
         6.2504          6.7504
  23534259.4794   -3139244.60145  -1885150.77845                  23534266.5494
         9.0004          9.7504
  21641405.3224    5654406.18948   4378446.94547                  21641412.2754
        30.5004         29.5004
  22254242.7684    6904857.42547   5370127.26146                  22254250.6354
        21.5004         22.7504
  21553816.2604    5401254.54347   4202199.71447                  21553822.1194
        26.5004         27.2504
  21885823.0414    -522309.01147   -397607.34246                  21885829.0764
        27.0004         25.5004
 02  8  6 16 27 15.0020000  0  8G31G 3G 9G14G15G17G18G21
  24635361.4944   -1612739.53245  -1131010.64145                  24635369.1274
        10.2504         10.5004
  22414784.1434   -2919629.49147  -2255513.34746                  22414790.7404
        25.2504         24.0004
  24952306.2834    -796923.42445   -549976.02145                  24952314.6664
         7.5004          7.0004
  23527634.2684   -3174052.76045  -1912273.99545                  23527641.6434
         8.2504         10.0004
  21648555.0964    5691977.60848   4407723.35647                  21648561.8814
        31.5004         30.5004
  22262330.2444    6947357.31447   5403244.03546                  22262337.7364
        23.2504         23.0004
  21560737.1824    5437622.64248   4230538.48947                  21560742.7364
        28.2504         27.7504
  21887311.2684    -514488.07847   -391513.10046                  21887317.2914
        26.5004         25.5004
 02  8  6 16 27 30.0020000  0  8G31G 3G 9G14G15G17G18G21
  24630414.3304   -1638739.41145  -1151270.26145                  24630420.8694
        10.7504         10.2504
  22415456.1584   -2916096.36747  -2252760.26646                  22415462.7914
        24.7504         24.0004
  24949862.0644    -809773.97245   -559989.33945                  24949872.1934
         9.7504          8.7504
  23521027.2134   -3208781.85545  -1939335.56445                  23521034.2014
         8.2504         10.2504
  21655724.0574    5729651.13048   4437079.33547                  21655730.6544
        31.2504         30.2504
  22270436.1584    6989952.98447   5436435.45046                  22270442.8384
        23.7504         22.7504
  21567674.8934    5474077.44848   4258944.82547                  21567679.9554
        29.2504         28.2504
  21888814.4244    -506587.22047   -385356.57547                  21888820.6004
        25.7504         25.7504
 02  8  6 16 27 45.0020000  0  8G31G 3G 9G14G15G17G18G21
  24625487.2754   -1664628.76445  -1171443.74145                  24625494.8034
        10.5004         10.5004
  22416159.6664   -2912400.52047  -2249880.38346                  22416166.2754
        25.5004         23.7504
  24947436.5724    -822514.73545   -569917.21045                  24947446.7834
         8.2504          7.7504
  23514434.5574   -3243425.90445  -1966330.88445                  23514441.7444
         8.7504         10.5004
  21662913.6894    5767432.41048   4466519.27947                  21662919.8544
        31.2504         30.0004
  22278560.7364    7032649.95147   5469705.78046                  22278567.3814
        22.2504         22.2504
  21574629.2994    5510624.33248   4287422.91247                  21574634.4204
        29.0004         28.2504
  21890334.0414    -498601.07047   -379133.59446                  21890340.7794
        25.2504         25.5004
 02  8  6 16 28  0.0020000  0  8G31G 3G 9G14G15G17G18G21
  24620582.1434   -1690408.66045  -1191531.91945                  24620591.4284
        10.5004         11.0004
  22416893.9474   -2908543.20247  -2246874.67346                  22416900.0534
        26.0004         23.7504
  24945032.7834    -835146.68445   -579760.23145                  24945043.6624
         8.2504          7.5004
  23507858.4394   -3277985.95045  -1993260.72445                  23507866.0494
         9.0004         10.7504
  21670123.2754    5805320.05548   4496042.09747                  21670129.4394
        30.2504         29.5004
  22286704.6114    7075446.89147   5503054.02746                  22286711.4084
        22.0004         21.7504
  21581601.1354    5547261.80648   4315971.58147                  21581606.1044
        29.2504         28.0004
  21891869.8074    -490531.17447   -372845.36146                  21891876.7954
        25.2504         25.5004
 02  8  6 16 28 15.0020000  0  8G31G 3G 9G14G15G17G18G21
  24615697.5024   -1716079.46145  -1211535.11045                  24615707.9714
        10.7504         11.0004
  22417658.8544   -2904525.01047  -2243743.61546                  22417664.7484
        26.7504         23.5004
  24942648.7684    -847670.22544   -589518.78745                  24942658.6274
         7.2504          7.0004
  23501297.9004   -3312462.34045  -2020125.39045                  23501304.6504
         9.7504         11.0004
  21677353.0644    5843313.31748   4525647.22647                  21677359.4284
        29.2504         29.0004
  22294867.6274    7118343.14947   5536479.65246                  22294874.7444
        22.5004         22.2504
  21588590.1664    5583988.83348   4344590.04147                  21588594.9594
        29.5004         28.2504
  21893421.6354    -482378.19447   -366492.38347                  21893427.9044
        26.5004         25.7504
 02  8  6 16 28 30.0020000  0  8G31G 3G 9G14G15G17G18G21
  24610834.4714   -1741636.66545  -1231449.78345                  24610844.4244
        11.2504         10.5004
  22418454.6744   -2900341.54247  -2240483.76346                  22418460.7214
        26.2504         23.2504
  24940287.8614    -860080.68844   -599189.25445                  24940296.8424
         6.5004          6.2504
  23494752.6894   -3346850.50845  -2046921.30345                  23494760.1004
         9.5004         10.5004
  21684603.8694    5881416.49548   4555338.00347                  21684610.6434
        28.2504         28.5004
  22303050.1194    7161342.87347   5569985.89146                  22303057.2714
        22.0004         22.2504
  21595596.5644    5620809.61048   4373281.55247                  21595601.5454
        28.7504         28.5004
  21894989.6824    -474137.84047   -360071.31847                  21894995.7294
        27.0004         25.7504
 02  8  6 16 28 45.0020000  0  8G31G 3G 9G14G15G17G18G21
  24605991.3144   -1767084.53545  -1251279.24845                  24606001.7954
        11.2504         11.0004
  22419281.1274   -2895997.21547  -2237098.57046                  22419287.0574
        26.0004         23.0004
  24937944.7914    -872382.34243   -608774.91845                  24937955.0144
         5.5004          6.5004
  23488225.8224   -3381154.89045  -2073651.89745                  23488233.5494
         9.5004         11.2504
  21691874.4714    5919624.92847   4585110.79747                  21691881.7294
        27.2504         28.0004
  22311250.7684    7204441.45446   5603569.17046                  22311258.9634
        19.7504         21.7504
  21602620.5574    5657719.38048   4402042.40847                  21602625.5254
        29.2504         28.5004
  21896573.3464    -465815.09947   -353586.04947                  21896579.4864
        26.7504         25.7504
 02  8  6 16 29  0.0020000  0  8G31G 3G 9G14G15G17G18G21
  24601169.4324   -1792422.56745  -1271023.11445                  24601179.1154
        11.2504         10.7504
  22420138.4394   -2891491.79647  -2233587.85946                  22420144.4864
        25.5004         23.2504
  24935625.9794    -884574.65043   -618275.46345                  24935635.6624
         5.2504          6.0004
  23481713.7834   -3415374.86845  -2100316.77445                  23481720.9714
        10.5004         11.2504
  21699165.2134    5957938.77247   4614965.72447                  21699172.5064
        27.0004         27.7504
  22319470.7134    7247639.23846   5637229.76246                  22319479.0494
        18.5004         21.2504
  21609661.0964    5694718.08348   4430872.55447                  21609666.2294
        28.2504         28.2504
  21898172.8544    -457409.59147   -347036.29847                  21898178.9124
        26.5004         26.0004
 02  8  6 16 29 15.0020000  0  8G31G 3G 9G14G15G17G18G21
  24596368.9714   -1817647.87045  -1290679.19345                  24596378.8894
        11.0004         11.0004
  22421026.8694   -2886822.64447  -2229949.54846                  22421032.9634
        25.2504         23.2504
  24933328.4244    -896654.63243   -627688.44045                  24933339.7484
         6.0004          7.0004
  23475218.2444   -3449507.59445  -2126913.64945                  23475225.2214
        10.2504         11.2504
  21706476.9084    5996360.73247   4644904.89547                  21706483.9904
        27.0004         27.5004
  22327710.1824    7290938.71946   5670969.60046                  22327718.9514
        18.2504         21.0004
  21616718.9864    5731808.13647   4459773.87747                  21616724.2484
        27.7504         28.0004
  21899788.4244    -448918.91347   -340420.17947                  21899794.5414
        26.5004         25.7504
 02  8  6 16 29 30.0020000  0  8G31G 3G 9G14G15G17G18G21
  24591589.4324   -1842761.02045  -1310247.84245                  24591598.4004
        10.5004         11.0004
  22421946.5184   -2881990.58147  -2226184.30846                  22421952.5534
        25.7504         23.5004
  24931051.0334    -908622.81744   -637014.30345                  24931058.7714
         6.7504          7.2504
  23468738.9474   -3483553.56445  -2153442.90745                  23468746.5334
        10.0004         11.0004
  21713808.6584    6034889.88747   4674927.57547                  21713815.2214
        27.0004         27.0004
  22335969.0184    7334338.98846   5704787.95046                  22335977.7174
        18.2504         21.5004
  21623794.1434    5768988.40247   4488745.49647                  21623799.3344
        27.7504         27.7504
  21901420.5414    -440344.00947   -333738.42947                  21901426.7874
        27.2504         26.2504
 02  8  6 16 29 45.0020000  0  8G31G 3G 9G14G15G17G18G21
  24586832.5574   -1867763.57945  -1329730.33145                  24586842.1824
        11.5004         10.7504
  22422897.0574   -2876997.30347  -2222293.44446                  22422903.0684
        26.2504         24.0004
  24928795.3224    -920480.64845   -646254.14045                  24928806.2834
         7.5004          8.5004
  23462276.4864   -3517514.30145  -2179905.76845                  23462282.9904
        10.5004         11.0004
  21721160.1664    6073524.39047   4705032.35747                  21721166.8694
        26.2504         26.7504
  22344246.9634    7377838.18046   5738683.39246                  22344255.3934
        19.0004         21.2504
  21630885.7294    5806256.93447   4517785.89347                  21630890.7794
        27.0004         27.7504
  21903067.7684    -431686.99847   -326992.70447                  21903074.3544
        27.2504         26.7504
 02  8  6 16 30  0.0020000  0  8G31G 3G 9G14G15G17G18G21
  24582095.7994   -1892650.77945  -1349122.92845                  24582105.2484
        10.2504         10.5004
  22423879.1744   -2871838.12347  -2218273.30846                  22423885.1974
        27.7504         24.2504
  24926559.4164    -932223.24644   -655404.21245                  24926572.9554
         7.2504          8.7504
  23455831.7604   -3551385.08045  -2206298.53345                  23455837.7604
        11.5004         11.7504
  21728532.9794    6112268.70347   4735222.70947                  21728539.8114
        26.5004         26.7504
  22352544.4394    7421440.80846   5772659.44046                  22352552.7524
        19.2504         21.0004
  21637995.6664    5843618.01347   4546898.41347                  21638001.1504
        27.7504         27.7504
  21904731.8544    -422943.30847   -320179.43347                  21904738.6624
        27.5004         26.7504
 02  8  6 16 30 15.0020000  0  8G31G 3G 9G14G15G17G18G21
  24577381.6114   -1917427.11945  -1368429.11945                  24577391.9984
        10.7504         10.0004
  22424891.1744   -2866518.01247  -2214127.77146                  22424897.1624
        27.0004         24.5004
  24924346.9164    -943855.24045   -664468.10445                  24924359.6824
         8.5004          8.2504
  23449402.9324   -3585170.44746  -2232624.72845                  23449408.6974
        12.2504         11.2504
  21735926.0184    6151117.94547   4765494.82347                  21735932.9124
        27.0004         27.0004
  22360860.9634    7465142.05247   5806712.32446                  22360868.6434
        20.0004         21.0004
  21645121.8854    5881066.61047   4576079.12947                  21645127.2644
        27.7504         27.5004
  21906410.9794    -414117.88247   -313302.47747                  21906417.5294
        27.0004         26.7504
 02  8  6 16 30 30.0020000  0  8G31G 3G 9G14G15G17G18G21
  24572688.4394   -1942089.96545  -1387646.90145                  24572697.0924
        11.2504         10.7504
  22425934.5334   -2861034.46747  -2209854.87946                  22425940.5574
        26.7504         24.5004
  24922155.0184    -955373.86945   -673443.57245                  24922168.3814
         9.0004          8.7504
  23442989.7834   -3618867.76545  -2258882.32345                  23442996.2404
        11.7504         11.7504
  21743339.4794    6190074.65847   4795850.68647                  21743346.3964
        27.2504         27.0004
  22369196.1664    7508944.24247   5840843.87246                  22369203.2604
        20.2504         21.0004
  21652265.3544    5918604.93148   4605329.76347                  21652270.6504
        28.0004         27.2504
  21908106.3774    -405208.37647   -306359.99847                  21908112.6934
        27.0004         27.0004
 02  8  6 16 30 45.0020000  0  8G31G 3G 9G14G15G17G18G21
  24568016.6894   -1966637.52645  -1406774.81945                  24568025.7644
        11.0004         11.0004
  22427008.9244   -2855385.86947  -2205453.37146                  22427014.9824
        25.2504         24.0004
  24919984.5964    -966777.27445   -682329.33145                  24919995.8964
         9.7504         10.7504
  23436593.5414   -3652475.14546  -2285069.82946                  23436600.4594
        12.5004         12.5004
  21750773.4474    6229140.21248   4826291.34947                  21750780.2094
        28.0004         27.7504
  22377551.1434    7552848.84647   5875055.23346                  22377558.7754
        21.2504         21.0004
  21659426.1354    5956234.19448   4634651.25747                  21659431.2794
        29.0004         27.5004
  21909818.1744    -396213.61747   -299351.08847                  21909824.7364
        27.2504         26.7504
 02  8  6 16 31  0.0020000  0  8G31G 3G 9G14G15G17G18G21
  24563367.2214   -1991072.16645  -1425814.76045                  24563375.2054
        11.0004         10.2504
  22428115.0414   -2849574.83847  -2200925.29746                  22428121.1114
        25.5004         24.0004
  24917837.1274    -978067.84345   -691127.11945                  24917848.1354
        10.2504         10.7504
  23430214.7754   -3685995.03146  -2311189.16946                  23430221.7054
        12.7504         13.0004
  21758227.9554    6268311.83748   4856814.67047                  21758234.2364
        29.2504         28.0004
  22385925.1584    7596853.22447   5909344.35146                  22385932.9204
        21.5004         21.5004
  21666603.6114    5993951.50848   4664041.36247                  21666608.7214
        28.7504         27.0004
  21911545.4084    -387136.27347   -292277.82947                  21911552.1824
        26.7504         26.5004
 02  8  6 16 31 15.0020000  0  8G31G 3G 9G14G15G17G18G21
  24558739.1974   -2015393.67045  -1444766.54745                  24558745.7254
        11.0004          9.7504
  22429251.7214   -2843601.27047  -2196270.57446                  22429258.4594
        25.2504         24.2504
  24915709.6744    -989245.30145   -699836.79645                  24915720.1314
        10.2504         10.7504
  23423852.5494   -3719427.15046  -2337240.12946                  23423859.3934
        12.0004         12.7504
  21765702.2214    6307589.52048   4887420.64147                  21765708.6194
        30.2504         28.2504
  22394317.4794    7640957.20747   5943711.07146                  22394325.0534
        21.2504         21.2504
  21673797.1434    6031756.65147   4693499.90647                  21673802.0064
        27.7504         26.7504
  21913287.8614    -377976.53347   -285140.36247                  21913294.7914
        26.0004         26.5004
 02  8  6 16 31 30.0020000  0  8G31G 3G 9G14G15G17G18G21
  24554131.8224   -2039602.71945  -1463630.71545                  24554138.6434
        10.7504         10.0004
  22430419.1744   -2837466.07947  -2191489.90946                  22430425.9474
        25.2504         24.2504
  24913603.7834   -1000310.11345   -708458.68145                  24913614.7214
        10.2504         10.2504
  23417508.1044   -3752772.20446  -2363223.23646                  23417515.3264
        12.5004         12.7504
  21773196.3304    6346972.27948   4918108.49147                  21773203.2604
        30.0004         29.2504
  22402729.5184    7685159.97347   5978154.74846                  22402736.2564
        23.0004         22.0004
  21681007.5724    6069648.52547   4723026.03747                  21681012.6004
        27.2504         26.2504
  21915046.6584    -368735.32247   -277939.41047                  21915053.5764
        26.0004         26.2504
 02  8  6 16 31 45.0020000  0  8G31G 3G 9G14G15G17G18G21
  24549546.7294   -2063696.77045  -1482405.28945                  24549555.1934
        11.0004         10.5004
  22431618.0804   -2831167.05247  -2186581.57846                  22431624.5964
        25.7504         24.2504
  24911519.8854   -1011259.81445   -716990.85345                  24911530.9284
        10.0004         10.5004
  23411180.6584   -3786027.63046  -2389136.49046                  23411188.0454
        13.0004         12.7504
  21780711.2294    6386462.40448   4948879.97647                  21780718.1824
        30.5004         30.0004
  22411160.5644    7729463.63247   6012677.04046                  22411167.2564
        23.2504         22.2504
  21688235.3694    6107629.15947   4752621.32447                  21688240.1044
        27.2504         26.5004
  21916821.2134    -359410.75347   -270673.50347                  21916828.0844
        26.2504         26.5004
 02  8  6 16 32  0.0020000  0  8G31G 3G 9G14G15G17G18G21
  24544984.4634   -2087675.01945  -1501089.62345                  24544993.1504
        11.5004         10.0004
  22432847.8544   -2824703.53947  -2181545.07346                  22432854.2874
        25.5004         24.0004
  24909457.7214   -1022093.53945   -725432.65545                  24909470.1584
         9.5004          9.5004
  23404869.0494   -3819192.61846  -2414979.27946                  23404875.9434
        13.5004         12.5004
  21788246.5254    6426060.33648   4979735.47847                  21788253.5254
        31.5004         30.5004
  22419610.5254    7773868.66047   6047278.32646                  22419617.5724
        23.2504         22.7504
  21695479.7214    6145698.79547   4782285.96947                  21695484.3734
        27.0004         26.5004
  21918611.4714    -350002.36647   -263342.27247                  21918618.4004
        26.5004         26.5004
 02  8  6 16 32 15.0020000  0  8G31G 3G 9G14G15G17G18G21
  24540443.1974   -2111539.94245  -1519685.60545                  24540453.0454
        11.5004         10.2504
  22434108.6504   -2818078.16647  -2176382.43846                  22434114.7914
        26.0004         24.0004
  24907417.0964   -1032813.66645   -733785.94645                  24907430.2014
         7.7504         10.2504
  23398574.2914   -3852269.59046  -2440753.49446                  23398581.9824
        13.2504         13.2504
  21795802.3544    6465763.31048   5010672.83547                  21795809.5184
        32.2504         30.7504
  22428079.2834    7818372.38447   6081956.53246                  22428086.6934
        22.7504         23.2504
  21702740.6434    6183854.49547   4812017.66947                  21702745.2254
        27.5004         26.7504
  21920417.2834    -340512.89247   -255947.86647                  21920424.5064
        25.7504         26.5004
 02  8  6 16 32 30.0030000  0  8G31G 3G 9G14G15G17G18G21
  24535922.5154   -2135290.29245  -1538192.37445                  24535931.5304
        10.7504         10.2504
  22435400.6794   -2811288.00347  -2171091.39846                  22435407.0544
        25.5004         24.2504
  24905400.2334   -1043418.01745   -742049.01545                  24905412.0154
         8.2504         10.0004
  23392296.6874   -3885258.02246  -2466458.69546                  23392304.9054
        13.5004         14.0004
  21803378.5854    6505576.47748   5041696.05147                  21803385.7964
        32.2504         30.5004
  22436567.6474    7862980.24947   6116715.88046                  22436575.5624
        21.5004         22.7504
  21710018.5854    6222101.15147   4841820.24547                  21710023.5894
        27.0004         26.7504
  21922239.3744    -330939.03847   -248487.71747                  21922246.2184
        26.7504         26.5004
 02  8  6 16 32 45.0030000  0  8G31G 3G 9G14G15G17G18G21
  24531425.9054   -2158922.16545  -1556606.80745                  24531435.6244
        11.0004         10.0004
  22436724.3124   -2804333.44047  -2165672.24846                  22436730.9334
        26.0004         24.7504
  24903405.3744   -1053904.34745   -750220.12845                  24903418.2574
         8.2504          9.7504
  23386037.2264   -3918152.70846  -2492090.85646                  23386044.3664
        14.7504         14.5004
  21810974.3274    6545494.93048   5072801.33047                  21810981.4794
        31.5004         30.5004
  22445074.3824    7907686.76446   6151552.09146                  22445082.5894
        19.2504         22.0004
  21717313.0384    6260433.95747   4871689.94947                  21717318.2654
        26.7504         27.0004
  21924077.2654    -321282.09747   -240962.82847                  21924083.6404
        26.7504         26.0004
 02  8  6 16 33  0.0030000  0  8G31G 3G 9G14G15G17G18G21
  24526950.6794   -2182436.42245  -1574929.57745                  24526959.4254
        10.0004         10.0004
  22438078.7104   -2797213.46947  -2160124.21646                  22438085.4604
        25.2504         24.7504
  24901430.4444   -1064272.62045   -758299.26145                  24901442.3784
         7.5004          9.0004
  23379795.9764   -3950955.06346  -2517651.07946                  23379802.6324
        16.5004         14.5004
  21818590.9834    6585521.72448   5103991.02247                  21818597.8044
        30.5004         29.7504
  22453601.1084    7952495.24846   6186467.75046                  22453608.9874
        18.2504         20.7504
  21724624.7804    6298855.77447   4901629.01147                  21724630.3824
        27.0004         27.5004
  21925930.5624    -311541.30247   -233372.59447                  21925936.6794
        26.7504         26.2504
 02  8  6 16 33 15.0030000  0  8G31G 3G 9G14G15G17G18G21
  24522499.5774   -2205834.88945  -1593162.14745                  24522508.3824
        11.2504          9.7504
  22439465.1324   -2789930.23647  -2154448.96246                  22439472.2494
        26.0004         25.2504
  24899479.3194   -1074524.70145   -766287.81645                  24899491.8394
         7.7504          9.2504
  23373570.7964   -3983666.95146  -2543140.79746                  23373577.6674
        16.7504         14.5004
  21826227.9684    6625654.73248   5135263.47247                  21826234.7534
        28.5004         28.7504
  22462146.8194    7997403.57146   6221461.22946                  22462154.5224
        18.5004         20.7504
  21731952.4604    6337364.23947   4931635.59947                  21731957.7804
        27.0004         27.5004
  21927799.4914    -301718.60547   -225718.53447                  21927805.6904
        26.5004         26.2504
 02  8  6 16 33 30.0030000  0  8G31G 3G 9G14G15G17G18G21
  24518068.1874   -2229116.52845  -1611303.67745                  24518077.1444
        11.2504         10.0004
  22440882.4524   -2782482.86447  -2148645.80646                  22440890.0384
        26.2504         25.2504
  24897551.5544   -1084659.42245   -774184.95645                  24897562.8314
         9.0004          9.2504
  23367363.7574   -4016287.33346  -2568559.22446                  23367369.8744
        17.7504         14.2504
  21833885.3354    6665894.77247   5166619.32947                  21833892.1674
        27.7504         28.2504
  22470712.1164    8042412.49346   6256533.09346                  22470719.5624
        19.2504         20.7504
  21739296.5154    6375959.84847   4961710.08947                  21739301.9404
        26.0004         27.7504
  21929684.5624    -291813.47647   -218000.24147                  21929691.1364
        26.7504         26.2504
 02  8  6 16 33 45.0030000  0  8G31G 3G 9G14G15G17G18G21
  24513659.3904   -2252280.70245  -1629353.70345                  24513668.7224
        10.0004          9.5004
  22442330.7804   -2774870.85247  -2142714.36846                  22442338.2374
        26.2504         25.2504
  24895645.8664   -1094676.13245   -781990.09845                  24895655.7264
         9.2504          9.5004
  23361173.8824   -4048815.59646  -2593905.86946                  23361179.2494
        18.5004         14.5004
  21841563.1714    6706242.11647   5198058.79647                  21841570.0424
        27.7504         27.7504
  22479296.4834    8087522.39246   6291683.63546                  22479303.4604
        19.7504         20.5004
  21746658.0934    6414642.71247   4991852.56347                  21746664.0344
        26.2504         27.2504
  21931585.4134    -281825.34847   -210217.27847                  21931591.9644
        27.0004         26.2504
 02  8  6 16 34  0.0030000  0  8G31G 3G 9G14G15G17G18G21
  24509273.4764   -2275329.81845  -1647314.01545                  24509283.0654
        10.0004         10.0004
  22443809.8664   -2767096.80847  -2136656.66346                  22443817.0894
        25.0004         25.0004
  24893760.5694   -1104577.16445   -789705.08345                  24893772.5624
         8.5004          9.2504
  23355000.6164   -4081254.07646  -2619182.55346                  23355006.2764
        18.7504         14.7504
  21849260.9834    6746694.08447   5229579.78847                  21849267.8274
        27.0004         27.5004
  22487899.5154    8132730.53947   6326910.74346                  22487906.4444
        20.5004         20.7504
  21754034.6714    6453410.05847   5022060.86047                  21754040.6364
        25.2504         27.0004
  21933501.8354    -271757.03648   -202371.83947                  21933508.1984
        28.0004         26.2504
 02  8  6 16 34 15.0030000  0  8G31G 3G 9G14G15G17G18G21
  24504910.1164   -2298262.81145  -1665183.84045                  24504919.1904
        11.5004          9.7504
  22445320.1794   -2759160.03247  -2130472.16146                  22445326.9874
        25.0004         24.5004
  24891899.2574   -1114361.43845   -797329.08745                  24891911.2964
         8.2504          9.2504
  23348844.1014   -4113601.71246  -2644388.44146                  23348850.0074
        17.7504         14.7504
  21856978.4054    6787251.32847   5261182.81847                  21856985.4404
        25.7504         27.5004
  22496521.4374    8178037.53947   6362214.88846                  22496528.6944
        21.5004         21.2504
  21761428.2574    6492262.45147   5052335.44247                  21761434.3624
        24.7504         26.5004
  21935432.7024    -261608.05747   -194463.53947                  21935438.9604
        27.2504         26.2504
 02  8  6 16 34 30.0030000  0  8G31G 3G 9G14G15G17G18G21
  24500567.5774   -2321079.00245  -1682962.69945                  24500577.1444
        10.5004         10.7504
  22446862.1794   -2751059.94947  -2124160.40146                  22446869.3544
        26.2504         25.0004
  24890059.8274   -1124028.26145   -804861.61145                  24890072.4174
         9.2504          9.5004
  23342706.3824   -4145857.87846  -2669523.06646                  23342712.6984
        17.7504         14.7504
  21864716.0304    6827914.26447   5292868.20747                  21864723.2064
        25.7504         27.7504
  22505162.2264    8223443.95547   6397596.47846                  22505169.4834
        22.2504         21.7504
  21768837.3824    6531200.04447   5082676.40847                  21768843.4404
        23.7504         26.2504
  21937379.1164    -251378.51847   -186492.46547                  21937385.5034
        26.5004         25.7504
 02  8  6 16 34 45.0030000  0  8G31G 3G 9G14G15G17G18G21
  24496248.2024   -2343776.89345  -1700649.34445                  24496258.0384
         9.7504         10.2504
  22448434.6474   -2742795.28347  -2117720.39247                  22448441.7764
        26.7504         25.7504
  24888242.7414   -1133576.01845   -812301.32545                  24888253.8194
         9.7504          9.5004
  23336586.0304   -4178021.02146  -2694585.20246                  23336592.0304
        18.2504         14.5004
  21872474.4834    6868684.13047   5324636.92147                  21872481.5194
        26.5004         28.0004
  22513821.8514    8268951.00347   6433056.48546                  22513829.2844
        23.0004         21.7504
  21776263.4604    6570223.91247   5113084.60547                  21776269.4014
        24.2504         26.5004
  21939340.7494    -241066.90247   -178457.43547                  21939347.3004
        25.5004         25.7504
 02  8  6 16 35  0.0030000  0  8G31G 3G 9G14G15G17G18G21
  24491951.9684   -2366354.44045  -1718242.21145                  24491961.7804
         9.7504          9.5004
  22450038.8904   -2734364.31147  -2111150.79647                  22450045.9604
        26.2504         25.7504
  24886448.1794   -1143002.63645   -819646.65845                  24886459.8664
         9.2504          9.5004
  23330483.7334   -4210089.10746  -2719573.27746                  23330489.5814
        18.5004         14.2504
  21880253.7104    6909562.70547   5356490.33747                  21880260.5194
        27.5004         28.2504
  22522501.4134    8314560.27647   6468596.15346                  22522508.7884
        23.7504         22.0004
  21783706.3124    6609335.52447   5143561.17347                  21783712.4174
        25.2504         26.5004
  21941319.2184    -230671.35847   -170357.00346                  21941325.6514
        25.5004         25.5004
 02  8  6 16 35 15.0030000  0  8G31G 3G 9G14G15G17G18G21
  24487679.4444   -2388812.39445  -1735741.88545                  24487688.4484
        11.2504         10.7504
  22451674.7334   -2725767.98947  -2104452.36346                  22451682.0264
        26.0004         25.5004
  24884678.4294   -1152308.82445   -826898.17745                  24884688.9334
        10.0004          9.7504
  23324399.3514   -4242062.83946  -2744487.81746                  23324405.2454
        18.2504         14.5004
  21888053.6404    6950548.91948   5388427.62347                  21888060.3784
        28.2504         28.0004
  22531199.7024    8360270.79247   6504214.70646                  22531206.7264
        23.2504         21.7504
  21791166.1164    6648533.67647   5174105.18647                  21791171.8704
        27.2504         27.0004
  21943313.4294    -220193.24647   -162192.22747                  21943320.0034
        26.0004         25.7504
 02  8  6 16 35 30.0030000  0  8G31G 3G 9G14G15G17G18G21
  24483428.1874   -2411152.40645  -1753149.65645                  24483436.0654
        10.7504         10.0004
  22453341.6794   -2717008.15447  -2097626.52646                  22453349.0304
        25.5004         24.7504
  24882929.8124   -1161496.24145   -834057.09645                  24882940.0694
        10.2504         10.0004
  23318332.1014   -4273943.84046  -2769330.10646                  23318339.1244
        17.7504         14.5004
  21895873.0464    6991640.78248   5420447.23447                  21895879.4094
        28.5004         28.5004
  22539917.1084    8406080.72747   6539910.73146                  22539924.0264
        22.7504         21.0004
  21798641.4914    6687816.42647   5204715.11247                  21798646.9054
        27.7504         27.0004
  21945322.6634    -209634.47147   -153964.61247                  21945329.3904
        26.0004         25.7504
 02  8  6 16 35 45.0030000  0  8G31G 3G 9G14G15G17G18G21
  24479199.6714   -2433374.54445  -1770465.55345                  24479206.6364
        11.2504         10.0004
  22455039.3124   -2708085.13947  -2090673.54546                  22455046.5934
        24.2504         24.2504
  24881204.6084   -1170564.89545   -841123.50745                  24881216.4254
        10.5004          9.2504
  23312283.2804   -4305732.22046  -2794100.22146                  23312290.9374
        18.0004         14.2504
  21903712.5694    7032837.97848   5452548.93847                  21903718.9684
        29.0004         28.7504
  22548652.6404    8451989.45747   6575683.73046                  22548660.0034
        21.2504         21.0004
  21806132.5074    6727183.07147   5235390.41747                  21806138.0504
        27.5004         26.7504
  21947347.1244    -198995.48347   -145674.49447                  21947354.2064
        26.0004         26.0004
 02  8  6 16 36  0.0030000  0  8G31G 3G 9G14G15G17G18G21
  24474993.7184   -2455479.52345  -1787690.16445                  24475000.3624
        11.7504          9.7504
  22456767.9444   -2698999.93847  -2083594.17746                  22456775.2844
        24.2504         24.2504
  24879500.0854   -1179515.42645   -848097.87145                  24879510.9524
         9.5004         10.2504
  23306251.4054   -4337428.71146  -2818798.69846                  23306258.6984
        18.0004         14.7504
  21911572.2494    7074139.42348   5484731.86847                  21911579.0694
        29.7504         29.0004
  22557406.7884    8497995.98846   6611532.95746                  22557414.6554
        19.7504         20.7504
  21813639.1404    6766632.38747   5266130.14147                  21813644.6714
        26.7504         26.2504
  21949386.7264    -188277.48247   -137322.78947                  21949393.7024
        26.2504         26.2504
 02  8  6 16 36 15.0030000  0  8G31G 3G 9G14G15G17G18G21
  24470809.3974   -2477466.35345  -1804822.79845                  24470815.8434
        11.7504         10.2504
  22458527.9684   -2689751.81047  -2076387.85446                  22458535.2964
        24.2504         24.0004
  24877819.6474   -1188346.82245   -854979.40745                  24877828.1124
         9.7504          9.7504
  23300236.7724   -4369032.32246  -2843424.83546                  23300242.8904
        17.2504         14.5004
  21919451.8124    7115545.76248   5516996.52947                  21919458.8124
        30.0004         29.2504
  22566180.6164    8544101.20146   6647459.07046                  22566188.7414
        19.7504         20.2504
  21821161.9524    6806164.94147   5296934.72347                  21821167.8944
        26.2504         26.0004
  21951441.6634    -177479.82847   -128909.03047                  21951448.2614
        26.7504         26.2504
 02  8  6 16 36 30.0030000  0  8G31G 3G 9G14G15G17G18G21
  24466648.1794   -2499333.16446  -1821861.84245                  24466655.4834
        12.0004         10.7504
  22460319.3274   -2680339.10947  -2069053.26846                  22460326.4444
        25.0004         23.7504
  24876162.1404   -1197057.11145   -861766.56145                  24876171.4134
         9.5004          8.5004
  23294240.5384   -4400541.04446  -2867977.04646                  23294246.5154
        17.2504         14.5004
  21927351.3664    7157058.62648   5549344.19947                  21927358.4834
        29.5004         28.7504
  22574973.4764    8590306.48547   6683463.15746                  22574981.9524
        20.0004         20.5004
  21828700.6944    6845782.02347   5327805.18247                  21828706.6124
        26.2504         25.7504
  21953511.6554    -166600.94147   -120431.97147                  21953518.1834
        26.7504         26.2504
 02  8  6 16 36 45.0030000  0  8G31G 3G 9G14G15G17G18G21
  24462509.6794   -2521079.16145  -1838806.76445                  24462516.8314
        11.7504         10.0004
  22462141.9214   -2670761.27047  -2061590.01246                  22462148.4254
        25.0004         23.5004
  24874528.5854   -1205645.47045   -868458.70245                  24874536.8394
         9.5004          8.0004
  23288263.6324   -4431954.26746  -2892454.83246                  23288269.6554
        18.5004         14.7504
  21935270.9524    7198678.44748   5581775.21647                  21935278.1044
        28.7504         28.5004
  22583784.8904    8636612.38546   6719545.63946                  22583792.9094
        19.5004         20.0004
  21836256.2104    6885484.08347   5358741.85047                  21836262.1044
        27.0004         26.5004
  21955597.3904    -155640.64747   -111891.48647                  21955603.6124
        26.7504         26.0004
 02  8  6 16 37  0.0030000  0  8G31G 3G 9G14G15G17G18G21
  24458393.8584   -2542705.92245  -1855658.76945                  24458402.5814
        11.2504         10.2504
  22463995.8044   -2661020.08247  -2053999.47146                  22464001.8624
        26.7504         23.5004
  24872917.3824   -1214113.40645   -875057.07245                  24872924.4404
        10.0004          8.5004
  23282304.0304   -4463273.50046  -2916859.36846                  23282310.4174
        19.2504         15.7504
  21943211.0544    7240403.41748   5614288.16347                  21943217.9484
        29.0004         28.5004
  22592615.5774    8683017.00046   6755705.04146                  22592623.1514
        19.7504         20.2504
  21843827.7574    6925269.05348   5389743.11547                  21843832.9604
        29.0004         27.5004
  21957698.3664    -144600.75947   -103288.98147                  21957704.4954
        26.7504         25.7504
 02  8  6 16 37 15.0030000  0  8G31G 3G 9G14G15G17G18G21
  24454301.7574   -2564213.24645  -1872417.71245                  24454310.2334
        11.7504         10.7504
  22465881.1944   -2651115.65247  -2046281.72146                  22465887.0544
        27.7504         23.7504
  24871328.4684   -1222460.69145   -881561.37345                  24871337.8354
        10.0004          8.5004
  23276362.0774   -4494498.44246  -2941190.42646                  23276367.9954
        19.2504         15.5004
  21951171.2184    7282233.42848   5646882.95147                  21951178.0504
        29.7504         28.5004
  22601465.1634    8729520.16647   6791941.24146                  22601472.9954
        20.2504         20.2504
  21851414.2334    6965136.67748   5420808.79347                  21851419.2844
        29.5004         28.0004
  21959814.4914    -133481.48247    -94624.60246                  21959820.5504
        27.5004         25.5004
 02  8  6 16 37 30.0030000  0  8G31G 3G 9G14G15G17G18G21
  24450232.4994   -2585599.18546  -1889082.04445                  24450242.4764
        12.2504         11.7504
  22467797.1474   -2641046.20647  -2038435.39846                  22467803.0304
        27.2504         23.7504
  24869763.5224   -1230685.37345   -887970.13445                  24869772.8194
        10.0004          9.0004
  23270437.2574   -4525627.11646  -2965446.48246                  23270444.4444
        17.7504         15.7504
  21959151.7184    7324170.10248   5679560.85847                  21959158.4914
        30.0004         28.5004
  22610333.4604    8776123.60947   6828255.57746                  22610341.1514
        21.0004         20.7504
  21859017.0304    7005088.35448   5451939.96147                  21859021.9054
        30.0004         28.0004
  21961945.7724    -122281.32147    -85897.20447                  21961951.7024
        27.7504         25.7504
 02  8  6 16 37 45.0030000  0  8G31G 3G 9G14G15G17G18G21
  24446184.9374   -2606868.42346  -1905655.43646                  24446194.4334
        12.2504         12.2504
  22469743.9684   -2630816.66847  -2030464.33146                  22469749.9334
        27.0004         23.7504
  24868220.2104   -1238791.97745   -894286.93545                  24868231.4294
         9.5004          9.2504
  23264531.2804   -4556664.28946  -2989631.23546                  23264538.5034
        17.0004         15.7504
  21967151.1474    7366208.40848   5712317.97147                  21967157.9794
        29.2504         28.2504
  22619220.3824    8822822.37147   6864644.18646                  22619227.8044
        21.5004         20.5004
  21866634.2964    7045119.03548   5483132.69747                  21866638.9374
        29.0004         28.0004
  21964091.5464    -111005.39547    -77110.75247                  21964097.5814
        27.7504         25.7504
 02  8  6 16 38  0.0030000  0  8G31G 3G 9G14G15G17G18G21
  24442161.5304   -2628015.98346  -1922134.05046                  24442170.9094
        13.5004         12.5004
  22471721.1554   -2620422.34847  -2022364.85146                  22471727.0504
        26.2504         23.7504
  24866701.0384   -1246775.44145   -900507.74245                  24866714.8584
         9.5004          9.7504
  23258642.8044   -4587605.02346  -3013740.85346                  23258649.7334
        16.2504         15.2504
  21975171.0304    7408352.94148   5745157.86147                  21975177.7574
        29.7504         28.0004
  22628125.9524    8869621.01447   6901110.61946                  22628132.8354
        21.2504         20.7504
  21874267.2804    7085233.18047   5514390.45647                  21874272.6124
        27.2504         27.5004
  21966251.8194     -99648.90647    -68261.53147                  21966257.9834
        26.7504         25.7504
 02  8  6 16 38 15.0030000  0  8G31G 3G 9G14G15G17G18G21
  24438159.7184   -2649042.48746  -1938518.30646                  24438167.7374
        12.7504         12.0004
  22473730.1014   -2609863.99647  -2014137.54546                  22473736.2654
        26.0004         23.7504
  24865205.0384   -1254636.42945   -906633.14245                  24865217.7694
         9.2504         10.2504
  23252772.9764   -4618449.94646  -3037775.80346                  23252779.8584
        16.2504         15.2504
  21983211.0224    7450602.83748   5778079.84147                  21983217.3864
        30.5004         28.2504
  22637049.9374    8916518.78547   6937654.31346                  22637057.2534
        20.5004         20.2504
  21881916.3664    7125429.60747   5545712.33647                  21881922.2024
        26.7504         27.5004
  21968428.5624     -88212.79247    -59350.26847                  21968434.7724
        27.2504         26.0004
 02  8  6 16 38 30.0030000  0  8G31G 3G 9G14G15G17G18G21
  24434182.1084   -2669946.80246  -1954807.37246                  24434189.8354
        13.2504         12.5004
  22475770.9444   -2599140.80647  -2005781.80346                  22475776.9684
        26.2504         24.2504
  24863732.6324   -1262373.84845   -912662.24245                  24863744.9994
         9.5004         10.2504
  23246922.3904   -4649197.79746  -3061735.12646                  23246929.8234
        16.2504         15.7504
  21991271.3584    7492959.03548   5811084.65747                  21991277.7804
        30.2504         28.2504
  22645993.2334    8963516.35347   6974275.76246                  22646000.4214
        20.0004         19.7504
  21889581.3434    7165709.08647   5577098.93647                  21889587.2024
        26.5004         27.5004
  21970620.2184     -76696.67048    -50376.67347                  21970626.2764
        28.0004         26.2504
